[[{"header":{"parameterUnit":"m.s-1","parameterCategory":1,"la1":30.6,"la2":29.2853,"lo1":-89.7004,"lo2":-87.6739,"dy":0.0162,"dx":0.0183,"nx":112,"ny":82,"refTime":"2023-06-12T12:00:00:Z","depth":0,"parameterNumber":2,"parameterNumberName":"U-component_of_WINDS"},"data":[0.0,0.0,0.0,0.0,0.0,0.0,0.0,0.0,0.0,0.0,0.0,0.0,0.0,0.0,0.0,0.0,0.0,0.0,0.0,0.0,0.0,0.0,0.0,0.0,0.0,0.0,0.0,0.0,0.0,0.0,0.0,0.0,0.0,0.0,0.0,0.0,0.0,0.0,0.0,0.0,0.0,0.0,0.0,0.0,0.0,0.0,0.0,0.0,0.0,0.0,0.0,0.0,0.0,0.0,0.0,0.0,0.0,0.0,0.0,0.0,0.0,0.0,0.0,0.0,0.0,0.0,0.0,0.0,0.0,0.0,0.0,0.0,0.0,0.0,0.0,0.0,0.0,0.0,0.0,0.0,0.0,0.0,0.0,0.0,0.0,0.0,0.0,0.0,0.0,0.0,-3.5017,-3.5526,-3.5478,-3.5259,-3.5064,-3.5064,-3.5064,-3.5064,0.0,0.0,0.0,0.0,0.0,0.0,0.0,0.0,0.0,0.0,0.0,0.0,0.0,0.0,0.0,0.0,0.0,0.0,0.0,0.0,0.0,0.0,0.0,0.0,0.0,0.0,0.0,0.0,0.0,0.0,0.0,0.0,0.0,0.0,0.0,0.0,0.0,0.0,0.0,0.0,0.0,0.0,0.0,0.0,0.0,0.0,0.0,0.0,0.0,0.0,0.0,0.0,0.0,0.0,0.0,0.0,0.0,0.0,0.0,0.0,0.0,0.0,0.0,0.0,0.0,0.0,0.0,0.0,0.0,0.0,0.0,0.0,0.0,0.0,0.0,0.0,0.0,0.0,0.0,0.0,0.0,0.0,0.0,0.0,0.0,0.0,0.0,0.0,0.0,0.0,0.0,0.0,0.0,0.0,0.0,0.0,0.0,0.0,0.0,0.0,0.0,0.0,0.0,0.0,-3.4992,-3.5547,-3.5956,-3.6221,-3.617,-3.617,-3.617,-3.617,0.0,0.0,0.0,0.0,0.0,0.0,0.0,0.0,0.0,0.0,0.0,0.0,0.0,0.0,0.0,0.0,0.0,0.0,0.0,0.0,0.0,0.0,0.0,0.0,0.0,0.0,0.0,0.0,0.0,0.0,0.0,0.0,0.0,0.0,0.0,0.0,0.0,0.0,0.0,0.0,0.0,0.0,0.0,0.0,0.0,0.0,0.0,0.0,0.0,0.0,0.0,0.0,0.0,0.0,0.0,0.0,0.0,0.0,0.0,0.0,0.0,0.0,0.0,0.0,0.0,0.0,0.0,0.0,0.0,0.0,0.0,0.0,0.0,0.0,0.0,0.0,0.0,0.0,0.0,0.0,0.0,0.0,0.0,0.0,0.0,0.0,0.0,0.0,0.0,0.0,0.0,0.0,0.0,0.0,0.0,0.0,0.0,0.0,0.0,0.0,0.0,0.0,0.0,-3.5497,-3.5785,-3.6026,-3.6266,-3.6411,-3.6411,-3.6411,-3.6411,-3.6411,-3.5954,0.0,0.0,0.0,0.0,0.0,0.0,0.0,0.0,0.0,0.0,0.0,0.0,0.0,0.0,0.0,0.0,0.0,0.0,0.0,0.0,0.0,0.0,0.0,0.0,0.0,0.0,0.0,0.0,0.0,0.0,0.0,0.0,0.0,0.0,0.0,0.0,0.0,0.0,0.0,0.0,0.0,0.0,0.0,0.0,0.0,0.0,0.0,0.0,0.0,0.0,0.0,0.0,0.0,0.0,0.0,0.0,0.0,0.0,0.0,0.0,0.0,0.0,0.0,0.0,0.0,0.0,0.0,0.0,0.0,0.0,0.0,0.0,0.0,0.0,0.0,0.0,0.0,0.0,0.0,0.0,0.0,0.0,0.0,0.0,0.0,0.0,0.0,0.0,0.0,0.0,0.0,0.0,0.0,0.0,0.0,0.0,0.0,0.0,0.0,0.0,0.0,0.0,-3.6266,-3.6603,-3.6603,-3.6699,-3.6771,-3.6771,-3.6771,-3.6771,-3.6771,-3.6771,0.0,0.0,0.0,0.0,0.0,0.0,0.0,0.0,0.0,0.0,0.0,0.0,0.0,0.0,0.0,0.0,0.0,0.0,0.0,0.0,0.0,0.0,0.0,0.0,0.0,0.0,0.0,0.0,0.0,0.0,0.0,0.0,0.0,0.0,0.0,0.0,0.0,0.0,0.0,0.0,0.0,0.0,0.0,0.0,0.0,0.0,0.0,0.0,0.0,0.0,0.0,0.0,0.0,0.0,0.0,0.0,0.0,0.0,0.0,0.0,0.0,0.0,0.0,0.0,0.0,0.0,0.0,0.0,0.0,0.0,0.0,0.0,0.0,0.0,0.0,0.0,0.0,0.0,0.0,0.0,0.0,0.0,0.0,0.0,0.0,0.0,0.0,0.0,0.0,0.0,0.0,0.0,0.0,0.0,0.0,0.0,0.0,0.0,0.0,0.0,0.0,0.0,-3.6819,-3.7132,-3.7132,-3.7589,-3.7878,-3.7878,-3.7878,-3.7878,-3.7878,-3.7878,0.0,0.0,0.0,0.0,0.0,0.0,0.0,0.0,0.0,0.0,0.0,0.0,0.0,0.0,0.0,0.0,0.0,0.0,0.0,0.0,0.0,0.0,0.0,0.0,0.0,0.0,0.0,0.0,0.0,0.0,0.0,0.0,0.0,0.0,0.0,0.0,0.0,0.0,0.0,0.0,0.0,0.0,0.0,0.0,0.0,0.0,0.0,0.0,0.0,0.0,0.0,0.0,0.0,0.0,0.0,0.0,0.0,0.0,0.0,0.0,0.0,0.0,0.0,0.0,0.0,0.0,0.0,0.0,0.0,0.0,0.0,0.0,0.0,0.0,0.0,0.0,0.0,0.0,0.0,0.0,0.0,0.0,0.0,0.0,0.0,0.0,0.0,0.0,0.0,0.0,0.0,0.0,0.0,0.0,0.0,0.0,0.0,0.0,0.0,0.0,0.0,0.0,-3.7348,-3.7685,-3.7685,-3.7853,-3.7974,-3.7974,-3.7974,-3.7974,-3.7974,0.0,0.0,0.0,0.0,0.0,0.0,0.0,0.0,0.0,0.0,0.0,0.0,0.0,0.0,0.0,0.0,0.0,0.0,0.0,0.0,0.0,0.0,0.0,0.0,0.0,0.0,0.0,0.0,0.0,0.0,0.0,0.0,0.0,0.0,0.0,0.0,0.0,0.0,0.0,0.0,0.0,0.0,0.0,0.0,0.0,0.0,0.0,0.0,0.0,0.0,0.0,0.0,0.0,0.0,0.0,0.0,0.0,0.0,0.0,0.0,0.0,0.0,0.0,0.0,0.0,0.0,0.0,0.0,0.0,0.0,0.0,0.0,0.0,0.0,0.0,0.0,0.0,0.0,0.0,0.0,0.0,0.0,0.0,0.0,0.0,0.0,0.0,0.0,0.0,0.0,0.0,0.0,0.0,0.0,0.0,0.0,0.0,0.0,0.0,0.0,0.0,0.0,-3.7445,-3.7902,-3.8238,-3.8238,-3.8407,-3.8503,-3.8503,-3.8503,-3.8503,-3.8503,0.0,0.0,0.0,0.0,0.0,0.0,0.0,0.0,0.0,0.0,0.0,0.0,0.0,0.0,0.0,0.0,0.0,0.0,0.0,0.0,0.0,0.0,0.0,0.0,0.0,0.0,0.0,0.0,0.0,0.0,0.0,0.0,0.0,0.0,0.0,0.0,0.0,0.0,0.0,0.0,0.0,0.0,0.0,0.0,0.0,0.0,0.0,0.0,0.0,0.0,0.0,0.0,0.0,0.0,0.0,0.0,0.0,0.0,0.0,0.0,0.0,0.0,0.0,0.0,0.0,0.0,0.0,0.0,0.0,0.0,0.0,0.0,0.0,0.0,0.0,0.0,0.0,0.0,0.0,0.0,0.0,0.0,0.0,0.0,0.0,0.0,0.0,0.0,0.0,0.0,0.0,0.0,0.0,0.0,0.0,0.0,0.0,0.0,0.0,0.0,0.0,0.0,-3.7998,-3.8479,-3.8815,-3.8815,-3.9296,-3.9609,-3.9609,-3.9609,-3.9609,0.0,0.0,0.0,0.0,0.0,0.0,0.0,0.0,0.0,0.0,0.0,0.0,0.0,0.0,0.0,0.0,0.0,0.0,0.0,0.0,0.0,0.0,0.0,0.0,0.0,0.0,0.0,0.0,0.0,0.0,0.0,0.0,0.0,0.0,0.0,0.0,0.0,0.0,0.0,0.0,0.0,0.0,0.0,0.0,0.0,0.0,0.0,0.0,0.0,0.0,0.0,0.0,0.0,0.0,0.0,0.0,0.0,0.0,0.0,0.0,0.0,0.0,0.0,0.0,0.0,0.0,0.0,0.0,0.0,0.0,0.0,0.0,0.0,0.0,0.0,0.0,0.0,0.0,0.0,0.0,0.0,0.0,0.0,0.0,0.0,0.0,0.0,0.0,0.0,0.0,0.0,0.0,0.0,0.0,0.0,0.0,0.0,0.0,0.0,0.0,0.0,0.0,0.0,-3.8575,-3.9032,-3.9369,-3.9369,-3.9513,-3.9609,-3.9609,-3.9609,-3.9609,-3.9609,0.0,0.0,0.0,0.0,0.0,0.0,0.0,0.0,0.0,0.0,0.0,0.0,0.0,0.0,0.0,0.0,0.0,0.0,0.0,0.0,0.0,0.0,0.0,0.0,0.0,0.0,0.0,0.0,0.0,0.0,0.0,0.0,0.0,0.0,0.0,0.0,0.0,0.0,0.0,0.0,0.0,0.0,0.0,0.0,0.0,0.0,0.0,0.0,0.0,0.0,0.0,0.0,0.0,0.0,0.0,0.0,0.0,0.0,0.0,0.0,0.0,0.0,0.0,0.0,0.0,0.0,0.0,0.0,0.0,0.0,0.0,0.0,0.0,0.0,0.0,0.0,0.0,0.0,0.0,0.0,0.0,0.0,0.0,0.0,0.0,0.0,0.0,0.0,0.0,0.0,0.0,0.0,0.0,0.0,0.0,0.0,0.0,0.0,0.0,0.0,0.0,0.0,-3.9073,-3.9585,-3.9922,-3.9922,-4.0114,-4.0234,-4.0234,-4.0234,-4.0234,-4.0234,0.0,0.0,0.0,0.0,0.0,0.0,0.0,0.0,0.0,0.0,0.0,0.0,0.0,0.0,0.0,0.0,0.0,0.0,0.0,0.0,0.0,0.0,0.0,0.0,0.0,0.0,0.0,0.0,0.0,0.0,0.0,0.0,0.0,0.0,0.0,0.0,0.0,0.0,0.0,0.0,0.0,0.0,0.0,0.0,0.0,0.0,0.0,0.0,0.0,0.0,0.0,0.0,0.0,0.0,0.0,0.0,0.0,0.0,0.0,0.0,0.0,0.0,0.0,0.0,0.0,0.0,0.0,0.0,0.0,0.0,0.0,0.0,0.0,0.0,0.0,0.0,0.0,0.0,0.0,0.0,0.0,0.0,0.0,0.0,0.0,0.0,0.0,0.0,0.0,0.0,0.0,0.0,0.0,0.0,0.0,0.0,0.0,0.0,0.0,0.0,0.0,0.0,-3.9324,-4.0082,-4.0475,-4.0475,-4.0908,-4.1172,-4.1172,-4.1172,-4.1172,-4.1172,0.0,0.0,0.0,0.0,0.0,0.0,0.0,0.0,0.0,0.0,0.0,0.0,0.0,0.0,0.0,0.0,0.0,0.0,0.0,0.0,0.0,0.0,0.0,0.0,0.0,0.0,0.0,0.0,0.0,0.0,0.0,0.0,0.0,0.0,0.0,0.0,0.0,0.0,0.0,0.0,0.0,0.0,0.0,0.0,0.0,0.0,0.0,0.0,0.0,0.0,0.0,0.0,0.0,0.0,0.0,0.0,0.0,0.0,0.0,0.0,-3.1162,0.0,0.0,0.0,0.0,0.0,0.0,0.0,0.0,0.0,0.0,0.0,0.0,0.0,0.0,0.0,0.0,0.0,0.0,0.0,0.0,0.0,0.0,0.0,0.0,0.0,0.0,0.0,0.0,0.0,0.0,0.0,0.0,0.0,0.0,0.0,0.0,0.0,0.0,0.0,0.0,0.0,-3.8608,-4.0016,-4.1028,-4.1028,-4.1124,-4.1172,-4.1172,-4.1172,-4.1172,-4.1172,-4.1172,0.0,0.0,0.0,0.0,0.0,0.0,0.0,0.0,0.0,0.0,0.0,0.0,0.0,0.0,0.0,0.0,0.0,0.0,0.0,0.0,0.0,0.0,0.0,0.0,0.0,0.0,0.0,0.0,0.0,0.0,0.0,0.0,0.0,0.0,0.0,0.0,0.0,0.0,0.0,0.0,0.0,0.0,0.0,0.0,0.0,0.0,0.0,0.0,0.0,0.0,0.0,0.0,0.0,0.0,0.0,0.0,0.0,0.0,0.0,0.0,-3.1182,0.0,0.0,0.0,0.0,0.0,0.0,0.0,0.0,0.0,0.0,0.0,0.0,0.0,0.0,0.0,0.0,0.0,0.0,0.0,0.0,0.0,0.0,0.0,0.0,0.0,0.0,0.0,0.0,0.0,0.0,0.0,0.0,0.0,0.0,0.0,0.0,0.0,0.0,0.0,0.0,-3.8709,-4.0421,-4.1557,-4.1557,-4.1798,-4.1942,-4.1942,-4.1942,-4.1822,-4.1581,-4.1557,0.0,0.0,0.0,0.0,0.0,0.0,0.0,0.0,0.0,0.0,0.0,0.0,0.0,0.0,0.0,0.0,0.0,0.0,0.0,0.0,0.0,0.0,0.0,0.0,0.0,0.0,0.0,0.0,0.0,0.0,0.0,0.0,0.0,0.0,0.0,0.0,0.0,0.0,0.0,0.0,0.0,0.0,0.0,0.0,0.0,0.0,0.0,0.0,0.0,0.0,0.0,0.0,0.0,-3.3589,-3.2813,-3.2229,-3.2229,-3.2268,-3.2266,-3.1894,-3.1914,-3.2229,-3.2229,0.0,0.0,0.0,0.0,0.0,0.0,0.0,0.0,0.0,0.0,0.0,0.0,0.0,0.0,0.0,0.0,0.0,0.0,0.0,0.0,0.0,0.0,-3.2383,-3.2383,-3.2383,-3.2402,-3.248,0.0,0.0,0.0,0.0,0.0,0.0,0.0,0.0,0.0,0.0,0.0,-3.8635,-4.0538,-4.1674,-4.1413,-4.1995,-4.2436,-4.2436,-4.264,-4.2627,-4.2193,-4.2169,-4.1918,0.0,0.0,0.0,0.0,0.0,0.0,0.0,0.0,0.0,0.0,0.0,0.0,0.0,0.0,0.0,0.0,0.0,0.0,0.0,0.0,0.0,0.0,0.0,0.0,0.0,0.0,0.0,0.0,0.0,0.0,0.0,0.0,-3.5787,-3.5844,0.0,0.0,0.0,0.0,0.0,0.0,0.0,0.0,0.0,0.0,0.0,0.0,0.0,-3.5153,-3.2016,-3.3261,-3.3409,-3.2614,-3.2433,-3.2291,-3.2229,-3.2229,-3.2363,-3.2715,-3.2656,0.0,-3.2229,-3.2229,0.0,0.0,0.0,0.0,0.0,0.0,0.0,0.0,0.0,0.0,0.0,0.0,0.0,0.0,0.0,0.0,0.0,0.0,0.0,0.0,0.0,0.0,-3.3262,-3.3262,-3.3262,-3.3359,-3.375,-3.3242,-3.2715,-3.2715,-3.3008,-3.3398,0.0,0.0,0.0,0.0,0.0,0.0,-3.7171,-3.9281,-4.0395,-3.9202,-4.0195,-4.0999,-4.0999,-4.2136,-4.2795,-4.2723,-4.2723,-4.2675,-4.2602,-4.2602,0.0,0.0,0.0,0.0,0.0,0.0,0.0,0.0,0.0,0.0,0.0,0.0,0.0,0.0,0.0,0.0,0.0,0.0,0.0,0.0,0.0,0.0,0.0,0.0,0.0,0.0,0.0,0.0,0.0,-3.6109,-3.6211,-3.6202,-3.6475,-3.6573,0.0,0.0,0.0,0.0,0.0,0.0,0.0,0.0,0.0,-3.3468,-3.5301,-3.5215,-3.2853,-3.2935,-3.3156,-3.3518,-3.2868,-3.2656,-3.2871,-3.2871,-3.2969,-3.3144,-3.3144,-3.3047,-3.2871,-3.2871,-3.2871,-3.2871,0.0,0.0,0.0,0.0,-3.2871,-3.2871,-3.2871,-3.2871,-3.2871,-3.2871,0.0,0.0,0.0,0.0,0.0,0.0,0.0,-3.4141,-3.4141,-3.4141,-3.4141,-3.4141,-3.4141,-3.4199,-3.4375,-3.4121,-3.3867,-3.3867,-3.4023,-3.4199,-3.4394,-3.4434,0.0,0.0,0.0,-3.8456,-3.791,-4.0406,-4.2028,-4.1392,-4.2186,-4.2744,-4.2744,-4.3259,-4.3505,-4.3192,-4.3168,-4.3048,-4.2843,-4.2819,-4.2819,0.0,0.0,0.0,0.0,0.0,0.0,0.0,0.0,0.0,0.0,0.0,0.0,0.0,0.0,0.0,0.0,0.0,0.0,0.0,0.0,0.0,0.0,0.0,0.0,0.0,0.0,0.0,0.0,-3.653,-3.6527,-3.6606,-3.6756,-3.688,0.0,0.0,0.0,0.0,0.0,0.0,-3.659,-3.6669,-3.569,-3.3534,-3.4825,-3.4948,-3.3657,-3.2911,-3.3168,-3.4451,-3.3542,-3.334,-3.375,-3.375,-3.375,-3.375,-3.375,-3.375,-3.373,-3.3516,-3.3496,-3.3594,-3.3594,-3.3652,-3.375,-3.375,-3.375,-3.375,-3.375,-3.375,-3.375,-3.375,-3.375,-3.3809,-3.4141,0.0,0.0,0.0,0.0,-3.4707,-3.4707,-3.4707,-3.4707,-3.4707,-3.4707,-3.4726,-3.4844,-3.4883,-3.4844,-3.4726,-3.4707,-3.4746,-3.4863,-3.4883,0.0,-3.5019,-3.7074,-3.8529,-3.8529,-4.0921,-4.2629,-4.2629,-4.3316,-4.3764,-4.3764,-4.4099,-4.4117,-4.3746,-4.3721,-4.3553,-4.3192,-4.3168,-4.3168,-4.3168,0.0,0.0,0.0,0.0,0.0,0.0,0.0,0.0,0.0,0.0,0.0,0.0,0.0,0.0,0.0,0.0,0.0,0.0,0.0,0.0,0.0,0.0,0.0,0.0,0.0,0.0,0.0,0.0,0.0,-3.7136,-3.7156,0.0,0.0,0.0,0.0,-3.8635,-3.685,-3.5823,-3.5961,-3.5845,-3.4698,-3.235,-3.3862,-3.4065,-3.2878,-3.3164,-3.3574,-3.4132,-3.4068,-3.4238,-3.4629,-3.4629,-3.4629,-3.4629,-3.4629,-3.4629,-3.457,-3.375,-3.3672,-3.4043,-3.4043,-3.4277,-3.4629,-3.4629,-3.4629,-3.4629,-3.4629,-3.4629,-3.4629,-3.4629,-3.4629,-3.4648,-3.4668,-3.4687,0.0,0.0,-3.4707,-3.4707,-3.4707,-3.4707,-3.4707,-3.4707,-3.4707,-3.4824,-3.5254,-3.5351,-3.5234,-3.4785,-3.4707,-3.4844,-3.5293,0.0,-3.5488,-3.5898,-3.7199,-3.8113,-3.8113,-3.9431,-4.0365,-4.0365,-4.161,-4.242,-4.242,-4.3576,-4.4261,-4.4237,-4.4237,-4.4237,-4.4213,-4.4213,-4.4213,-4.4213,-4.3746,0.0,0.0,0.0,0.0,0.0,0.0,0.0,0.0,0.0,0.0,0.0,0.0,0.0,0.0,0.0,0.0,0.0,0.0,0.0,0.0,0.0,0.0,0.0,0.0,0.0,0.0,0.0,0.0,-3.7637,-3.8022,0.0,-3.8503,-3.8602,-3.8468,-3.8111,-3.6665,-3.5611,-3.5083,-3.5044,-3.4532,-3.3442,-3.4754,-3.5039,-3.4023,-3.416,-3.4316,-3.4473,-3.4473,-3.4551,-3.4707,-3.4707,-3.4707,-3.4707,-3.4707,-3.4707,-3.4668,-3.4375,-3.4336,-3.4473,-3.4473,-3.457,-3.4707,-3.4707,-3.4707,-3.4707,-3.4707,-3.4707,-3.4707,-3.4707,-3.4902,-3.5137,-3.5137,-3.5332,-3.5547,-3.5547,-3.5547,-3.5547,-3.5547,-3.5547,-3.5547,-3.5547,-3.5547,-3.5586,-3.5762,-3.5801,-3.5742,-3.5586,-3.5547,-3.5605,-3.5762,-3.5801,-3.6178,-3.7173,-3.8573,-3.9801,-4.0668,-4.2016,-4.2862,-4.2862,-4.3326,-4.3576,-4.3576,-4.4037,-4.4285,-4.4285,-4.4285,-4.4285,-4.4285,-4.4285,-4.4285,-4.4285,-4.4093,-4.3997,0.0,0.0,0.0,0.0,0.0,0.0,0.0,0.0,0.0,0.0,0.0,0.0,0.0,0.0,0.0,0.0,0.0,0.0,0.0,0.0,0.0,0.0,0.0,0.0,0.0,0.0,-3.7878,-3.8214,-3.8743,-3.908,-3.908,-3.9149,-3.9042,-3.8647,-3.6963,-3.6084,-3.6385,-3.5355,-3.479,-3.5012,-3.5332,-3.528,-3.4687,-3.4707,-3.4785,-3.4941,-3.4941,-3.5019,-3.5156,-3.5156,-3.5156,-3.5156,-3.5156,-3.5156,-3.5156,-3.5156,-3.5156,-3.5137,-3.498,-3.5019,-3.5156,-3.5156,-3.5156,-3.5156,-3.5156,-3.5156,-3.5156,-3.5156,-3.5351,-3.5605,-3.5605,-3.5801,-3.6016,-3.6016,-3.6016,-3.6016,-3.6016,-3.6016,-3.6016,-3.6016,-3.6016,-3.6016,-3.6016,-3.6016,-3.6016,-3.6016,-3.6016,-3.6016,-3.6016,-3.6016,-3.6355,-3.726,-3.8573,-3.9997,-4.1441,-4.2799,-4.3764,-4.4223,-4.4285,-4.4285,-4.4285,-4.4285,-4.4285,-4.4285,-4.4285,-4.4285,-4.4285,-4.4285,-4.4285,-4.4285,-4.4285,-4.4285,-4.4285,0.0,0.0,0.0,0.0,0.0,0.0,0.0,0.0,0.0,0.0,0.0,0.0,0.0,0.0,0.0,0.0,0.0,0.0,0.0,0.0,0.0,0.0,0.0,-3.8518,-3.864,-3.8839,-3.8839,-3.932,-3.9633,-3.9633,-3.8938,-3.9046,-4.0257,-3.7747,-3.7226,-3.9756,-3.6664,-3.5406,-3.6742,-3.5406,-3.4726,-3.4746,-3.4746,-3.4961,-3.541,-3.541,-3.5625,-3.6016,-3.6016,-3.6016,-3.6016,-3.6016,-3.6016,-3.6016,-3.6016,-3.6016,-3.5976,-3.5566,-3.5664,-3.6016,-3.6016,-3.6016,-3.6016,-3.6016,-3.6016,-3.6016,-3.6016,-3.6016,-3.6016,-3.6016,-3.6016,-3.6016,-3.6016,-3.6016,-3.6016,-3.6016,-3.6016,-3.6016,-3.6016,-3.6016,-3.6016,-3.6035,-3.6035,-3.6035,-3.6055,-3.6055,-3.6055,-3.6016,-3.6016,-3.6016,-3.6152,-3.726,0.0,-4.0127,-4.1505,-4.2862,-4.4161,-4.4285,-4.4285,-4.4285,-4.4285,-4.4285,-4.4285,-4.4285,-4.4285,-4.4285,-4.4285,-4.4285,-4.4285,-4.4285,-4.4285,-4.4285,0.0,0.0,0.0,0.0,0.0,0.0,0.0,0.0,0.0,0.0,0.0,0.0,0.0,0.0,0.0,0.0,0.0,0.0,0.0,0.0,0.0,0.0,-3.931,-3.8779,-3.911,-3.9393,-3.9393,-3.985,-4.0186,-4.0186,-4.0693,-4.0728,-4.0176,-3.9734,-3.8967,-3.7718,-3.6767,-3.6067,-3.5772,-3.5395,-3.5351,-3.5644,-3.5664,-3.5723,-3.5859,-3.5859,-3.5898,-3.6016,-3.6016,-3.6016,-3.6016,-3.6016,-3.6016,-3.6016,-3.6016,-3.6016,-3.6016,-3.5898,-3.5918,-3.6016,-3.6016,-3.6016,-3.6016,-3.6016,-3.6016,-3.6016,-3.6016,-3.6016,-3.6016,-3.6016,-3.6016,-3.6016,-3.6016,-3.6016,-3.6016,-3.6016,-3.6016,-3.6016,-3.6016,-3.6016,-3.6113,-3.6426,-3.6484,-3.6582,-3.6894,-3.6953,-3.6758,-3.6133,-3.6016,-3.6674,-3.8772,-3.9343,-4.0452,-4.2862,-4.3514,-4.3888,-4.4285,-4.4285,-4.4285,-4.4285,-4.4285,-4.4285,-4.4285,-4.4285,-4.4285,-4.4285,-4.4285,-4.4285,-4.4285,-4.4285,-4.4285,0.0,0.0,0.0,0.0,0.0,0.0,0.0,0.0,0.0,0.0,0.0,0.0,0.0,0.0,0.0,0.0,0.0,0.0,0.0,0.0,0.0,0.0,-4.0189,-3.9826,-3.9513,-3.9753,-3.9946,-3.9946,-4.0595,-4.1052,-4.1052,-4.1822,-4.1983,-4.1221,-4.1144,-4.0412,-3.8823,-3.7888,-3.736,-3.7406,-3.6229,-3.6032,-3.6856,-3.6287,-3.6016,-3.6016,-3.6211,-3.6289,-3.6289,-3.6484,-3.6562,-3.6562,-3.6562,-3.6562,-3.6562,-3.6562,-3.6562,-3.6523,0.0,0.0,0.0,0.0,-3.6016,-3.6016,-3.6016,-3.6133,-3.6289,-3.6289,-3.6406,-3.6562,-3.6562,-3.6562,-3.6562,-3.6562,-3.6562,-3.6562,-3.6562,-3.6562,-3.6562,-3.6562,-3.6562,-3.6621,-3.6875,-3.6934,-3.7012,-3.7246,-3.7305,0.0,-3.6641,-3.7074,-3.801,-3.9675,-4.0913,-4.2308,-4.3873,-4.4618,-4.4957,-4.4957,-4.4957,-4.4861,-4.4621,-4.4621,0.0,0.0,0.0,-4.4285,-4.4285,-4.4285,0.0,0.0,0.0,-4.4285,-4.4285,-4.4285,0.0,0.0,-4.4285,-4.4285,0.0,0.0,0.0,0.0,0.0,0.0,0.0,0.0,0.0,0.0,0.0,0.0,0.0,0.0,0.0,0.0,-4.0578,-4.0499,-4.0571,-4.0571,-4.0571,-4.0571,-4.1461,-4.2121,-4.2121,-4.2602,-4.2916,-4.2916,-4.2254,-4.1768,-4.1581,0.0,0.0,0.0,0.0,-3.6829,-3.8191,-3.6754,-3.6113,-3.6172,-3.6562,-3.6738,-3.6758,-3.7129,-3.7305,-3.7305,-3.7305,-3.7305,-3.7305,-3.7305,-3.7305,-3.7226,-3.6465,-3.6172,-3.6172,-3.6172,-3.6172,-3.6172,-3.6172,0.0,0.0,-3.6738,-3.6992,-3.7305,-3.7305,-3.7305,-3.7305,-3.7305,-3.7305,-3.7305,-3.7305,-3.7305,-3.7305,-3.7305,-3.7305,-3.7305,-3.7363,-3.7363,-3.7383,-3.7441,-3.7441,-3.7512,-3.7653,-3.8705,-3.9592,-3.9729,-4.2082,-4.3894,-4.4025,-4.5113,-4.5934,-4.5934,-4.5934,0.0,-4.5197,-4.5149,-4.4957,-4.4501,-4.4405,-4.4381,-4.4381,-4.4309,-4.4285,-4.4285,-4.4285,-4.4285,-4.4285,-4.4285,-4.4285,-4.4285,-4.4285,-4.4285,0.0,0.0,0.0,0.0,0.0,0.0,0.0,0.0,0.0,0.0,0.0,0.0,0.0,0.0,0.0,-4.1355,-4.1184,-4.1172,-4.1605,-4.1677,-4.1677,-4.1677,-4.2289,-4.2675,-4.2675,-4.3072,-4.3361,-4.3361,-4.362,-4.3286,-4.2195,-4.1715,-4.1119,-4.0192,-3.8573,-3.796,-3.8579,-3.728,-3.6719,-3.7051,0.0,0.0,-3.7187,-3.7266,-3.7305,-3.7305,-3.7305,-3.7305,-3.7305,-3.7305,-3.7305,-3.7285,-3.7109,-3.7051,-3.7051,-3.7051,-3.7051,-3.7051,-3.7051,-3.7109,-3.7168,-3.7168,-3.7226,-3.7305,-3.7305,-3.7305,0.0,-3.7305,-3.7305,-3.7305,-3.7305,-3.7305,-3.7305,-3.7305,-3.7305,-3.7383,-3.7734,-3.7812,-3.791,-3.8262,-3.832,-3.8754,-3.9912,-3.9811,-3.9914,-4.1004,-4.2682,-4.4221,-4.5307,-4.5717,-4.5934,-4.5934,-4.5934,-4.5886,-4.579,-4.5766,-4.5718,-4.5621,-4.5149,-4.4933,-4.4933,-4.4525,-4.4285,-4.4285,-4.4285,-4.4285,-4.4285,-4.4285,-4.4285,-4.4285,-4.4285,-4.4285,0.0,0.0,0.0,0.0,0.0,0.0,0.0,0.0,0.0,0.0,0.0,-4.1798,0.0,0.0,-4.1752,-4.198,-4.1789,-4.1749,-4.2303,-4.2591,-4.2639,-4.2458,-4.2808,-4.3144,-4.3144,-4.3625,-4.3938,-4.3938,-4.4117,-4.3701,-4.2356,-4.2522,-4.2339,-4.1607,-4.0517,-4.0356,-4.124,-3.9191,-3.8234,-3.8366,-3.7854,-3.7617,-3.7617,-3.7832,-3.793,-3.793,-3.793,-3.793,-3.8001,-3.8766,-3.903,-3.9101,-3.9857,-3.8959,-3.7305,-3.7305,-3.7305,-3.7305,-3.7305,-3.7441,-3.7617,-3.7617,-3.7754,-3.793,-3.793,-3.793,-3.793,-3.793,-3.793,-3.793,-3.793,-3.793,-3.793,-3.793,-3.793,-3.7988,-3.8203,-3.8242,-3.832,-3.8535,-3.8574,-3.9063,-4.0514,-4.1039,-4.1762,-4.3218,-4.472,-4.5893,-4.6573,-4.6704,-4.6704,-4.6704,-4.6704,-4.6607,-4.6343,-4.6078,-4.5934,-4.5934,-4.5669,-4.5525,-4.5525,-4.5221,-4.5077,-4.5077,-4.5077,-4.5077,-4.5077,-4.4813,-4.4669,-4.4669,-4.4405,-4.4285,0.0,0.0,0.0,0.0,0.0,0.0,0.0,0.0,-4.1656,-4.2263,-4.2308,-4.2323,-4.2494,-4.2273,-4.2209,-4.2394,-4.2272,-4.2362,-4.2832,-4.3265,-4.3409,-4.3096,-4.3433,-4.3673,-4.3673,-4.4021,-4.4285,-4.4285,-4.4381,-4.3992,-4.2875,-4.3363,-4.3641,-4.3553,-4.2701,-4.2749,-4.39,-4.1337,-3.9965,-3.9723,-3.8848,-3.8314,-3.8066,-3.8418,-3.8832,-3.9202,-3.9625,-3.9592,-3.9394,-4.0925,-4.1212,-4.0802,-4.2259,-4.0755,-3.7845,-3.7952,-3.7822,-3.7539,-3.7539,-3.7773,-3.8047,-3.8047,-3.8281,-3.8574,-3.8574,-3.8574,-3.8574,-3.8574,-3.8574,-3.8574,-3.8574,-3.8574,-3.8574,-3.8574,-3.8574,-3.8574,-3.8574,-3.8924,-3.9182,-3.9182,-3.946,-4.0225,-4.1691,-4.2965,-4.4086,-4.5165,-4.6516,-4.7497,-4.7497,-4.7497,-4.7497,-4.7497,-4.7497,-4.7329,-4.6896,-4.6487,-4.6223,-4.6223,-4.6126,-4.6078,-4.6078,-4.5982,-4.5934,-4.5934,-4.5934,-4.5934,-4.5934,-4.5501,-4.5285,-4.5285,-4.4789,-4.4477,-3.9697,-4.0049,-4.0425,-4.0425,-4.0774,-4.1379,0.0,0.0,-4.2263,-4.2816,-4.2662,-4.2438,-4.2513,-4.2454,-4.2394,-4.2384,-4.2587,-4.2916,-4.3361,-4.3481,-4.3673,-4.4069,-4.4165,-4.4189,-4.4189,-4.4237,-4.4285,-4.4285,-4.4717,-4.4918,-4.4792,-4.5294,-4.5557,-4.5557,-4.4263,-4.3837,-4.4428,-4.2858,-4.1636,-4.0655,-4.0554,-3.9829,-3.8496,-3.8555,-3.9552,-4.1348,-4.3192,-4.3146,-4.1927,-4.3507,-4.2512,-4.0176,-4.1748,-4.1244,-3.9641,-4.0196,-3.9625,-3.8437,-3.8437,-3.8457,-3.8496,-3.8496,-3.8535,-3.8574,-3.8574,-3.8574,-3.8574,-3.8574,-3.8574,-3.8574,-3.8574,-3.8574,-3.8574,-3.8574,-3.8574,-3.8574,-3.8574,-3.9996,-4.1255,-4.1255,-4.2725,-4.4442,-4.5955,-4.6329,-4.6241,-4.5415,-4.6516,-4.7497,-4.7497,-4.7497,-4.7497,-4.7497,-4.7497,-4.7473,-4.7425,-4.7353,-4.7329,-4.7329,-4.6896,-4.6631,-4.6631,-4.6175,-4.5934,-4.5934,-4.5934,-4.5934,-4.5934,-4.5862,-4.5838,-4.5838,-4.5766,-4.5173,-4.0099,-4.035,0.0,0.0,-4.1404,-4.1882,-4.2162,-4.2464,-4.2766,-4.2936,-4.2874,-4.2806,-4.2732,-4.2865,-4.3036,0.0,-4.3587,-4.3892,-4.422,-4.4255,-4.4328,-4.457,-4.4409,-4.4285,-4.4285,-4.4285,-4.4405,-4.4717,-4.4957,-4.5197,-4.5573,-4.6102,-4.6391,-4.6391,-4.6133,-4.604,-4.6276,-4.4821,-4.4025,-4.3867,-4.2953,-4.2393,-4.2093,-4.2093,-4.2538,-4.3379,-4.422,-4.4235,-4.373,-4.531,-4.519,-4.4135,-4.5617,-4.5332,-4.3802,-4.2167,-4.1264,-4.0679,-4.0679,-4.0679,-4.0532,-3.9613,-3.9336,-3.9336,-3.9336,-3.9336,-3.9336,-3.9336,-3.9336,-3.9336,-3.9336,-3.9336,-3.9336,-3.9336,-4.0057,-4.0679,-4.0679,-4.2095,-4.3379,-4.3379,-4.4033,-4.5096,-4.663,-4.691,-4.7051,-4.7414,-4.8072,-4.8411,-4.8411,-4.8147,-4.7834,-4.7521,-4.7497,-4.7497,-4.7497,-4.7497,-4.7497,-4.7497,-4.7305,-4.7161,-4.7161,-4.6968,-4.6848,-4.6848,-4.6848,-4.6848,-4.6848,-4.6535,-4.6391,-4.6367,-4.6078,-4.5694,-4.04,0.0,0.0,-4.1455,-4.1982,-4.2439,-4.2439,-4.274,-4.2986,-4.2986,-4.3056,-4.3112,-4.3111,-4.3433,0.0,-4.4228,-4.4522,-4.4767,-4.4792,-4.4902,-4.4902,-4.484,-4.4656,-4.4581,-4.4663,-4.4563,-4.4732,-4.5179,-4.5405,-4.5742,-4.6126,-4.6631,-4.6944,-4.6944,-4.7305,-4.7569,-4.7714,-4.6661,-4.6148,-4.6311,-4.522,-4.4622,-4.4595,-4.518,-4.5461,-4.5461,-4.6025,-4.602,-4.5733,-4.7277,-4.7419,-4.6757,-4.8287,-4.7936,-4.6401,-4.4597,-4.3477,-4.2826,-4.2334,-4.2166,-4.2018,-4.0893,-4.0539,-4.0614,-4.1042,-4.0893,-4.0539,-4.0539,-4.0259,-3.9902,-3.9902,-3.9902,-3.9902,-3.9902,-4.1116,-4.2186,-4.2186,-4.3931,-4.5461,-4.5461,-4.5931,-4.6615,-4.7772,-4.7936,-4.8287,-4.9379,-4.9517,-4.9421,-4.9109,-4.8748,-4.8363,-4.7978,-4.793,-4.793,-4.793,-4.793,-4.793,-4.793,-4.781,-4.7714,-4.7714,-4.7569,-4.7497,-4.7497,-4.7497,-4.7497,-4.7497,-4.7112,-4.6944,-4.692,-4.6535,-4.6367,0.0,0.0,-4.2162,-4.2187,-4.2615,-4.2961,-4.2961,-4.2961,-4.2986,-4.2986,-4.3187,-4.3472,-4.3758,-4.4144,-4.4565,-4.4938,-4.5143,-4.5184,-4.484,-4.5086,-4.5147,-4.484,-4.5086,-4.5343,0.0,-4.5242,-4.5242,-4.558,-4.6271,-4.668,-4.668,-4.7185,-4.7473,-4.7473,-4.7497,-4.7738,-4.8267,-4.8267,-4.7759,-4.691,-4.6817,-4.6043,-4.4689,-4.6728,-4.7622,-4.7716,-4.97,-4.9605,-4.8335,-4.9914,-4.8719,-4.6093,-4.7681,-4.7366,-4.6115,-4.7585,-4.6591,-4.4307,-4.2753,-4.2186,-4.2186,-4.2113,-4.2113,-4.2386,-4.3947,-4.341,-4.2207,-4.2207,-4.1137,-3.9902,-3.9902,-3.9902,-3.9902,-3.9902,-4.1116,-4.2186,-4.2186,-4.5011,-4.7622,-4.7622,-4.9204,-5.0506,-5.0577,-5.0577,-5.0577,-5.0648,-5.0648,-5.0263,-4.9205,-4.906,-4.9036,-4.9036,-4.9036,-4.9036,-4.9036,-4.9036,-4.9036,-4.9036,-4.8555,-4.8267,-4.8267,-4.7786,-4.7497,-4.7497,-4.7497,-4.7497,-4.7497,-4.7473,-4.7473,-4.7473,-4.7473,-4.7449,0.0,0.0,-4.2313,-4.2665,-4.2891,-4.2986,-4.2986,-4.2986,-4.3087,-4.3438,-4.3607,-4.3869,-4.4477,-4.4926,-4.5241,-4.5494,-4.5754,-4.5817,-4.5514,-4.5574,-4.5574,-4.5453,-4.5687,0.0,0.0,0.0,0.0,-4.6255,-4.6576,-4.6937,-4.7537,-4.7533,-4.7799,-4.8337,-4.816,-4.8291,-4.882,-4.882,-4.8855,-4.887,-4.925,-4.9133,-4.8684,-4.9393,-4.97,-4.97,-5.0411,-5.0388,-4.9961,-5.0483,-5.0033,-4.9126,-4.9652,-4.958,-4.9126,-4.9652,-4.9345,-4.8447,-4.6843,-4.6262,-4.6116,-4.4992,-4.4623,-4.4771,-4.5287,-4.5066,-4.4718,-4.4718,-4.4273,-4.3901,-4.3901,-4.3901,-4.3901,-4.3901,-4.5088,-4.6262,-4.6262,-4.8085,-4.97,-4.97,-5.0222,-5.0696,-5.0696,-5.0696,-5.0696,-5.0696,-5.0696,-5.0431,-4.9686,-4.9589,-4.9469,-4.9109,-4.9084,-4.9084,-4.9084,-4.9084,-4.9084,-4.9084,-4.8916,-4.882,-4.882,-4.8652,-4.8555,-4.8555,-4.8555,-4.8555,-4.8555,-4.8555,-4.8363,-4.8026,-4.8026,-4.7834,0.0,-4.2363,-4.259,-4.2886,-4.2986,-4.2986,-4.2986,-4.3137,-4.3363,-4.374,-4.4116,-4.456,-4.5051,-4.5529,-4.5839,-4.5949,-4.618,-4.618,-4.5817,-4.5878,-4.5939,-4.5817,-4.6228,0.0,0.0,0.0,0.0,-4.6851,-4.7092,-4.7399,-4.7936,-4.8022,-4.8264,-4.9005,-4.8754,-4.8888,-4.9555,-4.9442,-4.9638,-5.0167,-5.0527,-5.0696,-5.0696,-5.0696,-5.0696,-5.0696,-5.0696,-5.0696,-5.0696,-5.0696,-5.0696,-5.0696,-5.0696,-5.0696,-5.0696,-5.0696,-5.0696,-5.0483,-4.8838,-4.8308,-4.8163,-4.7118,-4.6751,-4.6898,-4.7411,-4.7192,-4.6751,-4.6751,-4.6359,-4.5915,-4.5915,-4.5915,-4.5915,-4.5915,-4.7118,-4.8308,-4.8308,-4.958,-5.0696,-5.0696,-5.0696,-5.0696,-5.0696,-5.0696,-5.0696,-5.0696,-5.0696,-5.0576,-5.0215,-5.0167,-5.0046,-4.9686,-4.9662,-4.9662,-4.9662,-4.9662,-4.9662,-4.9662,-4.9469,-4.9373,-4.9373,-4.9181,-4.9084,-4.9084,-4.9084,-4.9084,-4.9084,-4.9084,-4.8892,-4.8579,-4.8579,-4.8387,-4.2112,-4.264,-4.2986,-4.2986,-4.2986,-4.2986,-4.3011,-4.3413,-4.3815,-4.3865,-4.4744,-4.5497,0.0,0.0,-4.6301,-4.6301,-4.6301,-4.618,-4.5878,-4.612,-4.618,0.0,0.0,0.0,0.0,0.0,0.0,-4.7272,0.0,-4.805,-4.805,-4.8537,-4.9053,-4.9503,-4.9252,-4.958,-5.0458,-5.0111,-5.0237,-5.0696,-5.0696,-5.0696,-5.0696,-5.0696,-5.0696,-5.0696,-5.0696,-5.0696,-5.0696,-5.0696,-5.0696,-5.0696,-5.0696,-5.0696,-5.0696,-5.0696,-5.0696,-5.0483,-4.8982,-4.8381,-4.8381,-4.8381,-4.8381,-4.8694,-5.0246,-4.9652,-4.8381,-4.8381,-4.7338,-4.6159,-4.6159,-4.6159,-4.6159,-4.6159,-4.7338,-4.8381,-4.8381,-4.9652,-5.0696,-5.0696,-5.0696,-5.0696,-5.0696,-5.0696,-5.0696,-5.0696,-5.0696,-5.0696,-5.0696,-5.0696,-5.0696,-5.0696,-5.0696,-5.0696,-5.0696,-5.0696,-5.0696,-5.0696,-5.0191,-4.9902,-4.9902,-4.9421,-4.9157,-4.9157,-4.9157,-4.9157,-4.9157,-4.9157,-4.9157,-4.9109,-4.9109,-4.9109,-4.2665,-4.2861,-4.2986,-4.2986,-4.2986,-4.3087,-4.3489,-4.3689,-4.4041,-4.4869,-4.5296,-4.5623,0.0,0.0,0.0,-4.6301,-4.6301,0.0,-4.618,-4.624,0.0,0.0,0.0,-4.7596,-4.7307,-4.8174,0.0,0.0,-4.8084,-4.8394,-4.9381,-4.9288,-4.9773,-5.0925,-5.0416,-5.0482,-5.146,-5.1087,-5.095,-5.1095,-5.1095,-5.0954,-5.0696,-5.0954,-5.0954,-5.0696,-5.0696,-5.0696,-5.0696,-5.0696,-5.0696,-5.0696,-5.0696,-5.0696,-5.0696,-5.0696,-5.0696,-5.0625,-5.0246,-5.0104,-5.0104,-5.0104,-5.0104,-5.0175,-5.0554,-5.0412,-5.0104,-5.0104,-4.9795,-4.9509,-4.9509,-4.9509,-4.9509,-4.9509,-4.9795,-5.0104,-5.0104,-5.0412,-5.0696,-5.0696,-5.0696,-5.0696,-5.0696,-5.0696,-5.0696,-5.0696,-5.0696,-5.0696,-5.0696,-5.0696,-5.0696,-5.0696,-5.0696,-5.0696,-5.0696,-5.0696,-5.0696,-5.0696,-5.0576,-5.0503,-5.0503,-5.0359,-5.0287,-5.0287,-5.0287,-5.0287,-5.0287,-5.0287,-5.007,-4.9662,-4.9662,-4.9445,-4.2836,-4.2986,-4.2986,-4.2986,-4.3162,-4.3413,-4.374,-4.4192,-4.4719,-4.5347,-4.5673,0.0,0.0,0.0,0.0,0.0,0.0,0.0,-4.6301,-4.6301,-4.6301,0.0,-4.7255,0.0,-4.7457,-4.8426,-4.9007,0.0,-4.8616,-4.8903,-4.9843,-4.9917,-5.0504,-5.1712,-5.1299,-5.1293,-5.182,-5.1586,-5.1446,-5.1446,-5.1446,-5.1376,-5.119,-5.1165,-5.1095,-5.0884,-5.0884,-5.0884,-5.0884,-5.0884,-5.0884,-5.0884,-5.0767,-5.0696,-5.0696,-5.0696,-5.0696,-5.0696,-5.0696,-5.0696,-5.0696,-5.0696,-5.0696,-5.0696,-5.0696,-5.0696,-5.0696,-5.0696,-5.0696,-5.0696,-5.0696,-5.0696,-5.0696,-5.0696,-5.0696,-5.0696,-5.0696,-5.0696,-5.0696,-5.0696,-5.0696,-5.0696,-5.0696,-5.0696,-5.0696,-5.0696,-5.0696,-5.0696,-5.0696,-5.0696,-5.0696,-5.0696,-5.0696,-5.0696,-5.0696,-5.0696,-5.0696,-5.0696,-5.0696,-5.0696,-5.0696,-5.0696,-5.0696,-5.0696,-5.0696,-5.0696,-5.0696,-5.0696,-5.0551,-5.0239,-5.0239,-5.007,-4.2836,-4.2986,-4.2986,-4.2986,-4.3388,-4.3815,-4.389,-4.4719,-4.5522,-4.5573,0.0,0.0,-4.6301,0.0,-4.6301,-4.6301,0.0,-4.6301,-4.6301,-4.6301,-4.6301,-4.6301,-4.7255,-4.7783,-4.7495,-4.849,-4.9137,-4.9137,-4.9212,-4.9486,-5.0033,-5.058,-5.1287,-5.2133,-5.199,-5.196,-5.189,-5.189,-5.189,-5.189,-5.189,-5.182,-5.182,-5.1516,-5.1352,-5.1282,-5.1282,-5.1282,-5.1282,-5.1282,-5.1282,-5.1236,-5.0978,-5.0837,-5.0837,-5.0837,-5.0837,-5.0837,-5.0767,-5.0767,-5.0767,-5.0767,-5.0767,-5.0767,-5.0837,-5.0837,-5.0837,-5.0767,-5.0767,-5.0767,-5.0696,-5.0696,-5.0696,-5.0696,-5.0696,-5.0696,-5.0696,-5.0696,-5.0696,-5.0696,-5.0696,-5.0696,-5.0696,-5.0696,-5.0696,-5.0696,-5.0696,-5.0696,-5.0696,-5.0696,-5.0696,-5.0696,-5.0696,-5.0696,-5.0696,-5.0696,-5.0696,-5.0696,-5.0696,-5.0696,-5.0696,-5.0696,-5.0696,-5.0767,-5.0767,-5.0767,-5.0837,-5.0767,-5.0767,-5.0767,-5.0696,-5.0696,-4.2961,-4.2986,-4.2986,-4.2986,-4.3388,-4.3915,-4.4367,-4.4995,0.0,0.0,0.0,-4.6301,-4.6301,0.0,0.0,-4.6301,0.0,0.0,0.0,0.0,0.0,0.0,0.0,0.0,0.0,0.0,0.0,0.0,0.0,-5.0453,-5.103,-5.1582,-5.1997,-5.2341,-5.2604,-5.2585,-5.2308,-5.2308,-5.2308,-5.2308,-5.2308,-5.2099,-5.182,-5.2074,-5.2005,-5.1681,-5.1681,0.0,-5.1681,-5.1681,-5.1681,-5.1681,-5.1611,-5.1611,-5.1611,-5.1611,-5.1611,-5.1541,-5.1236,-5.1095,-5.1095,-5.1095,-5.1095,-5.1165,-5.1541,-5.1611,-5.1541,-5.1236,-5.1095,-5.1025,-5.0767,-5.0696,-5.0696,-5.0696,-5.0696,-5.0696,-5.0696,-5.0696,-5.0696,-5.0696,-5.0696,-5.0696,-5.0696,-5.0696,-5.0696,-5.0696,-5.0696,-5.0696,-5.0696,-5.0696,-5.0696,-5.0696,-5.0696,-5.0696,-5.0696,-5.0696,-5.0696,-5.0696,-5.0696,-5.0696,-5.0696,-5.0696,-5.0837,-5.1095,-5.1095,-5.1306,-5.1611,-5.1306,-5.1095,-5.1095,-5.0837,-5.0696,-4.2986,-4.2986,-4.3037,-4.3338,-4.3815,-4.4392,-4.4945,0.0,0.0,0.0,0.0,-4.6301,-4.6301,0.0,0.0,0.0,0.0,0.0,0.0,0.0,0.0,0.0,0.0,0.0,0.0,0.0,0.0,0.0,0.0,-5.0996,-5.1272,-5.2076,-5.2585,-5.2654,-5.2792,-5.2792,-5.2654,-5.2654,-5.2654,-5.2654,-5.2654,-5.2585,-5.2377,-5.2377,-5.2308,-5.2099,-5.2099,-5.2099,-5.2099,-5.2099,-5.2099,-5.2099,-5.189,-5.182,-5.182,-5.182,-5.182,-5.1751,-5.1586,-5.1516,-5.1516,-5.1726,-5.1562,-5.1211,-5.1446,-5.1656,-5.1751,-5.1282,-5.1211,-5.1165,-5.0767,-5.0696,-5.0696,-5.0696,-5.0696,-5.0696,-5.0696,-5.0696,-5.0696,-5.0696,-5.0696,-5.0696,-5.0696,-5.0696,-5.0696,-5.0696,-5.0696,-5.0696,-5.0696,-5.0696,-5.0696,-5.0696,-5.0696,-5.0696,-5.0696,-5.0696,-5.0696,-5.0696,-5.0696,-5.0696,-5.0696,-5.0696,-5.0837,-5.1211,-5.1211,-5.1376,-5.182,-5.1586,-5.1516,-5.1516,-5.133,-5.126,-4.2986,-4.2986,-4.3112,-4.3664,-4.4217,-4.4769,-4.5347,-4.5924,0.0,0.0,0.0,0.0,0.0,0.0,0.0,0.0,0.0,0.0,0.0,0.0,0.0,0.0,0.0,0.0,0.0,0.0,0.0,0.0,0.0,0.0,-5.1624,-5.2452,-5.2929,-5.2929,-5.2929,-5.2929,-5.2929,-5.2929,-5.2929,-5.2929,-5.2929,-5.2929,-5.2861,-5.2654,-5.2515,-5.2515,-5.2515,-5.2515,-5.2515,-5.2515,-5.2515,-5.2515,-5.2169,-5.203,-5.203,-5.203,-5.203,-5.203,-5.196,-5.196,-5.196,-5.2238,-5.1866,-5.1492,-5.1562,-5.1796,-5.1935,-5.1586,-5.1376,-5.1236,-5.0908,-5.0767,-5.0696,-5.0696,-5.0696,-5.0696,-5.0696,-5.0696,-5.0696,-5.0696,-5.0696,-5.0696,-5.0696,-5.0696,-5.0696,-5.0696,-5.0696,-5.0696,-5.0696,-5.0696,-5.0696,-5.0696,-5.0696,-5.0696,-5.0696,-5.0696,-5.0696,-5.0696,-5.0696,-5.0696,-5.0696,-5.0696,-5.0837,-5.1211,-5.1282,-5.1516,-5.196,-5.196,-5.196,-5.196,-5.182,-5.182,-4.2986,-4.2986,-4.3112,-4.3664,-4.4217,-4.4769,-4.5347,0.0,0.0,0.0,0.0,0.0,0.0,0.0,0.0,0.0,0.0,0.0,0.0,0.0,0.0,0.0,0.0,0.0,0.0,0.0,0.0,0.0,0.0,0.0,-5.2729,-5.2879,-5.2929,-5.2929,-5.2929,-5.2929,-5.2929,-5.2929,-5.2929,-5.2929,-5.2929,-5.2929,-5.2929,-5.2861,-5.2861,-5.2861,-5.2861,-5.2861,0.0,-5.2861,-5.2861,-5.2861,-5.2792,-5.2792,-5.2792,-5.2792,-5.2792,-5.2792,-5.2446,-5.2377,-5.2308,-5.196,-5.203,-5.2377,-5.2654,-5.2792,-5.2723,-5.2377,-5.203,-5.1656,-5.1306,-5.0954,-5.0696,-5.0696,-5.0696,-5.0696,-5.0696,-5.0696,-5.0696,-5.0696,-5.0696,-5.0696,-5.0696,-5.0696,-5.0696,-5.0696,-5.0696,-5.0696,-5.0696,-5.0696,-5.0696,-5.0696,-5.0696,-5.0696,-5.0696,-5.0696,-5.0696,-5.0696,-5.0696,-5.0696,-5.0696,-5.0696,-5.0837,-5.1211,-5.1586,-5.1935,-5.2377,-5.2377,-5.2377,-5.2377,-5.196,-5.182,-4.2986,-4.2986,-4.3187,-4.4066,-4.4468,-4.4869,-4.5773,0.0,0.0,0.0,-4.6301,-4.6301,-4.6301,0.0,0.0,0.0,0.0,0.0,0.0,0.0,0.0,0.0,0.0,0.0,0.0,0.0,0.0,0.0,0.0,0.0,-5.2879,-5.2929,-5.2929,-5.2929,-5.2929,-5.2929,-5.2929,-5.2929,-5.2929,-5.2929,-5.2929,-5.2929,-5.2929,-5.2929,-5.2929,-5.2929,-5.2929,-5.2929,0.0,-5.2929,-5.2929,-5.2929,-5.2929,-5.2929,-5.2929,-5.2929,-5.2929,-5.2861,-5.2723,-5.2723,-5.2654,-5.2515,-5.2585,-5.2723,-5.2654,-5.2723,-5.2861,-5.2515,-5.2308,-5.2099,-5.1656,-5.1471,-5.133,-5.133,-5.133,-5.133,-5.133,-5.119,-5.1025,-5.1025,-5.0837,-5.0696,-5.0696,-5.0696,-5.0696,-5.0696,-5.0908,-5.1025,-5.1025,-5.119,-5.133,-5.133,-5.0978,-5.0767,-5.0954,-5.1025,-5.1095,-5.133,-5.133,-5.133,-5.133,-5.133,-5.1541,-5.1935,-5.2074,-5.2377,-5.2723,-5.2723,-5.2723,-5.2723,-5.2515,-5.2446,-4.2986,-4.3087,-4.3438,-4.4392,-4.4744,-4.5146,0.0,0.0,0.0,-4.6301,-4.6301,-4.6301,-4.6301,0.0,0.0,0.0,0.0,0.0,0.0,0.0,0.0,0.0,0.0,0.0,0.0,0.0,0.0,0.0,0.0,0.0,-5.2879,-5.2929,-5.2929,-5.2929,-5.2929,-5.2929,-5.2929,-5.2929,-5.2929,-5.2929,-5.2929,-5.2929,-5.2929,-5.2929,-5.2929,-5.2929,-5.2929,-5.2929,0.0,-5.2929,-5.2929,-5.2929,-5.2929,-5.2929,-5.2929,-5.2929,-5.2929,-5.2929,-5.2929,-5.2929,-5.2929,-5.2929,-5.2929,-5.2861,-5.2654,-5.2723,-5.2861,-5.2585,-5.2515,-5.2308,-5.189,-5.182,-5.182,-5.182,-5.182,-5.182,-5.182,-5.1586,-5.1376,-5.1376,-5.1165,-5.1049,-5.1049,-5.1049,-5.1049,-5.1049,-5.1236,-5.1376,-5.1376,-5.1586,-5.182,-5.182,-5.133,-5.1119,-5.1376,-5.1376,-5.1516,-5.182,-5.182,-5.182,-5.182,-5.182,-5.196,-5.2238,-5.2377,-5.2515,-5.2723,-5.2861,-5.2929,-5.2929,-5.2929,-5.2929,-4.2986,-4.3363,-4.3915,-4.4493,-4.5045,-4.5623,0.0,0.0,0.0,0.0,-4.6301,-4.6301,0.0,0.0,0.0,0.0,0.0,0.0,0.0,0.0,0.0,0.0,0.0,0.0,0.0,0.0,0.0,0.0,0.0,0.0,-5.2879,-5.2929,-5.2929,-5.2929,-5.2929,-5.2929,-5.2929,-5.2929,-5.2929,-5.2929,-5.2929,-5.2929,-5.2929,-5.2929,-5.2929,-5.2929,-5.2929,-5.2929,0.0,-5.2929,-5.2929,-5.2929,-5.2929,-5.2929,-5.2929,-5.2929,-5.2929,-5.2929,-5.2929,-5.2929,-5.2929,-5.2929,-5.2929,-5.2929,-5.2929,-5.2929,-5.2929,-5.2929,-5.2654,-5.2308,-5.189,-5.182,-5.182,-5.182,-5.182,-5.182,-5.182,-5.182,-5.182,-5.182,-5.182,-5.182,-5.182,-5.182,-5.182,-5.182,-5.182,-5.182,-5.182,-5.182,-5.182,-5.182,-5.182,-5.182,-5.182,-5.182,-5.182,-5.182,-5.182,-5.182,-5.182,-5.182,-5.182,-5.182,-5.2238,-5.2377,-5.2446,-5.2723,-5.2929,-5.2929,-5.2929,-5.2929,-4.2986,-4.3388,-4.394,-4.4493,-4.5045,-4.5623,-4.6175,0.0,0.0,0.0,0.0,0.0,0.0,0.0,0.0,0.0,0.0,0.0,0.0,0.0,0.0,0.0,0.0,0.0,0.0,0.0,0.0,0.0,0.0,0.0,-5.2879,-5.2929,-5.2929,-5.2929,-5.2929,-5.2929,-5.2929,-5.2929,-5.2929,-5.2929,-5.2929,-5.2929,-5.2929,-5.2929,-5.2929,-5.2929,-5.2929,-5.2929,-5.2929,-5.2929,-5.2929,-5.2929,-5.2929,-5.2929,-5.2929,-5.2929,-5.2929,-5.2929,-5.2929,-5.2929,-5.2929,-5.2929,-5.2929,-5.2929,-5.2929,-5.2929,-5.2929,-5.2929,-5.2792,-5.2723,-5.2585,-5.2585,-5.2585,-5.2585,-5.2585,-5.2585,-5.2585,-5.2377,-5.2238,-5.2238,-5.203,-5.182,-5.182,-5.182,-5.182,-5.182,-5.203,-5.2238,-5.2238,-5.2446,-5.2585,-5.2585,-5.2585,-5.2446,-5.2238,-5.2238,-5.2308,-5.2515,-5.2585,-5.2585,-5.2585,-5.2585,-5.2585,-5.2585,-5.2654,-5.2723,-5.2723,-5.2861,-5.2929,-5.2929,-5.2929,-5.2929,0.0,-4.3689,-4.4242,-4.4819,-4.5372,0.0,0.0,0.0,0.0,0.0,0.0,0.0,0.0,0.0,0.0,0.0,0.0,0.0,0.0,0.0,0.0,0.0,0.0,0.0,0.0,0.0,0.0,0.0,0.0,0.0,-5.2578,-5.2804,-5.2929,-5.2929,-5.2929,-5.2929,-5.2929,-5.2929,-5.2929,-5.2929,-5.2929,-5.2929,-5.2929,-5.2929,-5.2929,-5.2929,-5.2929,-5.2929,0.0,-5.2929,-5.2929,-5.2929,-5.2929,-5.2929,-5.2929,-5.2929,-5.2929,-5.2929,-5.2929,-5.2929,-5.2929,-5.2929,-5.2929,-5.2929,-5.2929,-5.2929,-5.2929,-5.2929,-5.2929,-5.2929,-5.2929,-5.2929,-5.2929,-5.2929,-5.2929,-5.2929,-5.2929,-5.2723,-5.2585,-5.2585,-5.2377,-5.2238,-5.2238,-5.2238,-5.2238,-5.2238,-5.2446,-5.2585,-5.2585,-5.2792,-5.2929,-5.2929,-5.2929,-5.2792,-5.2585,-5.2585,-5.2654,-5.2861,-5.2929,-5.2929,-5.2929,-5.2929,-5.2929,-5.2929,-5.2929,-5.2929,-5.2929,-5.2929,-5.2929,-5.2929,-5.2929,-5.2929,0.0,0.0,0.0,0.0,0.0,0.0,0.0,0.0,0.0,0.0,0.0,0.0,0.0,0.0,0.0,0.0,0.0,0.0,0.0,0.0,0.0,0.0,0.0,0.0,0.0,0.0,0.0,0.0,0.0,0.0,-5.2076,-5.2628,-5.2929,-5.2929,-5.2929,-5.2929,-5.2929,-5.2929,-5.2929,-5.2929,-5.2929,-5.2929,-5.2929,-5.2929,-5.2929,0.0,-5.2929,-5.2929,-5.2929,-5.2929,-5.2929,-5.2929,-5.2929,-5.2929,-5.2929,-5.2929,-5.2929,-5.2929,-5.2929,-5.2929,-5.2929,-5.2929,-5.2929,-5.2929,-5.2929,-5.2929,-5.2929,-5.2929,-5.2929,-5.2929,-5.2929,-5.2929,-5.2929,-5.2929,-5.2929,-5.2929,-5.2929,-5.2929,-5.2929,-5.2929,-5.2929,-5.2929,-5.2929,-5.2929,-5.2929,-5.2929,-5.2929,-5.2929,-5.2929,-5.2929,-5.2929,-5.2929,-5.2929,-5.2929,-5.2929,-5.2929,-5.2929,-5.2929,-5.2929,-5.2929,-5.2929,-5.2929,-5.2929,-5.2929,-5.2929,-5.2929,-5.2929,-5.2929,-5.2929,-5.2929,-5.2929,-5.2929,-4.4166,0.0,-4.4769,-4.5347,-4.5899,0.0,0.0,0.0,0.0,0.0,0.0,0.0,0.0,0.0,0.0,0.0,0.0,0.0,0.0,0.0,0.0,0.0,0.0,0.0,0.0,0.0,0.0,0.0,0.0,-5.1523,-5.2076,-5.2628,-5.2929,-5.2929,-5.2929,-5.2929,-5.2929,-5.2929,-5.2929,-5.2929,-5.2929,-5.2929,-5.2929,-5.2929,-5.2929,-5.2929,-5.2929,-5.2929,-5.2929,-5.2929,-5.2929,-5.2929,-5.2929,-5.2929,-5.2929,-5.2929,-5.2929,-5.2929,-5.2929,-5.2929,-5.2929,-5.2929,-5.2929,-5.2929,-5.2929,-5.2929,-5.2929,-5.2929,-5.2929,-5.2929,-5.2929,-5.2929,-5.2929,-5.2929,-5.2929,-5.2929,-5.2929,-5.2929,-5.2929,-5.2929,-5.2929,-5.2929,-5.2929,-5.2929,-5.2929,-5.2929,-5.2929,-5.2929,-5.2929,-5.2929,-5.2929,-5.2929,-5.2929,-5.2929,-5.2929,-5.2929,-5.2929,-5.2929,-5.2929,-5.2929,-5.2929,-5.2929,-5.2929,-5.2929,-5.2929,-5.2929,-5.2929,-5.2929,-5.2929,-5.2929,-5.2929,-5.2929,-4.4317,-4.4618,-4.4819,-4.5648,-4.61,-4.6301,0.0,0.0,0.0,0.0,0.0,0.0,0.0,0.0,0.0,0.0,0.0,0.0,0.0,0.0,0.0,0.0,0.0,0.0,0.0,0.0,0.0,0.0,0.0,-5.1122,-5.1699,-5.2251,-5.2678,-5.2929,-5.2929,-5.2929,-5.2929,-5.2929,-5.2929,-5.2929,-5.2929,-5.2929,-5.2929,-5.2929,-5.2929,-5.2929,-5.2929,-5.2929,-5.2929,-5.2929,-5.2929,-5.2929,-5.2929,-5.2929,-5.2929,-5.2929,-5.2929,-5.2929,-5.2929,-5.2929,-5.2929,-5.2929,-5.2929,-5.2929,-5.2929,-5.2929,-5.2929,-5.2929,-5.2929,-5.2929,-5.2929,-5.2929,-5.2929,-5.2929,-5.2929,-5.2929,-5.2929,-5.2929,-5.2929,-5.2929,-5.2929,-5.2929,-5.2929,-5.2929,-5.2929,-5.2929,-5.2929,-5.2929,-5.2929,-5.2929,-5.2929,-5.2929,-5.2929,-5.2929,-5.2929,-5.2929,-5.2929,-5.2929,-5.2929,-5.2929,-5.2929,-5.2929,-5.2929,-5.2929,-5.2929,-5.2929,-5.2929,-5.2929,-5.2929,-5.2929,-5.2929,-5.2929,-4.4317,-4.4618,-4.4895,-4.6024,-4.6301,-4.6301,0.0,0.0,0.0,0.0,0.0,0.0,0.0,0.0,0.0,0.0,0.0,0.0,0.0,0.0,0.0,0.0,0.0,0.0,0.0,0.0,0.0,0.0,0.0,-5.0619,-5.1122,-5.1674,-5.2201,-5.2653,-5.2754,-5.2804,-5.2804,-5.2879,-5.2929,-5.2929,-5.2929,-5.2929,-5.2929,-5.2929,-5.2929,-5.2929,-5.2929,-5.2929,-5.2929,-5.2929,-5.2929,-5.2929,-5.2929,-5.2929,-5.2929,-5.2929,-5.2929,-5.2929,-5.2929,-5.2929,-5.2929,-5.2929,-5.2929,-5.2929,-5.2929,-5.2929,-5.2929,-5.2929,-5.2929,-5.2929,-5.2929,-5.2929,-5.2929,-5.2929,-5.2929,-5.2929,-5.2929,-5.2929,-5.2929,-5.2929,-5.2929,-5.2929,-5.2929,-5.2929,-5.2929,-5.2929,-5.2929,-5.2929,-5.2929,-5.2929,-5.2929,-5.2929,-5.2929,-5.2929,-5.2929,-5.2929,-5.2929,-5.2929,-5.2929,-5.2929,-5.2929,-5.2929,-5.2929,-5.2929,-5.2929,-5.2929,-5.2929,-5.2929,-5.2929,-5.2929,-5.2929,-5.2929,-4.4317,-4.4618,-4.4895,-4.6024,-4.6301,-4.6301,0.0,0.0,0.0,0.0,0.0,0.0,0.0,0.0,0.0,0.0,0.0,0.0,0.0,0.0,0.0,0.0,0.0,0.0,0.0,0.0,0.0,0.0,0.0,-5.0444,-5.0544,-5.1096,-5.1448,-5.1523,-5.2,-5.2226,-5.2226,-5.2703,-5.2929,-5.2929,-5.2929,-5.2929,-5.2929,-5.2929,-5.2929,-5.2929,-5.2929,-5.2929,-5.2929,-5.2929,-5.2929,-5.2929,-5.2929,-5.2929,-5.2929,-5.2929,-5.2929,-5.2929,-5.2929,-5.2929,-5.2929,-5.2929,-5.2929,-5.2929,-5.2929,-5.2929,-5.2929,-5.2929,-5.2929,-5.2929,-5.2929,-5.2929,-5.2929,-5.2929,-5.2929,-5.2929,-5.2929,-5.2929,-5.2929,-5.2929,-5.2929,-5.2929,-5.2929,-5.2929,-5.2929,-5.2929,-5.2929,-5.2929,-5.2929,-5.2929,-5.2929,-5.2929,-5.2929,-5.2929,-5.2929,-5.2929,-5.2929,-5.2929,-5.2929,-5.2929,-5.2929,-5.2929,-5.2929,-5.2929,-5.2929,-5.2929,-5.2929,-5.2929,-5.2929,-5.2929,-5.2929,-5.2929,-4.4392,-4.4844,-4.5296,-4.61,-4.6301,-4.6301,-4.6301,0.0,0.0,0.0,0.0,0.0,0.0,0.0,0.0,0.0,0.0,0.0,0.0,0.0,0.0,0.0,0.0,0.0,0.0,0.0,0.0,0.0,0.0,0.0,-5.0393,-5.067,-5.0971,-5.1272,-5.1523,-5.1649,-5.1649,-5.1925,-5.2327,-5.2929,-5.2929,-5.2929,-5.2929,-5.2929,-5.2929,-5.2929,-5.2929,-5.2929,-5.2929,-5.2929,-5.2929,-5.2929,-5.2929,-5.2929,-5.2929,-5.2929,-5.2929,-5.2929,-5.2929,-5.2929,-5.2929,-5.2929,-5.2929,-5.2929,-5.2929,-5.2929,-5.2929,-5.2929,-5.2929,-5.2929,-5.2929,-5.2929,-5.2929,-5.2929,-5.2929,-5.2929,-5.2929,-5.2929,-5.2929,-5.2929,-5.2929,-5.2929,-5.2929,-5.2929,-5.2929,-5.2929,-5.2929,-5.2929,-5.2929,-5.2929,-5.2929,-5.2929,-5.2929,-5.2929,-5.2929,-5.2929,-5.2929,-5.2929,-5.2929,-5.2929,-5.2929,-5.2929,-5.2929,-5.2929,-5.2929,-5.2929,-5.2929,-5.2929,-5.2929,-5.2929,-5.2929,-5.2929,-4.4468,-4.5045,-4.5623,-4.6175,0.0,-4.6301,-4.6301,0.0,0.0,0.0,0.0,0.0,0.0,0.0,0.0,0.0,0.0,0.0,0.0,0.0,0.0,0.0,0.0,0.0,0.0,0.0,0.0,0.0,0.0,0.0,-5.0193,-5.0218,-5.0419,-5.087,-5.0996,-5.1071,-5.1071,-5.1222,-5.1699,-5.2553,-5.2678,-5.2729,-5.2729,-5.2879,-5.2929,-5.2929,-5.2929,-5.2929,-5.2929,-5.2929,-5.2929,-5.2929,-5.2929,-5.2929,-5.2929,-5.2929,-5.2929,-5.2929,-5.2929,-5.2929,-5.2929,-5.2929,-5.2929,-5.2929,-5.2929,-5.2929,-5.2929,-5.2929,-5.2929,-5.2929,-5.2929,-5.2929,-5.2929,-5.2929,-5.2929,-5.2929,-5.2929,-5.2929,-5.2929,-5.2929,-5.2929,-5.2929,-5.2929,-5.2929,-5.2929,-5.2929,-5.2929,-5.2929,-5.2929,-5.2929,-5.2929,-5.2929,-5.2929,-5.2929,-5.2929,-5.2929,-5.2929,-5.2929,-5.2929,-5.2929,-5.2929,-5.2929,-5.2929,-5.2929,-5.2929,-5.2929,-5.2929,-5.2929,-5.2929,-5.2929,-5.2929,-5.2929,-4.4468,-4.5045,-4.5623,-4.6175,-4.6301,0.0,-4.6301,0.0,0.0,0.0,0.0,0.0,0.0,0.0,0.0,0.0,0.0,0.0,0.0,0.0,0.0,0.0,0.0,0.0,0.0,0.0,0.0,0.0,0.0,0.0,-4.9665,-4.9665,-4.9665,-4.9715,-5.0218,-5.0469,-5.0469,-5.1021,-5.1322,-5.1398,-5.1925,-5.2176,-5.2176,-5.2703,-5.2929,-5.2929,-5.2929,-5.2929,-5.2929,-5.2929,-5.2929,-5.2929,-5.2929,-5.2929,-5.2929,-5.2929,-5.2929,-5.2929,-5.2929,-5.2929,-5.2929,-5.2929,-5.2929,-5.2929,-5.2929,-5.2929,-5.2929,-5.2929,-5.2929,-5.2929,-5.2929,-5.2929,-5.2929,-5.2929,-5.2929,-5.2929,-5.2929,-5.2929,-5.2929,-5.2929,-5.2929,-5.2929,-5.2929,-5.2929,-5.2929,-5.2929,-5.2929,-5.2929,-5.2929,-5.2929,-5.2929,-5.2929,-5.2929,-5.2929,-5.2929,-5.2929,-5.2929,-5.2929,-5.2929,-5.2929,-5.2929,-5.2929,-5.2929,-5.2929,-5.2929,-5.2929,-5.2929,-5.2929,-5.2929,-5.2929,-5.2929,-5.2929,-4.4995,-4.5573,-4.605,-4.625,0.0,0.0,0.0,0.0,0.0,0.0,0.0,0.0,0.0,0.0,0.0,0.0,0.0,0.0,0.0,0.0,0.0,0.0,0.0,0.0,0.0,0.0,0.0,0.0,0.0,0.0,-4.959,-4.959,-4.959,-4.959,-4.9791,-4.9916,-4.9916,-5.0117,-5.0243,-5.0243,-5.1147,-5.1599,-5.1599,-5.2176,-5.2427,-5.2427,-5.2779,-5.2929,-5.2929,-5.2929,-5.2929,-5.2929,-5.2929,-5.2929,-5.2929,-5.2929,-5.2929,-5.2929,-5.2929,-5.2929,-5.2929,-5.2929,-5.2929,-5.2929,-5.2929,-5.2929,-5.2929,-5.2929,-5.2929,-5.2929,-5.2929,-5.2929,-5.2929,-5.2929,-5.2929,-5.2929,-5.2929,-5.2929,-5.2929,-5.2929,-5.2929,-5.2929,-5.2929,-5.2929,-5.2929,-5.2929,-5.2929,-5.2929,-5.2929,-5.2929,-5.2929,-5.2929,-5.2929,-5.2929,-5.2929,-5.2929,-5.2929,-5.2929,-5.2929,-5.2929,-5.2929,-5.2929,-5.2929,-5.2929,-5.2929,-5.2929,-5.2929,-5.2929,-5.2929,-5.2929,-5.2929,-5.2929,-4.5439,-4.5899,-4.6301,0.0,0.0,0.0,0.0,0.0,0.0,0.0,0.0,0.0,0.0,0.0,0.0,0.0,0.0,0.0,0.0,0.0,0.0,0.0,0.0,0.0,0.0,0.0,0.0,0.0,0.0,0.0,-4.959,-4.959,-4.959,-4.959,-4.959,-4.959,-4.959,-4.959,-4.959,-4.9615,-5.0368,-5.0845,-5.1021,-5.1599,-5.185,-5.1875,-5.2251,-5.2503,-5.2678,-5.2678,-5.2779,-5.2929,-5.2929,-5.2929,-5.2929,-5.2929,-5.2929,-5.2929,-5.2929,-5.2929,-5.2929,-5.2929,-5.2929,-5.2929,-5.2929,-5.2929,-5.2929,-5.2929,-5.2929,-5.2929,-5.2929,-5.2929,-5.2929,-5.2929,-5.2929,-5.2929,-5.2929,-5.2929,-5.2929,-5.2929,-5.2929,-5.2929,-5.2929,-5.2929,-5.2929,-5.2929,-5.2929,-5.2929,-5.2929,-5.2929,-5.2929,-5.2929,-5.2929,-5.2929,-5.2929,-5.2929,-5.2929,-5.2929,-5.2929,-5.2929,-5.2929,-5.2929,-5.2929,-5.2929,-5.2929,-5.2929,-5.2929,-5.2929,-5.2929,-5.2929,-5.2929,-5.2929,-4.5674,-4.5899,0.0,0.0,0.0,0.0,0.0,0.0,0.0,0.0,0.0,0.0,0.0,0.0,0.0,0.0,0.0,0.0,0.0,0.0,0.0,0.0,0.0,0.0,0.0,0.0,0.0,0.0,0.0,0.0,-4.959,-4.959,-4.959,-4.959,-4.959,-4.959,-4.959,-4.959,-4.959,-4.959,-4.959,-4.9891,-5.0419,-5.0996,-5.1272,-5.1272,-5.1272,-5.1599,-5.2101,-5.2101,-5.2427,-5.2929,-5.2929,-5.2929,-5.2929,-5.2929,-5.2929,-5.2929,-5.2929,-5.2929,-5.2929,-5.2929,-5.2929,-5.2929,-5.2929,-5.2929,-5.2929,-5.2929,-5.2929,-5.2929,-5.2929,-5.2929,-5.2929,-5.2929,-5.2929,-5.2929,-5.2929,-5.2929,-5.2929,-5.2929,-5.2929,-5.2929,-5.2929,-5.2929,-5.2929,-5.2929,-5.2929,-5.2929,-5.2929,-5.2929,-5.2929,-5.2929,-5.2929,-5.2929,-5.2929,-5.2929,-5.2929,-5.2929,-5.2929,-5.2929,-5.2929,-5.2929,-5.2929,-5.2929,-5.2929,-5.2929,-5.2929,-5.2929,-5.2929,-5.2929,-5.2929,-5.2929,-4.6096,0.0,0.0,0.0,0.0,0.0,0.0,0.0,0.0,0.0,0.0,0.0,0.0,0.0,0.0,0.0,0.0,0.0,0.0,0.0,0.0,0.0,0.0,0.0,0.0,0.0,0.0,0.0,0.0,-4.959,-4.959,-4.959,-4.959,-4.959,-4.959,-4.959,-4.959,-4.959,-4.959,-4.959,-4.959,-4.9665,-4.9866,-5.0419,-5.067,-5.0695,-5.1096,-5.1373,-5.1523,-5.1523,-5.185,-5.2352,-5.2352,-5.2578,-5.2929,-5.2929,-5.2929,-5.2929,-5.2929,-5.2929,-5.2929,-5.2929,-5.2929,-5.2929,-5.2929,-5.2929,-5.2929,-5.2929,-5.2929,-5.2929,-5.2929,-5.2929,-5.2929,-5.2929,-5.2929,-5.2929,-5.2929,-5.2929,-5.2929,-5.2929,-5.2929,-5.2929,-5.2929,-5.2929,-5.2929,-5.2929,-5.2929,-5.2929,-5.2929,-5.2929,-5.2929,-5.2929,-5.2929,-5.2929,-5.2929,-5.2929,-5.2929,-5.2929,-5.2929,-5.2929,-5.2929,-5.2929,-5.2929,-5.2929,-5.2929,-5.2929,-5.2929,-5.2929,-5.2929,-5.2929,-5.2929,-5.2929,0.0,0.0,0.0,0.0,0.0,0.0,0.0,0.0,0.0,0.0,0.0,0.0,0.0,0.0,0.0,0.0,0.0,0.0,0.0,0.0,0.0,0.0,0.0,0.0,0.0,0.0,0.0,0.0,-4.959,-4.959,-4.959,-4.959,-4.959,-4.959,-4.959,-4.959,-4.959,-4.959,-4.959,-4.959,-4.959,-4.959,-4.9615,-4.9941,-5.0092,-5.0117,-5.0695,-5.0946,-5.0946,-5.1197,-5.1473,-5.1774,-5.1774,-5.1975,-5.2302,-5.2528,-5.2603,-5.2628,-5.2854,-5.2929,-5.2929,-5.2929,-5.2929,-5.2929,-5.2929,-5.2929,-5.2929,-5.2929,-5.2929,-5.2929,-5.2929,-5.2929,-5.2929,-5.2929,-5.2929,-5.2929,-5.2929,-5.2929,-5.2929,-5.2929,-5.2929,-5.2929,-5.2929,-5.2929,-5.2929,-5.2929,-5.2929,-5.2929,-5.2929,-5.2929,-5.2929,-5.2929,-5.2929,-5.2929,-5.2929,-5.2929,-5.2929,-5.2929,-5.2929,-5.2929,-5.2929,-5.2929,-5.2929,-5.2929,-5.2929,-5.2929,-5.2929,-5.2929,-5.2929,-5.2929,-5.2929,-5.2929,0.0,0.0,0.0,0.0,0.0,0.0,0.0,0.0,0.0,0.0,0.0,0.0,0.0,0.0,0.0,0.0,0.0,0.0,0.0,0.0,0.0,0.0,0.0,0.0,0.0,0.0,0.0,-4.959,-4.959,-4.959,-4.959,-4.959,-4.959,-4.959,-4.959,-4.959,-4.959,-4.959,-4.959,-4.959,-4.959,-4.959,-4.959,-4.959,-4.959,-4.9615,-5.0117,-5.0343,-5.0393,-5.0921,-5.1147,-5.1197,-5.1197,-5.1247,-5.1348,-5.185,-5.2026,-5.2101,-5.2603,-5.2779,-5.2779,-5.2779,-5.2779,-5.2779,-5.2779,-5.2804,-5.2854,-5.2854,-5.2879,-5.2929,-5.2929,-5.2929,-5.2929,-5.2929,-5.2929,-5.2929,-5.2929,-5.2929,-5.2929,-5.2929,-5.2929,-5.2929,-5.2929,-5.2929,-5.2929,-5.2929,-5.2929,-5.2929,-5.2929,-5.2929,-5.2929,-5.2929,-5.2929,-5.2929,-5.2929,-5.2929,-5.2929,-5.2929,-5.2929,-5.2929,-5.2929,-5.2929,-5.2929,-5.2929,-5.2929,-5.2929,-5.2929,-5.2929,-5.2929,-5.2929,-5.2929,-5.2929,0.0,0.0,0.0,0.0,0.0,0.0,0.0,0.0,0.0,0.0,0.0,0.0,0.0,0.0,0.0,0.0,0.0,0.0,0.0,0.0,0.0,0.0,0.0,0.0,0.0,0.0,0.0,-4.959,-4.959,-4.959,-4.959,-4.959,-4.959,-4.959,-4.959,-4.959,-4.959,-4.959,-4.959,-4.959,-4.959,-4.959,-4.959,-4.959,-4.959,-4.9615,-4.9715,-4.9766,-4.9791,-4.9916,-5.0218,-5.0594,-5.0594,-5.087,-5.1297,-5.1423,-5.1448,-5.1473,-5.1599,-5.1624,-5.1624,-5.1624,-5.1624,-5.1624,-5.1624,-5.195,-5.2277,-5.2277,-5.2603,-5.2929,-5.2929,-5.2929,-5.2929,-5.2929,-5.2929,-5.2929,-5.2929,-5.2929,-5.2929,-5.2929,-5.2929,-5.2929,-5.2929,-5.2929,-5.2929,-5.2929,-5.2929,-5.2929,-5.2929,-5.2929,-5.2929,-5.2929,-5.2929,-5.2929,-5.2929,-5.2929,-5.2929,-5.2929,-5.2929,-5.2929,-5.2929,-5.2929,-5.2929,-5.2929,-5.2929,-5.2929,-5.2929,-5.2929,-5.2929,-5.2929,-5.2929,-5.2929,0.0,0.0,0.0,0.0,0.0,0.0,0.0,0.0,0.0,0.0,0.0,0.0,0.0,0.0,0.0,0.0,0.0,0.0,0.0,0.0,0.0,0.0,0.0,0.0,0.0,0.0,-4.959,-4.959,-4.959,-4.959,-4.959,-4.959,-4.959,-4.959,-4.959,-4.959,-4.959,-4.959,-4.959,-4.959,-4.959,-4.959,-4.959,-4.959,-4.959,-4.959,-4.959,-4.959,-4.959,-4.959,-4.9766,-5.0017,-5.0017,-5.0218,-5.0494,-5.077,-5.087,-5.0921,-5.1197,-5.1272,-5.1272,-5.1272,-5.1272,-5.1272,-5.1272,-5.1473,-5.1699,-5.1699,-5.2101,-5.2528,-5.2528,-5.2729,-5.2929,-5.2929,-5.2929,-5.2929,-5.2929,-5.2929,-5.2929,-5.2929,-5.2929,-5.2929,-5.2929,-5.2929,-5.2929,-5.2929,-5.2929,-5.2929,-5.2929,-5.2929,-5.2929,-5.2929,-5.2929,-5.2929,-5.2929,-5.2929,-5.2929,-5.2929,-5.2929,-5.2929,-5.2929,-5.2929,-5.2929,-5.2929,-5.2929,-5.2929,-5.2929,-5.2929,-5.2929,-5.2929,-5.2929,-5.2929,0.0,0.0,0.0,0.0,0.0,0.0,0.0,0.0,0.0,0.0,0.0,0.0,0.0,0.0,0.0,0.0,0.0,0.0,0.0,0.0,0.0,0.0,0.0,0.0,0.0,0.0,-4.959,-4.959,-4.959,-4.959,-4.959,-4.959,-4.959,-4.959,-4.959,-4.959,-4.959,-4.959,-4.959,-4.959,-4.959,-4.959,-4.959,-4.959,-4.959,-4.959,-4.959,-4.959,-4.959,-4.959,-4.959,-4.959,-4.959,-4.959,-4.964,-5.0117,-5.0268,-5.0343,-5.082,-5.0996,-5.0996,-5.0996,-5.0996,-5.0996,-5.0996,-5.1046,-5.1122,-5.1122,-5.1523,-5.1975,-5.1975,-5.2302,-5.2628,-5.2628,-5.2703,-5.2804,-5.2904,-5.2929,-5.2929,-5.2929,-5.2929,-5.2929,-5.2929,-5.2929,-5.2929,-5.2929,-5.2929,-5.2929,-5.2929,-5.2929,-5.2929,-5.2929,-5.2929,-5.2929,-5.2929,-5.2929,-5.2929,-5.2929,-5.2929,-5.2929,-5.2929,-5.2929,-5.2929,-5.2929,-5.2929,-5.2929,-5.2929,-5.2929,-5.2929,-5.2929,-5.2929,-5.2929,0.0,0.0,0.0,0.0,0.0,0.0,0.0,0.0,0.0,0.0,0.0,0.0,0.0,0.0,0.0,0.0,0.0,0.0,0.0,0.0,0.0,0.0,0.0,0.0,0.0,0.0,-4.959,-4.959,-4.959,-4.959,-4.959,-4.959,-4.959,-4.959,-4.959,-4.959,-4.959,-4.959,-4.959,-4.959,-4.959,-4.959,-4.959,-4.959,-4.959,-4.959,-4.959,-4.959,-4.959,-4.959,-4.959,-4.959,-4.959,-4.959,-4.9615,-4.9665,-4.9715,-4.9715,-4.9791,-4.9816,-4.9816,-4.9816,-4.9816,-4.9816,-4.9816,-5.0142,-5.0519,-5.0519,-5.0946,-5.1398,-5.1398,-5.1448,-5.1498,-5.1498,-5.1875,-5.2352,-5.2829,-5.2929,-5.2929,-5.2929,-5.2929,-5.2929,-5.2929,-5.2929,-5.2929,-5.2929,-5.2929,-5.2929,-5.2929,-5.2929,-5.2929,-5.2929,-5.2929,-5.2929,-5.2929,-5.2929,-5.2929,-5.2929,-5.2929,-5.2929,-5.2929,-5.2929,-5.2929,-5.2929,-5.2929,-5.2929,-5.2929,-5.2929,-5.2929,-5.2929,-5.2929,-5.2929,0.0,0.0,0.0,0.0,0.0,0.0,0.0,0.0,0.0,0.0,0.0,0.0,0.0,0.0,0.0,0.0,0.0,0.0,0.0,0.0,0.0,0.0,0.0,0.0,0.0,0.0,-4.9264,-4.9565,-4.959,-4.959,-4.959,-4.959,-4.959,-4.959,-4.959,-4.959,-4.959,-4.959,-4.959,-4.959,-4.959,-4.959,-4.959,-4.959,-4.959,-4.959,-4.959,-4.959,-4.959,-4.959,-4.959,-4.959,-4.959,-4.959,-4.959,-4.959,-4.959,-4.959,-4.959,-4.959,-4.959,-4.959,-4.959,-4.959,-4.959,-4.9766,-4.9967,-4.9967,-5.0368,-5.0795,-5.0795,-5.1046,-5.1272,-5.1272,-5.1473,-5.1699,-5.195,-5.2503,-5.2929,-5.2929,-5.2929,-5.2929,-5.2929,-5.2929,-5.2929,-5.2929,-5.2929,-5.2929,-5.2929,-5.2929,-5.2929,-5.2929,-5.2929,-5.2929,-5.2929,-5.2929,-5.2929,-5.2929,-5.2929,-5.2929,-5.2929,-5.2929,-5.2929,-5.2929,-5.2929,-5.2929,-5.2929,-5.2929,-5.2929,-5.2929,-5.2929,-5.2929,0.0,0.0,0.0,0.0,0.0,0.0,0.0,0.0,0.0,0.0,0.0,0.0,0.0,0.0,0.0,0.0,0.0,0.0,0.0,0.0,0.0,0.0,0.0,0.0,0.0,0.0,-4.8937,-4.9364,-4.9515,-4.959,-4.959,-4.959,-4.959,-4.959,-4.959,-4.959,-4.959,-4.959,-4.959,-4.959,-4.959,-4.959,-4.959,-4.959,-4.959,-4.959,-4.959,-4.959,-4.959,-4.959,-4.959,-4.959,-4.959,-4.959,-4.959,-4.959,-4.959,-4.959,-4.959,-4.959,-4.959,-4.959,-4.959,-4.959,-4.959,-4.959,-4.959,-4.959,-4.9891,-5.0218,-5.0218,-5.0519,-5.0845,-5.0845,-5.0946,-5.1096,-5.1247,-5.1925,-5.2553,-5.2678,-5.2729,-5.2754,-5.2904,-5.2929,-5.2929,-5.2929,-5.2929,-5.2929,-5.2929,-5.2929,-5.2929,-5.2929,-5.2929,-5.2929,-5.2929,-5.2929,-5.2929,-5.2929,-5.2929,-5.2929,-5.2929,-5.2929,-5.2929,-5.2929,-5.2929,-5.2929,-5.2929,-5.2929,-5.2929,-5.2929,-5.2929,-5.2929,0.0,0.0,0.0,0.0,0.0,0.0,0.0,0.0,0.0,0.0,0.0,0.0,0.0,0.0,0.0,0.0,0.0,0.0,0.0,0.0,0.0,0.0,0.0,0.0,0.0,0.0,-4.8786,-4.8812,-4.9289,-4.959,-4.959,-4.959,-4.959,-4.959,-4.959,-4.959,-4.959,-4.959,-4.959,-4.959,-4.959,-4.959,-4.959,-4.959,-4.959,-4.959,-4.959,-4.959,-4.959,-4.959,-4.959,-4.959,-4.959,-4.959,-4.959,-4.959,-4.959,-4.959,-4.959,-4.959,-4.959,-4.959,-4.959,-4.959,-4.959,-4.959,-4.959,-4.959,-4.9615,-4.964,-4.964,-4.9665,-4.969,-4.969,-5.0092,-5.0619,-5.1172,-5.1322,-5.1523,-5.2051,-5.2151,-5.2302,-5.2829,-5.2929,-5.2929,-5.2929,-5.2929,-5.2929,-5.2929,-5.2929,-5.2929,-5.2929,-5.2929,-5.2929,-5.2929,-5.2929,-5.2929,-5.2929,-5.2929,-5.2929,-5.2929,-5.2929,-5.2929,-5.2929,-5.2929,-5.2929,-5.2929,-5.2929,-5.2929,-5.2929,-5.2929,-5.2929,0.0,0.0,0.0,0.0,0.0,0.0,0.0,0.0,0.0,0.0,0.0,0.0,0.0,0.0,0.0,0.0,0.0,0.0,0.0,0.0,0.0,0.0,0.0,0.0,0.0,0.0,-4.8008,-4.8711,-4.8962,-4.9213,-4.9565,-4.959,-4.959,-4.959,-4.959,-4.959,-4.959,-4.959,-4.959,-4.959,-4.959,-4.959,-4.959,-4.959,-4.959,-4.959,-4.959,-4.959,-4.959,-4.959,-4.959,-4.959,-4.959,-4.959,-4.959,-4.959,-4.959,-4.959,-4.959,-4.959,-4.959,-4.959,-4.959,-4.959,-4.959,-4.959,-4.959,-4.959,-4.959,-4.959,-4.959,-4.959,-4.959,-4.959,-4.9741,-4.9941,-5.0142,-5.077,-5.1348,-5.1548,-5.1574,-5.1749,-5.2302,-5.2402,-5.2528,-5.2879,-5.2929,-5.2929,-5.2929,-5.2929,-5.2929,-5.2929,-5.2929,-5.2929,-5.2929,-5.2929,-5.2929,-5.2929,-5.2929,-5.2929,-5.2929,-5.2929,-5.2929,-5.2929,-5.2929,-5.2929,-5.2929,-5.2929,-5.2929,-5.2929,-5.2929,-5.2929,0.0,0.0,0.0,0.0,0.0,0.0,0.0,0.0,0.0,0.0,0.0,0.0,0.0,0.0,0.0,0.0,0.0,0.0,0.0,0.0,0.0,0.0,0.0,0.0,0.0,0.0,-4.7431,-4.8159,-4.8385,0.0,-4.9289,-4.9314,-4.9414,-4.959,-4.959,-4.959,-4.959,-4.959,-4.959,-4.959,-4.959,-4.959,-4.959,-4.959,-4.959,-4.959,-4.959,-4.959,-4.959,-4.959,-4.959,-4.959,-4.959,-4.959,-4.959,-4.959,-4.959,-4.959,-4.959,-4.959,-4.959,-4.959,-4.959,-4.959,-4.959,-4.959,-4.959,-4.959,-4.959,-4.959,-4.959,-4.959,-4.959,-4.959,-4.959,-4.959,-4.959,-5.0193,-5.077,-5.0946,-5.0996,-5.1172,-5.1724,-5.1825,-5.2026,-5.2578,-5.2653,-5.2729,-5.2904,-5.2929,-5.2929,-5.2929,-5.2929,-5.2929,-5.2929,-5.2929,-5.2929,-5.2929,-5.2929,-5.2929,-5.2929,-5.2929,-5.2929,-5.2929,-5.2929,-5.2929,-5.2929,-5.2929,-5.2929,-5.2929,-5.2929,-5.2929,0.0,0.0,0.0,0.0,0.0,0.0,0.0,0.0,0.0,0.0,0.0,0.0,0.0,0.0,0.0,0.0,0.0,0.0,0.0,0.0,0.0,0.0,0.0,0.0,0.0,0.0,-4.7043,-4.7068,-4.7606,-4.8134,-4.8711,-4.8761,-4.9012,-4.9565,-4.959,-4.959,-4.959,-4.959,-4.959,-4.959,-4.959,-4.959,-4.959,-4.959,-4.959,-4.959,-4.959,-4.959,-4.959,-4.959,-4.959,-4.959,-4.959,-4.959,-4.959,-4.959,-4.959,-4.959,-4.959,-4.959,-4.959,-4.959,-4.959,-4.959,-4.959,-4.959,-4.959,-4.959,-4.959,-4.959,-4.959,-4.959,-4.959,-4.959,-4.959,-4.959,-4.959,-4.959,-4.9741,-5.0293,-5.0393,-5.0569,-5.1147,-5.1247,-5.1448,-5.2,-5.2076,-5.2277,-5.2829,-5.2904,-5.2904,-5.2929,-5.2929,-5.2929,-5.2929,-5.2929,-5.2929,-5.2929,-5.2929,-5.2929,-5.2929,-5.2929,-5.2929,-5.2929,-5.2929,-5.2929,-5.2929,-5.2929,-5.2929,-5.2929,-5.2929,-5.2929,-5.35,0.0,0.0,0.0,0.0,0.0,0.0,0.0,0.0,0.0,0.0,0.0,0.0,0.0,0.0,0.0,0.0,0.0,0.0,0.0,0.0,0.0,0.0,0.0,0.0,0.0,-4.6702,0.0,-4.7255,-4.7581,-4.8109,-4.8535,-4.8837,-4.8987,-4.9389,-4.959,-4.959,-4.959,-4.959,-4.959,-4.959,-4.959,-4.959,-4.959,-4.959,-4.959,-4.959,-4.959,-4.959,-4.959,-4.959,-4.959,-4.959,-4.959,-4.959,-4.959,-4.959,-4.959,-4.959,-4.959,-4.959,-4.959,-4.959,-4.959,-4.959,-4.959,-4.959,-4.959,-4.959,-4.959,-4.959,-4.959,-4.959,-4.959,-4.959,-4.959,-4.959,-4.959,-4.964,-4.9791,-4.9816,-4.9992,-5.0569,-5.067,-5.0845,-5.1423,-5.1498,-5.1699,-5.2251,-5.2327,-5.2477,-5.2879,-5.2929,-5.2929,-5.2929,-5.2929,-5.2929,-5.2929,-5.2929,-5.2929,-5.2929,-5.2929,-5.2929,-5.2929,-5.2929,-5.2929,-5.2929,-5.2929,-5.2929,-5.2929,-5.2929,-5.2929,-5.35,-5.35,-5.35,0.0,0.0,0.0,-5.1974,-5.1674,0.0,0.0,0.0,0.0,0.0,0.0,0.0,0.0,0.0,0.0,0.0,0.0,0.0,0.0,0.0,0.0,0.0,-4.6301,-4.6451,-4.6753,-4.6803,-4.7029,-4.7556,-4.8109,-4.841,-4.841,-4.8962,-4.9264,-4.9264,-4.949,-4.959,-4.959,-4.959,-4.959,-4.959,-4.959,-4.959,-4.959,-4.959,-4.959,-4.959,-4.959,-4.959,-4.959,-4.959,-4.959,-4.959,-4.959,-4.959,-4.959,-4.959,-4.959,-4.959,-4.959,-4.959,-4.959,-4.959,-4.959,-4.959,-4.959,-4.959,-4.959,-4.959,-4.959,-4.959,-4.959,-4.959,-4.959,-4.959,-4.959,-4.959,-4.959,-4.959,-4.969,-5.0017,-5.0067,-5.0268,-5.0845,-5.0921,-5.1122,-5.1699,-5.1975,-5.2226,-5.2553,-5.2779,-5.2929,-5.2929,-5.2929,-5.2929,-5.2929,-5.2929,-5.2929,-5.2929,-5.2929,-5.2929,-5.2929,-5.2929,-5.2929,-5.2929,-5.2929,-5.2929,-5.2929,-5.2929,-5.2929,-5.35,-5.35,-5.35,-5.35,-5.35,0.0,-5.2136,-5.192,-5.1593,0.0,0.0,0.0,0.0,0.0,0.0,0.0,0.0,0.0,0.0,0.0,0.0,0.0,0.0,0.0,-4.6301,-4.6301,-4.6301,-4.6301,-4.6301,-4.6527,-4.7029,-4.7531,-4.7832,-4.7832,-4.8385,-4.8711,-4.8761,-4.9264,-4.954,-4.959,-4.959,-4.9654,-4.9847,-4.9847,-4.9886,-5.0014,-5.0014,-5.0014,-5.0014,-4.9886,-4.9719,-4.959,-4.959,-4.959,-4.959,-4.959,-4.959,-4.959,-4.959,-4.959,-4.959,-4.9783,-4.9719,-4.9654,-4.9783,-4.9719,-4.959,-4.959,-4.959,-4.959,-4.959,-4.959,-4.959,-4.959,-4.959,-4.959,-4.959,-4.959,-4.959,-4.959,-4.959,-4.959,-4.959,-4.959,-4.9766,-5.0243,-5.0318,-5.0544,-5.1096,-5.1624,-5.195,-5.2,-5.2503,-5.2829,-5.2829,-5.2904,-5.2929,-5.2929,-5.2929,-5.2929,-5.2929,-5.2929,-5.2929,-5.2929,-5.2929,-5.2929,-5.2929,-5.2929,-5.2929,-5.2929,-5.2929,-5.2929,-5.35,-5.35,-5.35,-5.35,-5.35,0.0,-5.3237,-5.3184,-5.2837,0.0,0.0,0.0,0.0,0.0,0.0,0.0,0.0,0.0,0.0,0.0,0.0,0.0,0.0,0.0,-4.6301,-4.6301,-4.6301,-4.6301,-4.6301,-4.6351,-4.6476,-4.6979,-4.728,-4.728,-4.7807,-4.8309,-4.8825,-4.8887,-4.9163,-4.959,-4.959,-5.0142,-5.1142,-5.1142,-5.1705,-5.278,-5.278,-5.278,-5.2658,-5.158,-5.0563,-4.959,-4.959,-4.959,-4.959,-4.959,-4.959,-4.959,-4.959,-4.959,-4.9783,-5.079,-5.0436,-4.9783,-5.0853,-5.0436,-4.959,-4.959,-4.959,-4.959,-4.959,-4.959,-4.959,-4.959,-4.959,-4.959,-4.959,-4.959,-4.959,-4.959,-4.959,-4.959,-4.959,-4.959,-4.964,-4.9741,-4.9766,-4.9967,-5.0519,-5.067,-5.0921,-5.1398,-5.195,-5.2277,-5.2277,-5.2678,-5.2929,-5.2929,-5.2929,-5.2929,-5.2929,-5.2929,-5.2929,-5.2929,-5.2929,-5.2929,-5.2929,-5.2929,-5.2929,-5.2929,-5.2929,-5.2929,-5.3553,-5.35,-5.35,-5.35,-5.35,0.0,0.0,-5.35,-5.3343,0.0,0.0,0.0,0.0,0.0,0.0,0.0,0.0,0.0,0.0,0.0,0.0,0.0,0.0,0.0,-4.812,-4.7534,-4.7205,-4.7205,-4.7769,-4.7828,-4.7265,-4.7462,-4.7341,-4.6728,-4.723,-4.794,-4.881,-4.9435,-4.9871,-5.009,-5.1101,-5.1544,-5.1492,-5.2201,-5.2876,-5.351,-5.351,-5.351,-5.345,-5.2754,-5.2139,-5.1419,-5.0078,-4.959,-4.959,-4.959,-5.0014,-5.0537,-5.0537,-5.0537,-5.0727,-5.2077,-5.158,-5.0664,-5.133,-5.06,-4.959,-4.959,-4.959,-4.959,-4.959,-4.959,-4.959,-4.959,-4.959,-4.959,-4.959,-4.959,-4.959,-4.959,-4.959,-4.959,-4.959,-4.959,-4.959,-4.959,-4.959,-4.969,-4.9967,-5.0243,-5.0519,-5.082,-5.1348,-5.18,-5.2076,-5.2352,-5.2628,-5.2904,-5.2929,-5.2929,-5.2929,-5.2929,-5.2929,-5.2929,-5.2929,-5.2929,-5.2929,-5.2929,-5.2929,-5.2929,-5.2929,-5.2929,-5.3553,-5.35,-5.35,-5.35,-5.35,-5.35,0.0,0.0,0.0,0.0,0.0,0.0,0.0,0.0,0.0,0.0,0.0,0.0,0.0,0.0,0.0,0.0,0.0,0.0,-4.9901,-4.8992,-4.8442,-4.8442,-4.9335,-4.9448,-4.85,-4.8442,-4.7977,-4.7053,-4.7186,-4.7923,-4.9226,-5.0123,-5.0699,-5.0988,-5.2668,-5.3059,-5.2297,-5.3362,-5.3964,-5.4204,-5.4204,-5.4204,-5.4204,-5.3964,-5.3844,-5.3604,-5.1231,-5.0334,-5.0334,-5.0334,-5.0979,-5.1865,-5.1865,-5.1865,-5.2112,-5.3423,-5.3093,-5.2236,-5.1927,-5.1168,-5.0334,-5.0334,-5.0334,-5.0334,-5.0334,-5.0142,-4.995,-4.995,-4.9783,-4.959,-4.959,-4.959,-4.959,-4.959,-4.959,-4.959,-4.959,-4.959,-4.959,-4.959,-4.959,-4.959,-4.959,-4.9992,-5.0268,-5.0268,-5.077,-5.1297,-5.1749,-5.1875,-5.2176,-5.2729,-5.2779,-5.2829,-5.2929,-5.2929,-5.2929,-5.2929,-5.2929,-5.2929,-5.2929,-5.2929,-5.2929,-5.2929,-5.2929,-5.2929,-5.3553,-5.35,-5.35,-5.35,-5.35,-5.35,-5.35,0.0,-5.35,-5.35,0.0,0.0,0.0,0.0,0.0,0.0,0.0,0.0,0.0,0.0,0.0,0.0,0.0,0.0,-4.9901,-4.9816,-4.9675,-4.9675,-4.9788,-4.9845,-4.9675,-4.9675,-4.9619,-4.9532,-4.8495,-4.8784,-5.0509,-5.0122,-5.0763,-5.229,-5.3091,-5.4024,-5.4973,-5.5091,-5.5818,-5.6879,-5.6879,-5.6879,-5.6765,-5.5644,-5.515,-5.5032,-5.3604,-5.3086,-5.3086,-5.3086,-5.312,-5.3241,-5.3241,-5.3241,-5.3483,-5.4738,-5.5091,-5.4738,-5.3604,-5.318,-5.3086,-5.3086,-5.3086,-5.3086,-5.3086,-5.2201,-5.1268,-5.1268,-5.0436,-4.959,-4.959,-4.959,-4.959,-4.959,-4.959,-4.959,-4.959,-4.959,-4.959,-4.959,-4.959,-4.959,-4.959,-4.964,-4.969,-4.969,-5.0193,-5.0544,-5.0594,-5.1071,-5.1599,-5.2176,-5.2201,-5.2427,-5.2904,-5.2929,-5.2929,-5.2929,-5.2929,-5.2929,-5.2929,-5.2929,-5.2929,-5.2929,-5.2929,-5.2929,-5.3605,-5.3605,-5.371,-5.3553,-5.3605,-5.371,-5.353,-5.35,-5.35,-5.35,0.0,0.0,0.0,0.0,0.0,0.0,-5.35,0.0,0.0,0.0,0.0,0.0,0.0,0.0,-5.1017,-5.1593,-5.1702,-5.1017,-5.1593,-5.1702,-5.0962,-5.0962,-5.0629,-4.9901,-4.9392,-4.984,-5.1294,-5.145,-5.2054,-5.3063,-5.4539,-5.5248,-5.5412,-5.6165,-5.6765,-5.7303,-5.7303,-5.7303,-5.7247,-5.6708,-5.648,-5.648,-5.5934,-5.4797,-5.351,-5.351,-5.3964,-5.4619,-5.4619,-5.4619,-5.4679,-5.5236,-5.5412,-5.5295,-5.4738,-5.4084,-5.351,-5.351,-5.351,-5.351,-5.351,-5.3059,-5.2692,-5.2692,-5.1642,-5.0727,-5.0727,-5.0142,-4.959,-4.959,-4.959,-4.959,-4.959,-4.959,-4.959,-4.959,-4.959,-4.959,-4.959,-4.959,-4.959,-4.959,-4.9791,-5.0067,-5.0393,-5.0645,-5.1021,-5.1599,-5.1925,-5.2352,-5.2904,-5.2929,-5.2929,-5.2929,-5.2929,-5.2929,-5.2929,-5.2929,-5.2929,-5.2929,-5.2929,-5.2929,-5.3762,-5.3762,-5.3867,-5.3553,-5.3658,-5.3762,-5.3553,-5.35,-5.35,-5.35,-5.35,0.0,0.0,0.0,-5.35,-5.35,0.0,-5.35,0.0,0.0,0.0,0.0,0.0,0.0,0.0,-5.2996,-5.3102,-5.2244,-5.2996,-5.3102,-5.2244,-5.219,-5.1811,-5.0934,-5.0573,-5.0962,-5.219,-5.2569,-5.3134,-5.4035,-5.5612,-5.6246,-5.5934,-5.6879,-5.7303,-5.7303,-5.7303,-5.7303,-5.7303,-5.7303,-5.7303,-5.7303,-5.7303,-5.6165,-5.456,-5.456,-5.5091,-5.5934,-5.5934,-5.5934,-5.5934,-5.5934,-5.5934,-5.5934,-5.5934,-5.5295,-5.456,-5.456,-5.456,-5.456,-5.456,-5.4263,-5.4024,-5.4024,-5.2998,-5.2077,-5.2077,-5.1356,-5.0563,-5.0206,-5.0142,-5.0014,-4.9654,-4.959,-4.959,-4.959,-4.959,-4.959,-4.959,-4.959,-4.959,-4.959,-4.959,-4.9766,-5.0167,-5.0193,-5.0444,-5.0996,-5.1724,-5.2277,-5.2678,-5.2854,-5.2929,-5.2929,-5.2929,-5.2929,-5.2929,-5.2929,-5.2929,-5.2929,-5.2929,-5.2929,-5.4075,-5.3919,-5.3867,-5.3553,-5.35,-5.35,-5.35,-5.35,-5.35,-5.35,-5.35,-5.35,-5.35,-5.35,-5.35,-5.35,-5.35,0.0,0.0,0.0,0.0,0.0,0.0,0.0,0.0,-5.3448,-5.3448,-5.3448,-5.3448,-5.3448,-5.3448,-5.3448,-5.3395,-5.3395,-5.2244,-5.219,-5.3395,-5.2952,-5.3577,-5.5362,-5.6084,-5.6667,-5.7247,-5.7303,-5.7303,-5.7303,-5.7303,-5.7303,-5.7303,-5.7303,-5.7303,-5.7303,-5.7303,-5.7247,-5.7191,-5.7191,-5.7191,-5.7247,-5.7247,-5.7247,-5.7247,-5.7247,-5.7247,-5.7247,-5.7247,-5.7191,-5.7191,-5.7191,-5.7191,-5.7191,-5.7191,-5.6222,-5.5353,-5.5353,-5.4382,-5.345,-5.345,-5.3362,-5.2998,-5.1678,-5.1429,-5.1016,-4.9847,-4.959,-4.959,-4.959,-4.959,-4.959,-4.959,-4.959,-4.959,-4.959,-4.959,-4.9615,-4.9615,-4.9615,-4.9866,-5.0419,-5.1498,-5.2126,-5.2126,-5.2653,-5.2929,-5.2929,-5.2929,-5.2929,-5.2929,-5.2929,-5.2929,-5.2929,-5.2929,-5.2929,-5.4282,-5.4333,-5.4363,-5.3867,-5.3919,-5.3942,-5.3553,-5.35,-5.35,-5.35,-5.35,-5.35,-5.35,-5.35,-5.35,-5.35,-5.35,-5.35,0.0,0.0,0.0,0.0,0.0,0.0,0.0,0.0,0.0,-5.35,-5.35,-5.35,-5.35,-5.35,-5.35,-5.35,-5.3102,-5.3102,-5.35,-5.3333,-5.3967,-5.5416,-5.5649,-5.6287,-5.7303,-5.7303,-5.7303,-5.7303,-5.7303,-5.7303,-5.7303,-5.7303,-5.7303,-5.7303,-5.7303,-5.7303,-5.7303,-5.7303,-5.7303,-5.7303,-5.7303,-5.7303,-5.7303,-5.7303,-5.7303,-5.7303,-5.7303,-5.7303,-5.7303,-5.7303,-5.7303,-5.7303,-5.7303,-5.6992,-5.6651,-5.6651,-5.5703,-5.4738,-5.4738,-5.4084,-5.3389,-5.2937,-5.2815,-5.2385,-5.1079,-5.0853,-5.0537,-4.9719,-4.959,-4.959,-4.959,-4.959,-4.959,-4.959,-4.959,-4.959,-4.959,-4.959,-4.9841,-5.0393,-5.077,-5.1172,-5.1548,-5.2101,-5.2377,-5.2377,-5.2729,-5.2929,-5.2929,-5.2929,-5.2929,-5.2929,-5.2929,-5.2929,-5.4539,-5.4619,-5.47,-5.4178,-5.4149,-5.42,-5.3762,-5.3658,-5.3658,-5.3658,-5.3553,-5.3553,-5.3762,-5.3605,-5.35,-5.3605,-5.3553,-5.35,0.0,-5.35,0.0,0.0,0.0,0.0,0.0,0.0,-5.35,-5.35,-5.35,-5.35,-5.35,-5.35,-5.35,-5.35,-5.35,-5.35,-5.35,-5.35,-5.4052,-5.5097,-5.53,-5.5968,-5.6984,-5.7216,-5.7303,-5.7303,-5.7303,-5.7303,-5.7303,-5.7303,-5.7303,-5.7303,-5.7303,-5.7303,-5.7303,-5.7303,-5.7303,-5.7303,-5.7303,-5.7303,-5.7303,-5.7303,-5.7303,-5.7303,-5.7303,-5.7303,-5.7303,-5.7303,-5.7303,-5.7303,-5.7303,-5.7303,-5.7303,-5.7303,-5.6651,-5.605,-5.605,-5.5412,-5.4738,-5.4263,-5.4144,-5.3784,-5.2447,-5.1829,-5.1079,-4.9783,-4.959,-4.959,-4.959,-4.959,-4.959,-4.959,-4.959,-4.959,-4.959,-4.959,-4.9741,-5.0092,-5.0318,-5.0569,-5.0971,-5.1699,-5.2101,-5.2101,-5.2653,-5.2829,-5.2628,-5.2628,-5.2528,-5.2352,-5.2352,-5.2352]},{"header":{"parameterUnit":"m.s-1","parameterCategory":1,"la1":30.6,"la2":29.2853,"lo1":-89.7004,"lo2":-87.6739,"dy":0.0162,"dx":0.0183,"nx":112,"ny":82,"refTime":"2023-06-12T12:00:00:Z","depth":0,"parameterNumber":3,"parameterNumberName":"V-component_of_WINDS"},"data":[0.0,0.0,0.0,0.0,0.0,0.0,0.0,0.0,0.0,0.0,0.0,0.0,0.0,0.0,0.0,0.0,0.0,0.0,0.0,0.0,0.0,0.0,0.0,0.0,0.0,0.0,0.0,0.0,0.0,0.0,0.0,0.0,0.0,0.0,0.0,0.0,0.0,0.0,0.0,0.0,0.0,0.0,0.0,0.0,0.0,0.0,0.0,0.0,0.0,0.0,0.0,0.0,0.0,0.0,0.0,0.0,0.0,0.0,0.0,0.0,0.0,0.0,0.0,0.0,0.0,0.0,0.0,0.0,0.0,0.0,0.0,0.0,0.0,0.0,0.0,0.0,0.0,0.0,0.0,0.0,0.0,0.0,0.0,0.0,0.0,0.0,0.0,0.0,0.0,0.0,-4.4519,-4.4264,-4.4503,-4.4726,-4.488,-4.488,-4.488,-4.488,0.0,0.0,0.0,0.0,0.0,0.0,0.0,0.0,0.0,0.0,0.0,0.0,0.0,0.0,0.0,0.0,0.0,0.0,0.0,0.0,0.0,0.0,0.0,0.0,0.0,0.0,0.0,0.0,0.0,0.0,0.0,0.0,0.0,0.0,0.0,0.0,0.0,0.0,0.0,0.0,0.0,0.0,0.0,0.0,0.0,0.0,0.0,0.0,0.0,0.0,0.0,0.0,0.0,0.0,0.0,0.0,0.0,0.0,0.0,0.0,0.0,0.0,0.0,0.0,0.0,0.0,0.0,0.0,0.0,0.0,0.0,0.0,0.0,0.0,0.0,0.0,0.0,0.0,0.0,0.0,0.0,0.0,0.0,0.0,0.0,0.0,0.0,0.0,0.0,0.0,0.0,0.0,0.0,0.0,0.0,0.0,0.0,0.0,0.0,0.0,0.0,0.0,0.0,0.0,-4.4787,-4.5295,-4.5918,-4.6256,-4.6296,-4.6296,-4.6296,-4.6296,0.0,0.0,0.0,0.0,0.0,0.0,0.0,0.0,0.0,0.0,0.0,0.0,0.0,0.0,0.0,0.0,0.0,0.0,0.0,0.0,0.0,0.0,0.0,0.0,0.0,0.0,0.0,0.0,0.0,0.0,0.0,0.0,0.0,0.0,0.0,0.0,0.0,0.0,0.0,0.0,0.0,0.0,0.0,0.0,0.0,0.0,0.0,0.0,0.0,0.0,0.0,0.0,0.0,0.0,0.0,0.0,0.0,0.0,0.0,0.0,0.0,0.0,0.0,0.0,0.0,0.0,0.0,0.0,0.0,0.0,0.0,0.0,0.0,0.0,0.0,0.0,0.0,0.0,0.0,0.0,0.0,0.0,0.0,0.0,0.0,0.0,0.0,0.0,0.0,0.0,0.0,0.0,0.0,0.0,0.0,0.0,0.0,0.0,0.0,0.0,0.0,0.0,0.0,-4.5434,-4.5803,-4.6111,-4.6419,-4.6603,-4.6603,-4.6603,-4.6603,-4.6603,-4.6018,0.0,0.0,0.0,0.0,0.0,0.0,0.0,0.0,0.0,0.0,0.0,0.0,0.0,0.0,0.0,0.0,0.0,0.0,0.0,0.0,0.0,0.0,0.0,0.0,0.0,0.0,0.0,0.0,0.0,0.0,0.0,0.0,0.0,0.0,0.0,0.0,0.0,0.0,0.0,0.0,0.0,0.0,0.0,0.0,0.0,0.0,0.0,0.0,0.0,0.0,0.0,0.0,0.0,0.0,0.0,0.0,0.0,0.0,0.0,0.0,0.0,0.0,0.0,0.0,0.0,0.0,0.0,0.0,0.0,0.0,0.0,0.0,0.0,0.0,0.0,0.0,0.0,0.0,0.0,0.0,0.0,0.0,0.0,0.0,0.0,0.0,0.0,0.0,0.0,0.0,0.0,0.0,0.0,0.0,0.0,0.0,0.0,0.0,0.0,0.0,0.0,0.0,-4.6419,-4.685,-4.685,-4.6973,-4.7065,-4.7065,-4.7065,-4.7065,-4.7065,-4.7065,0.0,0.0,0.0,0.0,0.0,0.0,0.0,0.0,0.0,0.0,0.0,0.0,0.0,0.0,0.0,0.0,0.0,0.0,0.0,0.0,0.0,0.0,0.0,0.0,0.0,0.0,0.0,0.0,0.0,0.0,0.0,0.0,0.0,0.0,0.0,0.0,0.0,0.0,0.0,0.0,0.0,0.0,0.0,0.0,0.0,0.0,0.0,0.0,0.0,0.0,0.0,0.0,0.0,0.0,0.0,0.0,0.0,0.0,0.0,0.0,0.0,0.0,0.0,0.0,0.0,0.0,0.0,0.0,0.0,0.0,0.0,0.0,0.0,0.0,0.0,0.0,0.0,0.0,0.0,0.0,0.0,0.0,0.0,0.0,0.0,0.0,0.0,0.0,0.0,0.0,0.0,0.0,0.0,0.0,0.0,0.0,0.0,0.0,0.0,0.0,0.0,0.0,-4.7127,-4.7527,-4.7527,-4.8112,-4.8481,-4.8481,-4.8481,-4.8481,-4.8481,-4.8481,0.0,0.0,0.0,0.0,0.0,0.0,0.0,0.0,0.0,0.0,0.0,0.0,0.0,0.0,0.0,0.0,0.0,0.0,0.0,0.0,0.0,0.0,0.0,0.0,0.0,0.0,0.0,0.0,0.0,0.0,0.0,0.0,0.0,0.0,0.0,0.0,0.0,0.0,0.0,0.0,0.0,0.0,0.0,0.0,0.0,0.0,0.0,0.0,0.0,0.0,0.0,0.0,0.0,0.0,0.0,0.0,0.0,0.0,0.0,0.0,0.0,0.0,0.0,0.0,0.0,0.0,0.0,0.0,0.0,0.0,0.0,0.0,0.0,0.0,0.0,0.0,0.0,0.0,0.0,0.0,0.0,0.0,0.0,0.0,0.0,0.0,0.0,0.0,0.0,0.0,0.0,0.0,0.0,0.0,0.0,0.0,0.0,0.0,0.0,0.0,0.0,0.0,-4.7804,-4.8235,-4.8235,-4.845,-4.8604,-4.8604,-4.8604,-4.8604,-4.8604,0.0,0.0,0.0,0.0,0.0,0.0,0.0,0.0,0.0,0.0,0.0,0.0,0.0,0.0,0.0,0.0,0.0,0.0,0.0,0.0,0.0,0.0,0.0,0.0,0.0,0.0,0.0,0.0,0.0,0.0,0.0,0.0,0.0,0.0,0.0,0.0,0.0,0.0,0.0,0.0,0.0,0.0,0.0,0.0,0.0,0.0,0.0,0.0,0.0,0.0,0.0,0.0,0.0,0.0,0.0,0.0,0.0,0.0,0.0,0.0,0.0,0.0,0.0,0.0,0.0,0.0,0.0,0.0,0.0,0.0,0.0,0.0,0.0,0.0,0.0,0.0,0.0,0.0,0.0,0.0,0.0,0.0,0.0,0.0,0.0,0.0,0.0,0.0,0.0,0.0,0.0,0.0,0.0,0.0,0.0,0.0,0.0,0.0,0.0,0.0,0.0,0.0,-4.7927,-4.8512,-4.8943,-4.8943,-4.9158,-4.9281,-4.9281,-4.9281,-4.9281,-4.9281,0.0,0.0,0.0,0.0,0.0,0.0,0.0,0.0,0.0,0.0,0.0,0.0,0.0,0.0,0.0,0.0,0.0,0.0,0.0,0.0,0.0,0.0,0.0,0.0,0.0,0.0,0.0,0.0,0.0,0.0,0.0,0.0,0.0,0.0,0.0,0.0,0.0,0.0,0.0,0.0,0.0,0.0,0.0,0.0,0.0,0.0,0.0,0.0,0.0,0.0,0.0,0.0,0.0,0.0,0.0,0.0,0.0,0.0,0.0,0.0,0.0,0.0,0.0,0.0,0.0,0.0,0.0,0.0,0.0,0.0,0.0,0.0,0.0,0.0,0.0,0.0,0.0,0.0,0.0,0.0,0.0,0.0,0.0,0.0,0.0,0.0,0.0,0.0,0.0,0.0,0.0,0.0,0.0,0.0,0.0,0.0,0.0,0.0,0.0,0.0,0.0,0.0,-4.8635,-4.9251,-4.9682,-4.9682,-5.0297,-5.0697,-5.0697,-5.0697,-5.0697,0.0,0.0,0.0,0.0,0.0,0.0,0.0,0.0,0.0,0.0,0.0,0.0,0.0,0.0,0.0,0.0,0.0,0.0,0.0,0.0,0.0,0.0,0.0,0.0,0.0,0.0,0.0,0.0,0.0,0.0,0.0,0.0,0.0,0.0,0.0,0.0,0.0,0.0,0.0,0.0,0.0,0.0,0.0,0.0,0.0,0.0,0.0,0.0,0.0,0.0,0.0,0.0,0.0,0.0,0.0,0.0,0.0,0.0,0.0,0.0,0.0,0.0,0.0,0.0,0.0,0.0,0.0,0.0,0.0,0.0,0.0,0.0,0.0,0.0,0.0,0.0,0.0,0.0,0.0,0.0,0.0,0.0,0.0,0.0,0.0,0.0,0.0,0.0,0.0,0.0,0.0,0.0,0.0,0.0,0.0,0.0,0.0,0.0,0.0,0.0,0.0,0.0,0.0,-4.9374,-4.9959,-5.0389,-5.0389,-5.0574,-5.0697,-5.0697,-5.0697,-5.0697,-5.0697,0.0,0.0,0.0,0.0,0.0,0.0,0.0,0.0,0.0,0.0,0.0,0.0,0.0,0.0,0.0,0.0,0.0,0.0,0.0,0.0,0.0,0.0,0.0,0.0,0.0,0.0,0.0,0.0,0.0,0.0,0.0,0.0,0.0,0.0,0.0,0.0,0.0,0.0,0.0,0.0,0.0,0.0,0.0,0.0,0.0,0.0,0.0,0.0,0.0,0.0,0.0,0.0,0.0,0.0,0.0,0.0,0.0,0.0,0.0,0.0,0.0,0.0,0.0,0.0,0.0,0.0,0.0,0.0,0.0,0.0,0.0,0.0,0.0,0.0,0.0,0.0,0.0,0.0,0.0,0.0,0.0,0.0,0.0,0.0,0.0,0.0,0.0,0.0,0.0,0.0,0.0,0.0,0.0,0.0,0.0,0.0,0.0,0.0,0.0,0.0,0.0,0.0,-5.0124,-5.0667,-5.1097,-5.1097,-5.1344,-5.1498,-5.1498,-5.1498,-5.1498,-5.1498,0.0,0.0,0.0,0.0,0.0,0.0,0.0,0.0,0.0,0.0,0.0,0.0,0.0,0.0,0.0,0.0,0.0,0.0,0.0,0.0,0.0,0.0,0.0,0.0,0.0,0.0,0.0,0.0,0.0,0.0,0.0,0.0,0.0,0.0,0.0,0.0,0.0,0.0,0.0,0.0,0.0,0.0,0.0,0.0,0.0,0.0,0.0,0.0,0.0,0.0,0.0,0.0,0.0,0.0,0.0,0.0,0.0,0.0,0.0,0.0,0.0,0.0,0.0,0.0,0.0,0.0,0.0,0.0,0.0,0.0,0.0,0.0,0.0,0.0,0.0,0.0,0.0,0.0,0.0,0.0,0.0,0.0,0.0,0.0,0.0,0.0,0.0,0.0,0.0,0.0,0.0,0.0,0.0,0.0,0.0,0.0,0.0,0.0,0.0,0.0,0.0,0.0,-5.1017,-5.1418,-5.1805,-5.1805,-5.2359,-5.2698,-5.2698,-5.2698,-5.2698,-5.2698,0.0,0.0,0.0,0.0,0.0,0.0,0.0,0.0,0.0,0.0,0.0,0.0,0.0,0.0,0.0,0.0,0.0,0.0,0.0,0.0,0.0,0.0,0.0,0.0,0.0,0.0,0.0,0.0,0.0,0.0,0.0,0.0,0.0,0.0,0.0,0.0,0.0,0.0,0.0,0.0,0.0,0.0,0.0,0.0,0.0,0.0,0.0,0.0,0.0,0.0,0.0,0.0,0.0,0.0,0.0,0.0,0.0,0.0,0.0,0.0,-5.1227,0.0,0.0,0.0,0.0,0.0,0.0,0.0,0.0,0.0,0.0,0.0,0.0,0.0,0.0,0.0,0.0,0.0,0.0,0.0,0.0,0.0,0.0,0.0,0.0,0.0,0.0,0.0,0.0,0.0,0.0,0.0,0.0,0.0,0.0,0.0,0.0,0.0,0.0,0.0,0.0,0.0,-5.2534,-5.2505,-5.2513,-5.2513,-5.2637,-5.2698,-5.2698,-5.2698,-5.2698,-5.2698,-5.2698,0.0,0.0,0.0,0.0,0.0,0.0,0.0,0.0,0.0,0.0,0.0,0.0,0.0,0.0,0.0,0.0,0.0,0.0,0.0,0.0,0.0,0.0,0.0,0.0,0.0,0.0,0.0,0.0,0.0,0.0,0.0,0.0,0.0,0.0,0.0,0.0,0.0,0.0,0.0,0.0,0.0,0.0,0.0,0.0,0.0,0.0,0.0,0.0,0.0,0.0,0.0,0.0,0.0,0.0,0.0,0.0,0.0,0.0,0.0,0.0,-5.2673,0.0,0.0,0.0,0.0,0.0,0.0,0.0,0.0,0.0,0.0,0.0,0.0,0.0,0.0,0.0,0.0,0.0,0.0,0.0,0.0,0.0,0.0,0.0,0.0,0.0,0.0,0.0,0.0,0.0,0.0,0.0,0.0,0.0,0.0,0.0,0.0,0.0,0.0,0.0,0.0,-5.3524,-5.3277,-5.3191,-5.3191,-5.3498,-5.3683,-5.3683,-5.3683,-5.3529,-5.3221,-5.3191,0.0,0.0,0.0,0.0,0.0,0.0,0.0,0.0,0.0,0.0,0.0,0.0,0.0,0.0,0.0,0.0,0.0,0.0,0.0,0.0,0.0,0.0,0.0,0.0,0.0,0.0,0.0,0.0,0.0,0.0,0.0,0.0,0.0,0.0,0.0,0.0,0.0,0.0,0.0,0.0,0.0,0.0,0.0,0.0,0.0,0.0,0.0,0.0,0.0,0.0,0.0,0.0,0.0,-5.3493,-5.4475,-5.5681,-5.5681,-5.5749,-5.5886,-5.5243,-5.5277,-5.5681,-5.5681,0.0,0.0,0.0,0.0,0.0,0.0,0.0,0.0,0.0,0.0,0.0,0.0,0.0,0.0,0.0,0.0,0.0,0.0,0.0,0.0,0.0,0.0,-5.6089,-5.6089,-5.6089,-5.6122,-5.6258,0.0,0.0,0.0,0.0,0.0,0.0,0.0,0.0,0.0,0.0,0.0,-5.492,-5.441,-5.4188,-5.4338,-5.4729,-5.4931,-5.4931,-5.4823,-5.4437,-5.3883,-5.3853,-5.3652,0.0,0.0,0.0,0.0,0.0,0.0,0.0,0.0,0.0,0.0,0.0,0.0,0.0,0.0,0.0,0.0,0.0,0.0,0.0,0.0,0.0,0.0,0.0,0.0,0.0,0.0,0.0,0.0,0.0,0.0,0.0,0.0,-4.3801,-4.4861,0.0,0.0,0.0,0.0,0.0,0.0,0.0,0.0,0.0,0.0,0.0,0.0,0.0,-5.1629,-5.3813,-5.3881,-5.4386,-5.523,-5.5336,-5.551,-5.5681,-5.5681,-5.6055,-5.6664,-5.6562,0.0,-5.5681,-5.5681,0.0,0.0,0.0,0.0,0.0,0.0,0.0,0.0,0.0,0.0,0.0,0.0,0.0,0.0,0.0,0.0,0.0,0.0,0.0,0.0,0.0,0.0,-5.7611,-5.7611,-5.7611,-5.778,-5.8457,-5.7577,-5.6664,-5.6664,-5.7171,-5.7848,0.0,0.0,0.0,0.0,0.0,0.0,-5.8067,-5.6756,-5.6113,-5.6906,-5.6352,-5.5915,-5.5915,-5.5162,-5.4652,-5.456,-5.456,-5.4498,-5.4406,-5.4406,0.0,0.0,0.0,0.0,0.0,0.0,0.0,0.0,0.0,0.0,0.0,0.0,0.0,0.0,0.0,0.0,0.0,0.0,0.0,0.0,0.0,0.0,0.0,0.0,0.0,0.0,0.0,0.0,0.0,-4.4195,-4.4816,-4.5923,-4.5856,-4.5978,0.0,0.0,0.0,0.0,0.0,0.0,0.0,0.0,0.0,-5.343,-5.2708,-5.2953,-5.4542,-5.4948,-5.5317,-5.5646,-5.6078,-5.6562,-5.6934,-5.6934,-5.7103,-5.7408,-5.7408,-5.7239,-5.6934,-5.6934,-5.6934,-5.6934,0.0,0.0,0.0,0.0,-5.6934,-5.6934,-5.6934,-5.6934,-5.6934,-5.6934,0.0,0.0,0.0,0.0,0.0,0.0,0.0,-5.9133,-5.9133,-5.9133,-5.9133,-5.9133,-5.9133,-5.9235,-5.9539,-5.9099,-5.866,-5.866,-5.893,-5.9235,-5.9573,-5.9641,0.0,0.0,0.0,-5.7553,-5.7961,-5.6778,-5.6027,-5.6451,-5.6495,-5.6466,-5.6466,-5.6122,-5.5684,-5.5284,-5.5253,-5.5099,-5.4714,-5.4683,-5.4683,0.0,0.0,0.0,0.0,0.0,0.0,0.0,0.0,0.0,0.0,0.0,0.0,0.0,0.0,0.0,0.0,0.0,0.0,0.0,0.0,0.0,0.0,0.0,0.0,0.0,0.0,0.0,0.0,-4.5312,-4.5715,-4.6748,-4.673,-4.6781,0.0,0.0,0.0,0.0,0.0,0.0,-5.1534,-5.1526,-5.254,-5.4722,-5.4142,-5.4202,-5.5059,-5.5871,-5.6309,-5.6496,-5.7086,-5.7746,-5.8457,-5.8457,-5.8457,-5.8457,-5.8457,-5.8457,-5.8423,-5.8051,-5.8017,-5.8186,-5.8186,-5.8287,-5.8457,-5.8457,-5.8457,-5.8457,-5.8457,-5.8457,-5.8457,-5.8457,-5.8457,-5.8558,-5.9133,0.0,0.0,0.0,0.0,-6.0114,-6.0114,-6.0114,-6.0114,-6.0114,-6.0114,-6.0148,-6.0351,-6.0419,-6.0351,-6.0148,-6.0114,-6.0182,-6.0385,-6.0419,0.0,-6.0655,-5.933,-5.8349,-5.8349,-5.737,-5.67,-5.67,-5.6964,-5.7163,-5.7163,-5.6954,-5.6594,-5.5992,-5.5961,-5.5745,-5.5284,-5.5253,-5.5253,-5.5253,0.0,0.0,0.0,0.0,0.0,0.0,0.0,0.0,0.0,0.0,0.0,0.0,0.0,0.0,0.0,0.0,0.0,0.0,0.0,0.0,0.0,0.0,0.0,0.0,0.0,0.0,0.0,0.0,0.0,-4.7425,-4.7558,0.0,0.0,0.0,0.0,-4.9674,-5.1781,-5.311,-5.3064,-5.3142,-5.3945,-5.5611,-5.5529,-5.5862,-5.666,-5.7442,-5.8152,-5.8822,-5.8859,-5.9302,-5.9979,-5.9979,-5.9979,-5.9979,-5.9979,-5.9979,-5.9877,-5.8457,-5.8321,-5.8964,-5.8964,-5.937,-5.9979,-5.9979,-5.9979,-5.9979,-5.9979,-5.9979,-5.9979,-5.9979,-5.9979,-6.0013,-6.0047,-6.008,0.0,0.0,-6.0114,-6.0114,-6.0114,-6.0114,-6.0114,-6.0114,-6.0114,-6.0317,-6.1061,-6.1231,-6.1028,-6.025,-6.0114,-6.0351,-6.1129,0.0,-6.1467,-6.2178,-6.1454,-6.0846,-6.0846,-6.0,-5.9423,-5.9423,-5.8605,-5.8119,-5.8119,-5.7306,-5.6779,-5.6748,-5.6748,-5.6748,-5.6717,-5.6717,-5.6717,-5.6717,-5.5992,0.0,0.0,0.0,0.0,0.0,0.0,0.0,0.0,0.0,0.0,0.0,0.0,0.0,0.0,0.0,0.0,0.0,0.0,0.0,0.0,0.0,0.0,0.0,0.0,0.0,0.0,0.0,0.0,-4.8173,-4.8666,0.0,-4.9281,-5.0193,-5.0933,-5.1153,-5.2485,-5.3675,-5.4673,-5.4744,-5.5667,-5.7777,-5.7272,-5.7601,-5.893,-5.9167,-5.9438,-5.9708,-5.9708,-5.9844,-6.0114,-6.0114,-6.0114,-6.0114,-6.0114,-6.0114,-6.0047,-5.9539,-5.9471,-5.9708,-5.9708,-5.9877,-6.0114,-6.0114,-6.0114,-6.0114,-6.0114,-6.0114,-6.0114,-6.0114,-6.0452,-6.0858,-6.0858,-6.1197,-6.1569,-6.1569,-6.1569,-6.1569,-6.1569,-6.1569,-6.1569,-6.1569,-6.1569,-6.1637,-6.1941,-6.2009,-6.1907,-6.1637,-6.1569,-6.167,-6.1941,-6.2009,-6.188,-6.1561,-6.0694,-5.9849,-5.9311,-5.8363,-5.7793,-5.7793,-5.7495,-5.7306,-5.7306,-5.7002,-5.681,-5.681,-5.681,-5.681,-5.681,-5.681,-5.681,-5.681,-5.6563,-5.644,0.0,0.0,0.0,0.0,0.0,0.0,0.0,0.0,0.0,0.0,0.0,0.0,0.0,0.0,0.0,0.0,0.0,0.0,0.0,0.0,0.0,0.0,0.0,0.0,0.0,0.0,-4.8481,-4.8912,-4.9589,-5.002,-5.002,-5.0905,-5.1577,-5.1873,-5.3657,-5.4907,-5.5364,-5.6443,-5.7615,-5.8849,-5.8657,-5.9007,-6.008,-6.0114,-6.025,-6.052,-6.052,-6.0655,-6.0892,-6.0892,-6.0892,-6.0892,-6.0892,-6.0892,-6.0892,-6.0892,-6.0892,-6.0858,-6.0588,-6.0655,-6.0892,-6.0892,-6.0892,-6.0892,-6.0892,-6.0892,-6.0892,-6.0892,-6.1231,-6.167,-6.167,-6.2009,-6.2381,-6.2381,-6.2381,-6.2381,-6.2381,-6.2381,-6.2381,-6.2381,-6.2381,-6.2381,-6.2381,-6.2381,-6.2381,-6.2381,-6.2381,-6.2381,-6.2381,-6.2381,-6.2183,-6.1554,-6.0694,-5.9718,-5.8773,-5.784,-5.7163,-5.6858,-5.681,-5.681,-5.681,-5.681,-5.681,-5.681,-5.681,-5.681,-5.681,-5.681,-5.681,-5.681,-5.681,-5.681,-5.681,0.0,0.0,0.0,0.0,0.0,0.0,0.0,0.0,0.0,0.0,0.0,0.0,0.0,0.0,0.0,0.0,0.0,0.0,0.0,0.0,0.0,0.0,0.0,-4.8424,-4.9124,-4.9712,-4.9712,-5.0328,-5.0728,-5.0728,-5.2144,-5.2648,-5.1876,-5.544,-5.6914,-5.5225,-5.825,-5.966,-5.88,-5.966,-6.0148,-6.0182,-6.0182,-6.0554,-6.1332,-6.1332,-6.1704,-6.2381,-6.2381,-6.2381,-6.2381,-6.2381,-6.2381,-6.2381,-6.2381,-6.2381,-6.2313,-6.1603,-6.1772,-6.2381,-6.2381,-6.2381,-6.2381,-6.2381,-6.2381,-6.2381,-6.2381,-6.2381,-6.2381,-6.2381,-6.2381,-6.2381,-6.2381,-6.2381,-6.2381,-6.2381,-6.2381,-6.2381,-6.2381,-6.2381,-6.2381,-6.2415,-6.2415,-6.2415,-6.2448,-6.2448,-6.2448,-6.2381,-6.2381,-6.2381,-6.2302,-6.1554,0.0,-5.9631,-5.8728,-5.7793,-5.6906,-5.681,-5.681,-5.681,-5.681,-5.681,-5.681,-5.681,-5.681,-5.681,-5.681,-5.681,-5.681,-5.681,-5.681,-5.681,0.0,0.0,0.0,0.0,0.0,0.0,0.0,0.0,0.0,0.0,0.0,0.0,0.0,0.0,0.0,0.0,0.0,0.0,0.0,0.0,0.0,0.0,-5.0088,-4.9412,-4.9947,-5.042,-5.042,-5.1005,-5.1436,-5.1436,-5.2675,-5.3681,-5.4047,-5.5577,-5.683,-5.7666,-5.8554,-5.9583,-6.0578,-6.0844,-6.1231,-6.1738,-6.1772,-6.1873,-6.211,-6.211,-6.2178,-6.2381,-6.2381,-6.2381,-6.2381,-6.2381,-6.2381,-6.2381,-6.2381,-6.2381,-6.2381,-6.2178,-6.2212,-6.2381,-6.2381,-6.2381,-6.2381,-6.2381,-6.2381,-6.2381,-6.2381,-6.2381,-6.2381,-6.2381,-6.2381,-6.2381,-6.2381,-6.2381,-6.2381,-6.2381,-6.2381,-6.2381,-6.2381,-6.2381,-6.255,-6.3091,-6.3193,-6.3362,-6.3903,-6.4005,-6.3666,-6.2584,-6.2381,-6.1951,-6.0567,-6.0151,-5.9411,-5.7793,-5.7353,-5.7067,-5.681,-5.681,-5.681,-5.681,-5.681,-5.681,-5.681,-5.681,-5.681,-5.681,-5.681,-5.681,-5.681,-5.681,-5.681,0.0,0.0,0.0,0.0,0.0,0.0,0.0,0.0,0.0,0.0,0.0,0.0,0.0,0.0,0.0,0.0,0.0,0.0,0.0,0.0,0.0,0.0,-5.0638,-5.0974,-5.0574,-5.0882,-5.1128,-5.1128,-5.1959,-5.2544,-5.2544,-5.3529,-5.4344,-5.4826,-5.5857,-5.6917,-5.7966,-5.9045,-5.9934,-6.0595,-6.1351,-6.1784,-6.1797,-6.2223,-6.2381,-6.2381,-6.2719,-6.2854,-6.2854,-6.3193,-6.3328,-6.3328,-6.3328,-6.3328,-6.3328,-6.3328,-6.3328,-6.326,0.0,0.0,0.0,0.0,-6.2381,-6.2381,-6.2381,-6.2584,-6.2854,-6.2854,-6.3057,-6.3328,-6.3328,-6.3328,-6.3328,-6.3328,-6.3328,-6.3328,-6.3328,-6.3328,-6.3328,-6.3328,-6.3328,-6.3429,-6.3869,-6.3971,-6.4106,-6.4512,-6.4613,0.0,-6.3463,-6.2939,-6.2332,-6.124,-6.0372,-5.9451,-5.8354,-5.7886,-5.7672,-5.7672,-5.7672,-5.7549,-5.7241,-5.7241,0.0,0.0,0.0,-5.681,-5.681,-5.681,0.0,0.0,0.0,-5.681,-5.681,-5.681,0.0,0.0,-5.681,-5.681,0.0,0.0,0.0,0.0,0.0,0.0,0.0,0.0,0.0,0.0,0.0,0.0,0.0,0.0,0.0,0.0,-5.1128,-5.1836,-5.1929,-5.1929,-5.1929,-5.1929,-5.3067,-5.3791,-5.3791,-5.4406,-5.4806,-5.4806,-5.62,-5.7095,-5.7231,0.0,0.0,0.0,0.0,-6.1904,-6.1119,-6.2085,-6.255,-6.2651,-6.3328,-6.3632,-6.3666,-6.4309,-6.4613,-6.4613,-6.4613,-6.4613,-6.4613,-6.4613,-6.4613,-6.4478,-6.3159,-6.2651,-6.2651,-6.2651,-6.2651,-6.2651,-6.2651,0.0,0.0,-6.3632,-6.4072,-6.4613,-6.4613,-6.4613,-6.4613,-6.4613,-6.4613,-6.4613,-6.4613,-6.4613,-6.4613,-6.4613,-6.4613,-6.4613,-6.4715,-6.4715,-6.4749,-6.485,-6.485,-6.4809,-6.4727,-6.3784,-6.3053,-6.2967,-6.1372,-6.0138,-6.0042,-5.9327,-5.8793,-5.8793,-5.8793,0.0,-5.798,-5.7919,-5.7672,-5.7087,-5.6964,-5.6933,-5.6933,-5.684,-5.681,-5.681,-5.681,-5.681,-5.681,-5.681,-5.681,-5.681,-5.681,-5.681,0.0,0.0,0.0,0.0,0.0,0.0,0.0,0.0,0.0,0.0,0.0,0.0,0.0,0.0,0.0,-5.1758,-5.2242,-5.2698,-5.3252,-5.3345,-5.3345,-5.3345,-5.4006,-5.4498,-5.4498,-5.513,-5.5499,-5.5499,-5.6337,-5.7183,-5.7944,-5.8483,-5.8998,-5.9587,-6.0694,-6.1493,-6.189,-6.2818,-6.3599,-6.4174,0.0,0.0,-6.441,-6.4546,-6.4613,-6.4613,-6.4613,-6.4613,-6.4613,-6.4613,-6.4613,-6.458,-6.4275,-6.4174,-6.4174,-6.4174,-6.4174,-6.4174,-6.4174,-6.4275,-6.4377,-6.4377,-6.4478,-6.4613,-6.4613,-6.4613,0.0,-6.4613,-6.4613,-6.4613,-6.4613,-6.4613,-6.4613,-6.4613,-6.4613,-6.4749,-6.5358,-6.5493,-6.5662,-6.6271,-6.6373,-6.612,-6.529,-6.4022,-6.2804,-6.2097,-6.0956,-5.9898,-5.9179,-5.8912,-5.8793,-5.8793,-5.8793,-5.8731,-5.8608,-5.8577,-5.8516,-5.8393,-5.7919,-5.7641,-5.7641,-5.7118,-5.681,-5.681,-5.681,-5.681,-5.681,-5.681,-5.681,-5.681,-5.681,-5.681,0.0,0.0,0.0,0.0,0.0,0.0,0.0,0.0,0.0,0.0,0.0,-5.0034,0.0,0.0,-5.179,-5.2658,-5.3009,-5.3437,-5.4145,-5.4514,-5.4576,-5.4222,-5.4791,-5.5222,-5.5222,-5.5838,-5.6238,-5.6238,-5.6594,-5.7211,-5.8165,-5.8527,-5.8949,-5.942,-6.0639,-6.1261,-6.1141,-6.2567,-6.3476,-6.3852,-6.4746,-6.5155,-6.5155,-6.5527,-6.5696,-6.5696,-6.5696,-6.5696,-6.5655,-6.516,-6.4957,-6.4914,-6.4407,-6.4361,-6.4613,-6.4613,-6.4613,-6.4613,-6.4613,-6.485,-6.5155,-6.5155,-6.5392,-6.5696,-6.5696,-6.5696,-6.5696,-6.5696,-6.5696,-6.5696,-6.5696,-6.5696,-6.5696,-6.5696,-6.5696,-6.5797,-6.617,-6.6237,-6.6373,-6.6745,-6.6812,-6.6482,-6.547,-6.4264,-6.3095,-6.2154,-6.1131,-6.0353,-5.988,-5.9778,-5.9778,-5.9778,-5.9778,-5.9655,-5.9316,-5.8978,-5.8793,-5.8793,-5.8454,-5.827,-5.827,-5.8011,-5.7826,-5.7826,-5.7826,-5.7826,-5.7826,-5.7487,-5.7303,-5.7303,-5.6964,-5.681,0.0,0.0,0.0,0.0,0.0,0.0,0.0,0.0,-4.9643,-5.0255,-5.0421,-5.0663,-5.1435,-5.197,-5.2474,-5.3177,-5.3622,-5.4099,-5.4822,-5.5376,-5.5561,-5.5161,-5.5592,-5.5899,-5.5899,-5.6471,-5.681,-5.681,-5.6933,-5.7332,-5.8075,-5.8735,-5.9112,-5.9128,-6.0561,-6.1052,-6.0423,-6.2158,-6.3188,-6.357,-6.4975,-6.5699,-6.5933,-6.6542,-6.6753,-6.6718,-6.6604,-6.6714,-6.6877,-6.5813,-6.5634,-6.5935,-6.4918,-6.4906,-6.5384,-6.4915,-6.4855,-6.5019,-6.5019,-6.5425,-6.5899,-6.5899,-6.6305,-6.6812,-6.6812,-6.6812,-6.6812,-6.6812,-6.6812,-6.6812,-6.6812,-6.6812,-6.6812,-6.6812,-6.6812,-6.6812,-6.6812,-6.6745,-6.6684,-6.6684,-6.6657,-6.6289,-6.5284,-6.4453,-6.3549,-6.245,-6.145,-6.0794,-6.0794,-6.0794,-6.0794,-6.0794,-6.0794,-6.0578,-6.0024,-5.9501,-5.9162,-5.9162,-5.9039,-5.8978,-5.8978,-5.8854,-5.8793,-5.8793,-5.8793,-5.8793,-5.8793,-5.8239,-5.7962,-5.7962,-5.7457,-5.7056,-4.7309,-4.7728,-4.8177,-4.8177,-4.87,-4.9314,0.0,0.0,-5.0255,-5.0913,-5.1296,-5.1482,-5.1572,-5.2427,-5.3177,-5.3284,-5.4021,-5.4806,-5.5499,-5.5653,-5.5899,-5.6532,-5.6656,-5.6686,-5.6686,-5.6748,-5.681,-5.681,-5.7364,-5.7752,-5.785,-5.8499,-5.8838,-5.8838,-5.9818,-6.0614,-6.115,-6.2213,-6.3505,-6.5061,-6.5216,-6.5798,-6.6677,-6.6779,-6.6647,-6.6332,-6.6035,-6.6438,-6.726,-6.6202,-6.6892,-6.8547,-6.7463,-6.7635,-6.8316,-6.6078,-6.5784,-6.6576,-6.6576,-6.6609,-6.6677,-6.6677,-6.6745,-6.6812,-6.6812,-6.6812,-6.6812,-6.6812,-6.6812,-6.6812,-6.6812,-6.6812,-6.6812,-6.6812,-6.6812,-6.6812,-6.6812,-6.6564,-6.6344,-6.6344,-6.6106,-6.5578,-6.4575,-6.4355,-6.3792,-6.2509,-6.145,-6.0794,-6.0794,-6.0794,-6.0794,-6.0794,-6.0794,-6.0763,-6.0701,-6.0609,-6.0578,-6.0578,-6.0024,-5.9686,-5.9686,-5.9101,-5.8793,-5.8793,-5.8793,-5.8793,-5.8793,-5.8701,-5.867,-5.867,-5.8577,-5.7949,-4.7788,-4.8087,0.0,0.0,-4.9344,-4.9912,-5.0136,-5.0495,-5.0853,-5.1169,-5.1323,-5.1583,-5.2302,-5.2698,-5.3263,0.0,-5.4674,-5.518,-5.5967,-5.6138,-5.623,-5.6537,-5.6713,-5.681,-5.681,-5.681,-5.6964,-5.7364,-5.7672,-5.798,-5.8331,-5.9008,-5.9378,-5.9378,-6.0121,-6.0683,-6.0994,-6.1975,-6.302,-6.4126,-6.4742,-6.5436,-6.6232,-6.6232,-6.6133,-6.6006,-6.5869,-6.6047,-6.6383,-6.5314,-6.5445,-6.6208,-6.5148,-6.5346,-6.6335,-6.6509,-6.6844,-6.7202,-6.7202,-6.7202,-6.729,-6.7926,-6.8132,-6.8132,-6.8132,-6.8132,-6.8132,-6.8132,-6.8132,-6.8132,-6.8132,-6.8132,-6.8132,-6.8132,-6.7665,-6.7202,-6.7202,-6.6555,-6.6006,-6.6006,-6.59,-6.5462,-6.4475,-6.4271,-6.3877,-6.2778,-6.2226,-6.1963,-6.1963,-6.1625,-6.1225,-6.0824,-6.0794,-6.0794,-6.0794,-6.0794,-6.0794,-6.0794,-6.0547,-6.0363,-6.0363,-6.0116,-5.9963,-5.9963,-5.9963,-5.9963,-5.9963,-5.9562,-5.9378,-5.9347,-5.8978,-5.8485,-4.8147,0.0,0.0,-4.9404,-5.0032,-5.0465,-5.0465,-5.0823,-5.1229,-5.1229,-5.1426,-5.1837,-5.2648,-5.3041,0.0,-5.4861,-5.5226,-5.553,-5.6311,-5.6323,-5.6323,-5.6372,-5.6519,-5.6677,-5.691,-5.7038,-5.7254,-5.7697,-5.8116,-5.8547,-5.9039,-5.9686,-6.0086,-6.0086,-6.0547,-6.0886,-6.1071,-6.1781,-6.2651,-6.3596,-6.4282,-6.5077,-6.5805,-6.5737,-6.5685,-6.5685,-6.5578,-6.5724,-6.5924,-6.4922,-6.4819,-6.525,-6.4224,-6.4487,-6.5504,-6.6745,-6.7108,-6.7062,-6.742,-6.7479,-6.7571,-6.8395,-6.865,-6.8606,-6.8305,-6.8395,-6.865,-6.865,-6.886,-6.9113,-6.9113,-6.9113,-6.9113,-6.9113,-6.8261,-6.7512,-6.7512,-6.6531,-6.5685,-6.5685,-6.5596,-6.5352,-6.456,-6.4487,-6.4224,-6.3487,-6.3379,-6.3256,-6.2856,-6.2394,-6.1902,-6.1409,-6.1348,-6.1348,-6.1348,-6.1348,-6.1348,-6.1348,-6.1194,-6.1071,-6.1071,-6.0886,-6.0794,-6.0794,-6.0794,-6.0794,-6.0794,-6.0301,-6.0086,-6.0055,-5.9562,-5.9347,0.0,0.0,-5.0136,-5.0166,-5.0674,-5.1199,-5.1199,-5.1199,-5.1229,-5.1229,-5.1927,-5.2502,-5.2264,-5.367,-5.4789,-5.4635,-5.5376,-5.6047,-5.6372,-5.6176,-5.6127,-5.6372,-5.6176,-5.637,0.0,-5.7648,-5.7648,-5.7431,-5.8826,-5.9747,-5.9747,-6.0393,-6.0763,-6.0763,-6.0794,-6.1101,-6.1779,-6.1779,-6.2664,-6.4271,-6.4291,-6.4848,-6.5788,-6.5511,-6.5396,-6.5376,-6.5064,-6.553,-6.6375,-6.5344,-6.6142,-6.7856,-6.6846,-6.7022,-6.7889,-6.6867,-6.623,-6.5999,-6.7109,-6.7512,-6.7512,-6.7558,-6.7558,-6.7341,-6.6239,-6.6686,-6.7546,-6.7546,-6.8294,-6.9113,-6.9113,-6.9113,-6.9113,-6.9113,-6.8261,-6.7512,-6.7512,-6.6419,-6.5396,-6.5396,-6.5147,-6.4936,-6.4881,-6.4881,-6.4881,-6.4826,-6.4826,-6.4334,-6.2979,-6.2794,-6.2764,-6.2764,-6.2764,-6.2764,-6.2764,-6.2764,-6.2764,-6.2764,-6.2148,-6.1779,-6.1779,-6.1163,-6.0794,-6.0794,-6.0794,-6.0794,-6.0794,-6.0763,-6.0763,-6.0763,-6.0763,-6.0732,0.0,0.0,-5.0315,-5.0734,-5.1003,-5.1229,-5.1229,-5.1229,-5.1349,-5.1768,-5.2085,-5.263,-5.3597,-5.4138,-5.4638,-5.5189,-5.538,-5.5581,-5.583,-5.578,-5.578,-5.588,-5.6293,0.0,0.0,0.0,0.0,-5.8938,-5.9481,-5.9942,-6.0166,-6.0567,-6.0905,-6.1177,-6.1366,-6.1809,-6.2487,-6.2487,-6.2955,-6.3978,-6.4474,-6.4907,-6.5196,-6.5102,-6.5064,-6.5064,-6.4961,-6.5077,-6.5406,-6.5053,-6.5351,-6.5938,-6.5592,-6.5646,-6.5938,-6.5592,-6.5334,-6.5323,-6.6435,-6.6841,-6.6942,-6.7655,-6.7899,-6.7802,-6.7458,-6.7606,-6.7883,-6.7883,-6.8175,-6.8415,-6.8415,-6.8415,-6.8415,-6.8415,-6.7638,-6.6841,-6.6841,-6.5881,-6.5064,-6.5064,-6.5009,-6.4888,-6.4888,-6.4888,-6.4888,-6.4888,-6.4888,-6.4549,-6.3595,-6.3472,-6.3318,-6.2856,-6.2825,-6.2825,-6.2825,-6.2825,-6.2825,-6.2825,-6.261,-6.2487,-6.2487,-6.2271,-6.2148,-6.2148,-6.2148,-6.2148,-6.2148,-6.2148,-6.1902,-6.1471,-6.1471,-6.1225,0.0,-5.0375,-5.0644,-5.1109,-5.1229,-5.1229,-5.1229,-5.1409,-5.1678,-5.2127,-5.2576,-5.3223,-5.4288,-5.45,-5.475,-5.5371,-5.528,-5.528,-5.5581,-5.5531,-5.5481,-5.5581,-5.6204,0.0,0.0,0.0,0.0,-5.9563,-5.987,-6.0126,-6.0399,-6.0779,-6.1085,-6.1195,-6.1844,-6.2433,-6.3002,-6.3141,-6.3533,-6.421,-6.4672,-6.4888,-6.4888,-6.4888,-6.4888,-6.4888,-6.4888,-6.4888,-6.4888,-6.4888,-6.4888,-6.4888,-6.4888,-6.4888,-6.4888,-6.4888,-6.4888,-6.5053,-6.6152,-6.6491,-6.6596,-6.7292,-6.7548,-6.7446,-6.7086,-6.724,-6.7548,-6.7548,-6.777,-6.8072,-6.8072,-6.8072,-6.8072,-6.8072,-6.7292,-6.6491,-6.6491,-6.5646,-6.4888,-6.4888,-6.4888,-6.4888,-6.4888,-6.4888,-6.4888,-6.4888,-6.4888,-6.4734,-6.4272,-6.421,-6.4057,-6.3595,-6.3564,-6.3564,-6.3564,-6.3564,-6.3564,-6.3564,-6.3318,-6.3195,-6.3195,-6.2948,-6.2825,-6.2825,-6.2825,-6.2825,-6.2825,-6.2825,-6.2579,-6.2179,-6.2179,-6.1933,-5.0076,-5.0704,-5.1229,-5.1229,-5.1229,-5.1229,-5.1259,-5.1738,-5.2217,-5.2276,-5.3324,-5.4221,0.0,0.0,-5.5179,-5.5179,-5.5179,-5.528,-5.5531,-5.533,-5.528,0.0,0.0,0.0,0.0,0.0,0.0,-5.9429,0.0,-6.0407,-6.0407,-6.1019,-6.1256,-6.0994,-6.2196,-6.3033,-6.3434,-6.3708,-6.4156,-6.4888,-6.4888,-6.4888,-6.4888,-6.4888,-6.4888,-6.4888,-6.4888,-6.4888,-6.4888,-6.4888,-6.4888,-6.4888,-6.4888,-6.4888,-6.4888,-6.4888,-6.4888,-6.5053,-6.6045,-6.6438,-6.6438,-6.6438,-6.6438,-6.6258,-6.5187,-6.5592,-6.6438,-6.6438,-6.7137,-6.7953,-6.7953,-6.7953,-6.7953,-6.7953,-6.7137,-6.6438,-6.6438,-6.5592,-6.4888,-6.4888,-6.4888,-6.4888,-6.4888,-6.4888,-6.4888,-6.4888,-6.4888,-6.4888,-6.4888,-6.4888,-6.4888,-6.4888,-6.4888,-6.4888,-6.4888,-6.4888,-6.4888,-6.4888,-6.4241,-6.3872,-6.3872,-6.3256,-6.2918,-6.2918,-6.2918,-6.2918,-6.2918,-6.2918,-6.2918,-6.2856,-6.2856,-6.2856,-5.0734,-5.1079,-5.1229,-5.1229,-5.1229,-5.1349,-5.1828,-5.2067,-5.2486,-5.3473,-5.3982,-5.4371,0.0,0.0,0.0,-5.5179,-5.5179,0.0,-5.528,-5.5229,0.0,0.0,0.0,-5.7101,-5.7643,-5.87,0.0,0.0,-6.018,-6.0433,-6.0439,-6.0866,-6.1328,-6.2052,-6.2817,-6.3464,-6.3832,-6.4081,-6.434,-6.4524,-6.4524,-6.4635,-6.4888,-6.4635,-6.4635,-6.4888,-6.4888,-6.4888,-6.4888,-6.4888,-6.4888,-6.4888,-6.4888,-6.4888,-6.4888,-6.4888,-6.4888,-6.4943,-6.5187,-6.5297,-6.5297,-6.5297,-6.5297,-6.5242,-6.4998,-6.5108,-6.5297,-6.5297,-6.5483,-6.57,-6.57,-6.57,-6.57,-6.57,-6.5483,-6.5297,-6.5297,-6.5108,-6.4888,-6.4888,-6.4888,-6.4888,-6.4888,-6.4888,-6.4888,-6.4888,-6.4888,-6.4888,-6.4888,-6.4888,-6.4888,-6.4888,-6.4888,-6.4888,-6.4888,-6.4888,-6.4888,-6.4888,-6.4734,-6.4641,-6.4641,-6.4457,-6.4364,-6.4364,-6.4364,-6.4364,-6.4364,-6.4364,-6.4087,-6.3564,-6.3564,-6.3287,-5.105,-5.1229,-5.1229,-5.1229,-5.1439,-5.1738,-5.2127,-5.2665,-5.3294,-5.4042,-5.4431,0.0,0.0,0.0,0.0,0.0,0.0,0.0,-5.5179,-5.5179,-5.5179,0.0,-5.6316,0.0,-5.757,-5.8746,-5.9583,0.0,-5.9902,-6.0122,-6.0464,-6.0959,-6.1539,-6.2314,-6.3208,-6.3767,-6.3993,-6.4132,-6.4244,-6.4244,-6.4244,-6.43,-6.4499,-6.4468,-6.4524,-6.4691,-6.4691,-6.4691,-6.4691,-6.4691,-6.4691,-6.4691,-6.4832,-6.4888,-6.4888,-6.4888,-6.4888,-6.4888,-6.4888,-6.4888,-6.4888,-6.4888,-6.4888,-6.4888,-6.4888,-6.4888,-6.4888,-6.4888,-6.4888,-6.4888,-6.4888,-6.4888,-6.4888,-6.4888,-6.4888,-6.4888,-6.4888,-6.4888,-6.4888,-6.4888,-6.4888,-6.4888,-6.4888,-6.4888,-6.4888,-6.4888,-6.4888,-6.4888,-6.4888,-6.4888,-6.4888,-6.4888,-6.4888,-6.4888,-6.4888,-6.4888,-6.4888,-6.4888,-6.4888,-6.4888,-6.4888,-6.4888,-6.4888,-6.4888,-6.4888,-6.4888,-6.4888,-6.4888,-6.4703,-6.4303,-6.4303,-6.4087,-5.105,-5.1229,-5.1229,-5.1229,-5.1708,-5.2217,-5.2306,-5.3294,-5.4251,-5.4311,0.0,0.0,-5.5179,0.0,-5.5179,-5.5179,0.0,-5.5179,-5.5179,-5.5179,-5.5179,-5.5179,-5.6316,-5.7198,-5.7488,-5.8693,-5.9476,-5.9476,-5.9566,-5.9898,-6.056,-6.1223,-6.1803,-6.2268,-6.335,-6.388,-6.3936,-6.3936,-6.3936,-6.3936,-6.3936,-6.3993,-6.3993,-6.4188,-6.427,-6.4326,-6.4326,-6.4326,-6.4326,-6.4326,-6.4326,-6.4412,-6.4666,-6.4777,-6.4777,-6.4777,-6.4777,-6.4777,-6.4832,-6.4832,-6.4832,-6.4832,-6.4832,-6.4832,-6.4777,-6.4777,-6.4777,-6.4832,-6.4832,-6.4832,-6.4888,-6.4888,-6.4888,-6.4888,-6.4888,-6.4888,-6.4888,-6.4888,-6.4888,-6.4888,-6.4888,-6.4888,-6.4888,-6.4888,-6.4888,-6.4888,-6.4888,-6.4888,-6.4888,-6.4888,-6.4888,-6.4888,-6.4888,-6.4888,-6.4888,-6.4888,-6.4888,-6.4888,-6.4888,-6.4888,-6.4888,-6.4888,-6.4888,-6.4832,-6.4832,-6.4832,-6.4777,-6.4832,-6.4832,-6.4832,-6.4888,-6.4888,-5.1199,-5.1229,-5.1229,-5.1229,-5.1708,-5.2336,-5.2875,-5.3623,0.0,0.0,0.0,-5.5179,-5.5179,0.0,0.0,-5.5179,0.0,0.0,0.0,0.0,0.0,0.0,0.0,0.0,0.0,0.0,0.0,0.0,0.0,-6.0261,-6.095,-6.1609,-6.2382,-6.3213,-6.3249,-6.3367,-6.3595,-6.3595,-6.3595,-6.3595,-6.3595,-6.3766,-6.3993,-6.3736,-6.3793,-6.4106,-6.4106,0.0,-6.4106,-6.4106,-6.4106,-6.4106,-6.4162,-6.4162,-6.4162,-6.4162,-6.4162,-6.4218,-6.4412,-6.4524,-6.4524,-6.4524,-6.4524,-6.4468,-6.4218,-6.4162,-6.4218,-6.4412,-6.4524,-6.4579,-6.4832,-6.4888,-6.4888,-6.4888,-6.4888,-6.4888,-6.4888,-6.4888,-6.4888,-6.4888,-6.4888,-6.4888,-6.4888,-6.4888,-6.4888,-6.4888,-6.4888,-6.4888,-6.4888,-6.4888,-6.4888,-6.4888,-6.4888,-6.4888,-6.4888,-6.4888,-6.4888,-6.4888,-6.4888,-6.4888,-6.4888,-6.4888,-6.4777,-6.4524,-6.4524,-6.4356,-6.4162,-6.4356,-6.4524,-6.4524,-6.4777,-6.4888,-5.1229,-5.1229,-5.1289,-5.1648,-5.2217,-5.2905,-5.3563,0.0,0.0,0.0,0.0,-5.5179,-5.5179,0.0,0.0,0.0,0.0,0.0,0.0,0.0,0.0,0.0,0.0,0.0,0.0,0.0,0.0,0.0,0.0,-6.0775,-6.1104,-6.2061,-6.2807,-6.3309,-6.3194,-6.3194,-6.3309,-6.3309,-6.3309,-6.3309,-6.3309,-6.3367,-6.3538,-6.3538,-6.3595,-6.3766,-6.3766,-6.3766,-6.3766,-6.3766,-6.3766,-6.3766,-6.3936,-6.3993,-6.3993,-6.3993,-6.3993,-6.4049,-6.4132,-6.4188,-6.4188,-6.4019,-6.4101,-6.4382,-6.4244,-6.4075,-6.4049,-6.4326,-6.4382,-6.4468,-6.4832,-6.4888,-6.4888,-6.4888,-6.4888,-6.4888,-6.4888,-6.4888,-6.4888,-6.4888,-6.4888,-6.4888,-6.4888,-6.4888,-6.4888,-6.4888,-6.4888,-6.4888,-6.4888,-6.4888,-6.4888,-6.4888,-6.4888,-6.4888,-6.4888,-6.4888,-6.4888,-6.4888,-6.4888,-6.4888,-6.4888,-6.4888,-6.4777,-6.4382,-6.4382,-6.43,-6.3993,-6.4132,-6.4188,-6.4188,-6.4387,-6.4443,-5.1229,-5.1229,-5.1379,-5.2037,-5.2695,-5.3354,-5.4042,-5.473,0.0,0.0,0.0,0.0,0.0,0.0,0.0,0.0,0.0,0.0,0.0,0.0,0.0,0.0,0.0,0.0,0.0,0.0,0.0,0.0,0.0,0.0,-6.1523,-6.251,-6.3079,-6.3079,-6.3079,-6.3079,-6.3079,-6.3079,-6.3079,-6.3079,-6.3079,-6.3079,-6.3137,-6.3309,-6.3424,-6.3424,-6.3424,-6.3424,-6.3424,-6.3424,-6.3424,-6.3424,-6.3709,-6.3823,-6.3823,-6.3823,-6.3823,-6.3823,-6.388,-6.388,-6.388,-6.3652,-6.3906,-6.4158,-6.4101,-6.3963,-6.3849,-6.4132,-6.43,-6.4412,-6.4721,-6.4832,-6.4888,-6.4888,-6.4888,-6.4888,-6.4888,-6.4888,-6.4888,-6.4888,-6.4888,-6.4888,-6.4888,-6.4888,-6.4888,-6.4888,-6.4888,-6.4888,-6.4888,-6.4888,-6.4888,-6.4888,-6.4888,-6.4888,-6.4888,-6.4888,-6.4888,-6.4888,-6.4888,-6.4888,-6.4888,-6.4888,-6.4777,-6.4382,-6.4326,-6.4188,-6.388,-6.388,-6.388,-6.388,-6.3993,-6.3993,-5.1229,-5.1229,-5.1379,-5.2037,-5.2695,-5.3354,-5.4042,0.0,0.0,0.0,0.0,0.0,0.0,0.0,0.0,0.0,0.0,0.0,0.0,0.0,0.0,0.0,0.0,0.0,0.0,0.0,0.0,0.0,0.0,0.0,-6.2839,-6.3019,-6.3079,-6.3079,-6.3079,-6.3079,-6.3079,-6.3079,-6.3079,-6.3079,-6.3079,-6.3079,-6.3079,-6.3137,-6.3137,-6.3137,-6.3137,-6.3137,0.0,-6.3137,-6.3137,-6.3137,-6.3194,-6.3194,-6.3194,-6.3194,-6.3194,-6.3194,-6.3481,-6.3538,-6.3595,-6.388,-6.3823,-6.3538,-6.3309,-6.3194,-6.3252,-6.3538,-6.3823,-6.4075,-6.4356,-6.4635,-6.4888,-6.4888,-6.4888,-6.4888,-6.4888,-6.4888,-6.4888,-6.4888,-6.4888,-6.4888,-6.4888,-6.4888,-6.4888,-6.4888,-6.4888,-6.4888,-6.4888,-6.4888,-6.4888,-6.4888,-6.4888,-6.4888,-6.4888,-6.4888,-6.4888,-6.4888,-6.4888,-6.4888,-6.4888,-6.4888,-6.4777,-6.4382,-6.4132,-6.3849,-6.3538,-6.3538,-6.3538,-6.3538,-6.388,-6.3993,-5.1229,-5.1229,-5.1468,-5.2516,-5.2995,-5.3473,-5.4551,0.0,0.0,0.0,-5.5179,-5.5179,-5.5179,0.0,0.0,0.0,0.0,0.0,0.0,0.0,0.0,0.0,0.0,0.0,0.0,0.0,0.0,0.0,0.0,0.0,-6.3019,-6.3079,-6.3079,-6.3079,-6.3079,-6.3079,-6.3079,-6.3079,-6.3079,-6.3079,-6.3079,-6.3079,-6.3079,-6.3079,-6.3079,-6.3079,-6.3079,-6.3079,0.0,-6.3079,-6.3079,-6.3079,-6.3079,-6.3079,-6.3079,-6.3079,-6.3079,-6.3137,-6.3252,-6.3252,-6.3309,-6.3424,-6.3367,-6.3252,-6.3309,-6.3252,-6.3137,-6.3424,-6.3595,-6.3766,-6.4075,-6.4275,-6.4387,-6.4387,-6.4387,-6.4387,-6.4387,-6.4499,-6.4579,-6.4579,-6.4777,-6.4888,-6.4888,-6.4888,-6.4888,-6.4888,-6.4721,-6.4579,-6.4579,-6.4499,-6.4387,-6.4387,-6.4666,-6.4832,-6.4635,-6.4579,-6.4524,-6.4387,-6.4387,-6.4387,-6.4387,-6.4387,-6.4218,-6.3849,-6.3736,-6.3538,-6.3252,-6.3252,-6.3252,-6.3252,-6.3424,-6.3481,-5.1229,-5.1349,-5.1768,-5.2905,-5.3324,-5.3803,0.0,0.0,0.0,-5.5179,-5.5179,-5.5179,-5.5179,0.0,0.0,0.0,0.0,0.0,0.0,0.0,0.0,0.0,0.0,0.0,0.0,0.0,0.0,0.0,0.0,0.0,-6.3019,-6.3079,-6.3079,-6.3079,-6.3079,-6.3079,-6.3079,-6.3079,-6.3079,-6.3079,-6.3079,-6.3079,-6.3079,-6.3079,-6.3079,-6.3079,-6.3079,-6.3079,0.0,-6.3079,-6.3079,-6.3079,-6.3079,-6.3079,-6.3079,-6.3079,-6.3079,-6.3079,-6.3079,-6.3079,-6.3079,-6.3079,-6.3079,-6.3137,-6.3309,-6.3252,-6.3137,-6.3367,-6.3424,-6.3595,-6.3936,-6.3993,-6.3993,-6.3993,-6.3993,-6.3993,-6.3993,-6.4132,-6.43,-6.43,-6.4468,-6.461,-6.461,-6.461,-6.461,-6.461,-6.4412,-6.43,-6.43,-6.4132,-6.3993,-6.3993,-6.4387,-6.4554,-6.43,-6.43,-6.4188,-6.3993,-6.3993,-6.3993,-6.3993,-6.3993,-6.388,-6.3652,-6.3538,-6.3424,-6.3252,-6.3137,-6.3079,-6.3079,-6.3079,-6.3079,-5.1229,-5.1678,-5.2336,-5.3025,-5.3683,-5.4371,0.0,0.0,0.0,0.0,-5.5179,-5.5179,0.0,0.0,0.0,0.0,0.0,0.0,0.0,0.0,0.0,0.0,0.0,0.0,0.0,0.0,0.0,0.0,0.0,0.0,-6.3019,-6.3079,-6.3079,-6.3079,-6.3079,-6.3079,-6.3079,-6.3079,-6.3079,-6.3079,-6.3079,-6.3079,-6.3079,-6.3079,-6.3079,-6.3079,-6.3079,-6.3079,0.0,-6.3079,-6.3079,-6.3079,-6.3079,-6.3079,-6.3079,-6.3079,-6.3079,-6.3079,-6.3079,-6.3079,-6.3079,-6.3079,-6.3079,-6.3079,-6.3079,-6.3079,-6.3079,-6.3079,-6.3309,-6.3595,-6.3936,-6.3993,-6.3993,-6.3993,-6.3993,-6.3993,-6.3993,-6.3993,-6.3993,-6.3993,-6.3993,-6.3993,-6.3993,-6.3993,-6.3993,-6.3993,-6.3993,-6.3993,-6.3993,-6.3993,-6.3993,-6.3993,-6.3993,-6.3993,-6.3993,-6.3993,-6.3993,-6.3993,-6.3993,-6.3993,-6.3993,-6.3993,-6.3993,-6.3993,-6.3652,-6.3538,-6.3481,-6.3252,-6.3079,-6.3079,-6.3079,-6.3079,-5.1229,-5.1708,-5.2366,-5.3025,-5.3683,-5.4371,-5.5029,0.0,0.0,0.0,0.0,0.0,0.0,0.0,0.0,0.0,0.0,0.0,0.0,0.0,0.0,0.0,0.0,0.0,0.0,0.0,0.0,0.0,0.0,0.0,-6.3019,-6.3079,-6.3079,-6.3079,-6.3079,-6.3079,-6.3079,-6.3079,-6.3079,-6.3079,-6.3079,-6.3079,-6.3079,-6.3079,-6.3079,-6.3079,-6.3079,-6.3079,-6.3079,-6.3079,-6.3079,-6.3079,-6.3079,-6.3079,-6.3079,-6.3079,-6.3079,-6.3079,-6.3079,-6.3079,-6.3079,-6.3079,-6.3079,-6.3079,-6.3079,-6.3079,-6.3079,-6.3079,-6.3194,-6.3252,-6.3367,-6.3367,-6.3367,-6.3367,-6.3367,-6.3367,-6.3367,-6.3538,-6.3652,-6.3652,-6.3823,-6.3993,-6.3993,-6.3993,-6.3993,-6.3993,-6.3823,-6.3652,-6.3652,-6.3481,-6.3367,-6.3367,-6.3367,-6.3481,-6.3652,-6.3652,-6.3595,-6.3424,-6.3367,-6.3367,-6.3367,-6.3367,-6.3367,-6.3367,-6.3309,-6.3252,-6.3252,-6.3137,-6.3079,-6.3079,-6.3079,-6.3079,0.0,-5.2067,-5.2725,-5.3414,-5.4072,0.0,0.0,0.0,0.0,0.0,0.0,0.0,0.0,0.0,0.0,0.0,0.0,0.0,0.0,0.0,0.0,0.0,0.0,0.0,0.0,0.0,0.0,0.0,0.0,0.0,-6.266,-6.2929,-6.3079,-6.3079,-6.3079,-6.3079,-6.3079,-6.3079,-6.3079,-6.3079,-6.3079,-6.3079,-6.3079,-6.3079,-6.3079,-6.3079,-6.3079,-6.3079,0.0,-6.3079,-6.3079,-6.3079,-6.3079,-6.3079,-6.3079,-6.3079,-6.3079,-6.3079,-6.3079,-6.3079,-6.3079,-6.3079,-6.3079,-6.3079,-6.3079,-6.3079,-6.3079,-6.3079,-6.3079,-6.3079,-6.3079,-6.3079,-6.3079,-6.3079,-6.3079,-6.3079,-6.3079,-6.3252,-6.3367,-6.3367,-6.3538,-6.3652,-6.3652,-6.3652,-6.3652,-6.3652,-6.3481,-6.3367,-6.3367,-6.3194,-6.3079,-6.3079,-6.3079,-6.3194,-6.3367,-6.3367,-6.3309,-6.3137,-6.3079,-6.3079,-6.3079,-6.3079,-6.3079,-6.3079,-6.3079,-6.3079,-6.3079,-6.3079,-6.3079,-6.3079,-6.3079,-6.3079,0.0,0.0,0.0,0.0,0.0,0.0,0.0,0.0,0.0,0.0,0.0,0.0,0.0,0.0,0.0,0.0,0.0,0.0,0.0,0.0,0.0,0.0,0.0,0.0,0.0,0.0,0.0,0.0,0.0,0.0,-6.2061,-6.272,-6.3079,-6.3079,-6.3079,-6.3079,-6.3079,-6.3079,-6.3079,-6.3079,-6.3079,-6.3079,-6.3079,-6.3079,-6.3079,0.0,-6.3079,-6.3079,-6.3079,-6.3079,-6.3079,-6.3079,-6.3079,-6.3079,-6.3079,-6.3079,-6.3079,-6.3079,-6.3079,-6.3079,-6.3079,-6.3079,-6.3079,-6.3079,-6.3079,-6.3079,-6.3079,-6.3079,-6.3079,-6.3079,-6.3079,-6.3079,-6.3079,-6.3079,-6.3079,-6.3079,-6.3079,-6.3079,-6.3079,-6.3079,-6.3079,-6.3079,-6.3079,-6.3079,-6.3079,-6.3079,-6.3079,-6.3079,-6.3079,-6.3079,-6.3079,-6.3079,-6.3079,-6.3079,-6.3079,-6.3079,-6.3079,-6.3079,-6.3079,-6.3079,-6.3079,-6.3079,-6.3079,-6.3079,-6.3079,-6.3079,-6.3079,-6.3079,-6.3079,-6.3079,-6.3079,-6.3079,-5.2636,0.0,-5.3354,-5.4042,-5.47,0.0,0.0,0.0,0.0,0.0,0.0,0.0,0.0,0.0,0.0,0.0,0.0,0.0,0.0,0.0,0.0,0.0,0.0,0.0,0.0,0.0,0.0,0.0,0.0,-6.1403,-6.2061,-6.272,-6.3079,-6.3079,-6.3079,-6.3079,-6.3079,-6.3079,-6.3079,-6.3079,-6.3079,-6.3079,-6.3079,-6.3079,-6.3079,-6.3079,-6.3079,-6.3079,-6.3079,-6.3079,-6.3079,-6.3079,-6.3079,-6.3079,-6.3079,-6.3079,-6.3079,-6.3079,-6.3079,-6.3079,-6.3079,-6.3079,-6.3079,-6.3079,-6.3079,-6.3079,-6.3079,-6.3079,-6.3079,-6.3079,-6.3079,-6.3079,-6.3079,-6.3079,-6.3079,-6.3079,-6.3079,-6.3079,-6.3079,-6.3079,-6.3079,-6.3079,-6.3079,-6.3079,-6.3079,-6.3079,-6.3079,-6.3079,-6.3079,-6.3079,-6.3079,-6.3079,-6.3079,-6.3079,-6.3079,-6.3079,-6.3079,-6.3079,-6.3079,-6.3079,-6.3079,-6.3079,-6.3079,-6.3079,-6.3079,-6.3079,-6.3079,-6.3079,-6.3079,-6.3079,-6.3079,-6.3079,-5.2815,-5.3174,-5.3414,-5.4401,-5.494,-5.5179,0.0,0.0,0.0,0.0,0.0,0.0,0.0,0.0,0.0,0.0,0.0,0.0,0.0,0.0,0.0,0.0,0.0,0.0,0.0,0.0,0.0,0.0,0.0,-6.0924,-6.1613,-6.2271,-6.278,-6.3079,-6.3079,-6.3079,-6.3079,-6.3079,-6.3079,-6.3079,-6.3079,-6.3079,-6.3079,-6.3079,-6.3079,-6.3079,-6.3079,-6.3079,-6.3079,-6.3079,-6.3079,-6.3079,-6.3079,-6.3079,-6.3079,-6.3079,-6.3079,-6.3079,-6.3079,-6.3079,-6.3079,-6.3079,-6.3079,-6.3079,-6.3079,-6.3079,-6.3079,-6.3079,-6.3079,-6.3079,-6.3079,-6.3079,-6.3079,-6.3079,-6.3079,-6.3079,-6.3079,-6.3079,-6.3079,-6.3079,-6.3079,-6.3079,-6.3079,-6.3079,-6.3079,-6.3079,-6.3079,-6.3079,-6.3079,-6.3079,-6.3079,-6.3079,-6.3079,-6.3079,-6.3079,-6.3079,-6.3079,-6.3079,-6.3079,-6.3079,-6.3079,-6.3079,-6.3079,-6.3079,-6.3079,-6.3079,-6.3079,-6.3079,-6.3079,-6.3079,-6.3079,-6.3079,-5.2815,-5.3174,-5.3503,-5.485,-5.5179,-5.5179,0.0,0.0,0.0,0.0,0.0,0.0,0.0,0.0,0.0,0.0,0.0,0.0,0.0,0.0,0.0,0.0,0.0,0.0,0.0,0.0,0.0,0.0,0.0,-6.0326,-6.0924,-6.1583,-6.2211,-6.275,-6.2869,-6.2929,-6.2929,-6.3019,-6.3079,-6.3079,-6.3079,-6.3079,-6.3079,-6.3079,-6.3079,-6.3079,-6.3079,-6.3079,-6.3079,-6.3079,-6.3079,-6.3079,-6.3079,-6.3079,-6.3079,-6.3079,-6.3079,-6.3079,-6.3079,-6.3079,-6.3079,-6.3079,-6.3079,-6.3079,-6.3079,-6.3079,-6.3079,-6.3079,-6.3079,-6.3079,-6.3079,-6.3079,-6.3079,-6.3079,-6.3079,-6.3079,-6.3079,-6.3079,-6.3079,-6.3079,-6.3079,-6.3079,-6.3079,-6.3079,-6.3079,-6.3079,-6.3079,-6.3079,-6.3079,-6.3079,-6.3079,-6.3079,-6.3079,-6.3079,-6.3079,-6.3079,-6.3079,-6.3079,-6.3079,-6.3079,-6.3079,-6.3079,-6.3079,-6.3079,-6.3079,-6.3079,-6.3079,-6.3079,-6.3079,-6.3079,-6.3079,-6.3079,-5.2815,-5.3174,-5.3503,-5.485,-5.5179,-5.5179,0.0,0.0,0.0,0.0,0.0,0.0,0.0,0.0,0.0,0.0,0.0,0.0,0.0,0.0,0.0,0.0,0.0,0.0,0.0,0.0,0.0,0.0,0.0,-6.0116,-6.0236,-6.0894,-6.1313,-6.1403,-6.1972,-6.2241,-6.2241,-6.281,-6.3079,-6.3079,-6.3079,-6.3079,-6.3079,-6.3079,-6.3079,-6.3079,-6.3079,-6.3079,-6.3079,-6.3079,-6.3079,-6.3079,-6.3079,-6.3079,-6.3079,-6.3079,-6.3079,-6.3079,-6.3079,-6.3079,-6.3079,-6.3079,-6.3079,-6.3079,-6.3079,-6.3079,-6.3079,-6.3079,-6.3079,-6.3079,-6.3079,-6.3079,-6.3079,-6.3079,-6.3079,-6.3079,-6.3079,-6.3079,-6.3079,-6.3079,-6.3079,-6.3079,-6.3079,-6.3079,-6.3079,-6.3079,-6.3079,-6.3079,-6.3079,-6.3079,-6.3079,-6.3079,-6.3079,-6.3079,-6.3079,-6.3079,-6.3079,-6.3079,-6.3079,-6.3079,-6.3079,-6.3079,-6.3079,-6.3079,-6.3079,-6.3079,-6.3079,-6.3079,-6.3079,-6.3079,-6.3079,-6.3079,-5.2905,-5.3443,-5.3982,-5.494,-5.5179,-5.5179,-5.5179,0.0,0.0,0.0,0.0,0.0,0.0,0.0,0.0,0.0,0.0,0.0,0.0,0.0,0.0,0.0,0.0,0.0,0.0,0.0,0.0,0.0,0.0,0.0,-6.0057,-6.0386,-6.0745,-6.1104,-6.1403,-6.1553,-6.1553,-6.1882,-6.2361,-6.3079,-6.3079,-6.3079,-6.3079,-6.3079,-6.3079,-6.3079,-6.3079,-6.3079,-6.3079,-6.3079,-6.3079,-6.3079,-6.3079,-6.3079,-6.3079,-6.3079,-6.3079,-6.3079,-6.3079,-6.3079,-6.3079,-6.3079,-6.3079,-6.3079,-6.3079,-6.3079,-6.3079,-6.3079,-6.3079,-6.3079,-6.3079,-6.3079,-6.3079,-6.3079,-6.3079,-6.3079,-6.3079,-6.3079,-6.3079,-6.3079,-6.3079,-6.3079,-6.3079,-6.3079,-6.3079,-6.3079,-6.3079,-6.3079,-6.3079,-6.3079,-6.3079,-6.3079,-6.3079,-6.3079,-6.3079,-6.3079,-6.3079,-6.3079,-6.3079,-6.3079,-6.3079,-6.3079,-6.3079,-6.3079,-6.3079,-6.3079,-6.3079,-6.3079,-6.3079,-6.3079,-6.3079,-6.3079,-5.2995,-5.3683,-5.4371,-5.5029,0.0,-5.5179,-5.5179,0.0,0.0,0.0,0.0,0.0,0.0,0.0,0.0,0.0,0.0,0.0,0.0,0.0,0.0,0.0,0.0,0.0,0.0,0.0,0.0,0.0,0.0,0.0,-5.9817,-5.9847,-6.0086,-6.0625,-6.0775,-6.0864,-6.0864,-6.1044,-6.1613,-6.263,-6.278,-6.2839,-6.2839,-6.3019,-6.3079,-6.3079,-6.3079,-6.3079,-6.3079,-6.3079,-6.3079,-6.3079,-6.3079,-6.3079,-6.3079,-6.3079,-6.3079,-6.3079,-6.3079,-6.3079,-6.3079,-6.3079,-6.3079,-6.3079,-6.3079,-6.3079,-6.3079,-6.3079,-6.3079,-6.3079,-6.3079,-6.3079,-6.3079,-6.3079,-6.3079,-6.3079,-6.3079,-6.3079,-6.3079,-6.3079,-6.3079,-6.3079,-6.3079,-6.3079,-6.3079,-6.3079,-6.3079,-6.3079,-6.3079,-6.3079,-6.3079,-6.3079,-6.3079,-6.3079,-6.3079,-6.3079,-6.3079,-6.3079,-6.3079,-6.3079,-6.3079,-6.3079,-6.3079,-6.3079,-6.3079,-6.3079,-6.3079,-6.3079,-6.3079,-6.3079,-6.3079,-6.3079,-5.2995,-5.3683,-5.4371,-5.5029,-5.5179,0.0,-5.5179,0.0,0.0,0.0,0.0,0.0,0.0,0.0,0.0,0.0,0.0,0.0,0.0,0.0,0.0,0.0,0.0,0.0,0.0,0.0,0.0,0.0,0.0,0.0,-5.9189,-5.9189,-5.9189,-5.9249,-5.9847,-6.0146,-6.0146,-6.0805,-6.1164,-6.1253,-6.1882,-6.2181,-6.2181,-6.281,-6.3079,-6.3079,-6.3079,-6.3079,-6.3079,-6.3079,-6.3079,-6.3079,-6.3079,-6.3079,-6.3079,-6.3079,-6.3079,-6.3079,-6.3079,-6.3079,-6.3079,-6.3079,-6.3079,-6.3079,-6.3079,-6.3079,-6.3079,-6.3079,-6.3079,-6.3079,-6.3079,-6.3079,-6.3079,-6.3079,-6.3079,-6.3079,-6.3079,-6.3079,-6.3079,-6.3079,-6.3079,-6.3079,-6.3079,-6.3079,-6.3079,-6.3079,-6.3079,-6.3079,-6.3079,-6.3079,-6.3079,-6.3079,-6.3079,-6.3079,-6.3079,-6.3079,-6.3079,-6.3079,-6.3079,-6.3079,-6.3079,-6.3079,-6.3079,-6.3079,-6.3079,-6.3079,-6.3079,-6.3079,-6.3079,-6.3079,-6.3079,-6.3079,-5.3623,-5.4311,-5.488,-5.5119,0.0,0.0,0.0,0.0,0.0,0.0,0.0,0.0,0.0,0.0,0.0,0.0,0.0,0.0,0.0,0.0,0.0,0.0,0.0,0.0,0.0,0.0,0.0,0.0,0.0,0.0,-5.9099,-5.9099,-5.9099,-5.9099,-5.9338,-5.9488,-5.9488,-5.9727,-5.9877,-5.9877,-6.0954,-6.1493,-6.1493,-6.2181,-6.248,-6.248,-6.2899,-6.3079,-6.3079,-6.3079,-6.3079,-6.3079,-6.3079,-6.3079,-6.3079,-6.3079,-6.3079,-6.3079,-6.3079,-6.3079,-6.3079,-6.3079,-6.3079,-6.3079,-6.3079,-6.3079,-6.3079,-6.3079,-6.3079,-6.3079,-6.3079,-6.3079,-6.3079,-6.3079,-6.3079,-6.3079,-6.3079,-6.3079,-6.3079,-6.3079,-6.3079,-6.3079,-6.3079,-6.3079,-6.3079,-6.3079,-6.3079,-6.3079,-6.3079,-6.3079,-6.3079,-6.3079,-6.3079,-6.3079,-6.3079,-6.3079,-6.3079,-6.3079,-6.3079,-6.3079,-6.3079,-6.3079,-6.3079,-6.3079,-6.3079,-6.3079,-6.3079,-6.3079,-6.3079,-6.3079,-6.3079,-6.3079,-5.3913,-5.47,-5.5179,0.0,0.0,0.0,0.0,0.0,0.0,0.0,0.0,0.0,0.0,0.0,0.0,0.0,0.0,0.0,0.0,0.0,0.0,0.0,0.0,0.0,0.0,0.0,0.0,0.0,0.0,0.0,-5.9099,-5.9099,-5.9099,-5.9099,-5.9099,-5.9099,-5.9099,-5.9099,-5.9099,-5.9129,-6.0027,-6.0595,-6.0805,-6.1493,-6.1792,-6.1822,-6.2271,-6.257,-6.278,-6.278,-6.2899,-6.3079,-6.3079,-6.3079,-6.3079,-6.3079,-6.3079,-6.3079,-6.3079,-6.3079,-6.3079,-6.3079,-6.3079,-6.3079,-6.3079,-6.3079,-6.3079,-6.3079,-6.3079,-6.3079,-6.3079,-6.3079,-6.3079,-6.3079,-6.3079,-6.3079,-6.3079,-6.3079,-6.3079,-6.3079,-6.3079,-6.3079,-6.3079,-6.3079,-6.3079,-6.3079,-6.3079,-6.3079,-6.3079,-6.3079,-6.3079,-6.3079,-6.3079,-6.3079,-6.3079,-6.3079,-6.3079,-6.3079,-6.3079,-6.3079,-6.3079,-6.3079,-6.3079,-6.3079,-6.3079,-6.3079,-6.3079,-6.3079,-6.3079,-6.3079,-6.3079,-6.3079,-5.3714,-5.47,0.0,0.0,0.0,0.0,0.0,0.0,0.0,0.0,0.0,0.0,0.0,0.0,0.0,0.0,0.0,0.0,0.0,0.0,0.0,0.0,0.0,0.0,0.0,0.0,0.0,0.0,0.0,0.0,-5.9099,-5.9099,-5.9099,-5.9099,-5.9099,-5.9099,-5.9099,-5.9099,-5.9099,-5.9099,-5.9099,-5.9458,-6.0086,-6.0775,-6.1104,-6.1104,-6.1104,-6.1493,-6.2091,-6.2091,-6.248,-6.3079,-6.3079,-6.3079,-6.3079,-6.3079,-6.3079,-6.3079,-6.3079,-6.3079,-6.3079,-6.3079,-6.3079,-6.3079,-6.3079,-6.3079,-6.3079,-6.3079,-6.3079,-6.3079,-6.3079,-6.3079,-6.3079,-6.3079,-6.3079,-6.3079,-6.3079,-6.3079,-6.3079,-6.3079,-6.3079,-6.3079,-6.3079,-6.3079,-6.3079,-6.3079,-6.3079,-6.3079,-6.3079,-6.3079,-6.3079,-6.3079,-6.3079,-6.3079,-6.3079,-6.3079,-6.3079,-6.3079,-6.3079,-6.3079,-6.3079,-6.3079,-6.3079,-6.3079,-6.3079,-6.3079,-6.3079,-6.3079,-6.3079,-6.3079,-6.3079,-6.3079,-5.433,0.0,0.0,0.0,0.0,0.0,0.0,0.0,0.0,0.0,0.0,0.0,0.0,0.0,0.0,0.0,0.0,0.0,0.0,0.0,0.0,0.0,0.0,0.0,0.0,0.0,0.0,0.0,0.0,-5.9099,-5.9099,-5.9099,-5.9099,-5.9099,-5.9099,-5.9099,-5.9099,-5.9099,-5.9099,-5.9099,-5.9099,-5.9189,-5.9428,-6.0086,-6.0386,-6.0416,-6.0894,-6.1224,-6.1403,-6.1403,-6.1792,-6.2391,-6.2391,-6.266,-6.3079,-6.3079,-6.3079,-6.3079,-6.3079,-6.3079,-6.3079,-6.3079,-6.3079,-6.3079,-6.3079,-6.3079,-6.3079,-6.3079,-6.3079,-6.3079,-6.3079,-6.3079,-6.3079,-6.3079,-6.3079,-6.3079,-6.3079,-6.3079,-6.3079,-6.3079,-6.3079,-6.3079,-6.3079,-6.3079,-6.3079,-6.3079,-6.3079,-6.3079,-6.3079,-6.3079,-6.3079,-6.3079,-6.3079,-6.3079,-6.3079,-6.3079,-6.3079,-6.3079,-6.3079,-6.3079,-6.3079,-6.3079,-6.3079,-6.3079,-6.3079,-6.3079,-6.3079,-6.3079,-6.3079,-6.3079,-6.3079,-6.3079,0.0,0.0,0.0,0.0,0.0,0.0,0.0,0.0,0.0,0.0,0.0,0.0,0.0,0.0,0.0,0.0,0.0,0.0,0.0,0.0,0.0,0.0,0.0,0.0,0.0,0.0,0.0,0.0,-5.9099,-5.9099,-5.9099,-5.9099,-5.9099,-5.9099,-5.9099,-5.9099,-5.9099,-5.9099,-5.9099,-5.9099,-5.9099,-5.9099,-5.9129,-5.9518,-5.9697,-5.9727,-6.0416,-6.0715,-6.0715,-6.1014,-6.1343,-6.1702,-6.1702,-6.1942,-6.2331,-6.26,-6.269,-6.272,-6.2989,-6.3079,-6.3079,-6.3079,-6.3079,-6.3079,-6.3079,-6.3079,-6.3079,-6.3079,-6.3079,-6.3079,-6.3079,-6.3079,-6.3079,-6.3079,-6.3079,-6.3079,-6.3079,-6.3079,-6.3079,-6.3079,-6.3079,-6.3079,-6.3079,-6.3079,-6.3079,-6.3079,-6.3079,-6.3079,-6.3079,-6.3079,-6.3079,-6.3079,-6.3079,-6.3079,-6.3079,-6.3079,-6.3079,-6.3079,-6.3079,-6.3079,-6.3079,-6.3079,-6.3079,-6.3079,-6.3079,-6.3079,-6.3079,-6.3079,-6.3079,-6.3079,-6.3079,-6.3079,0.0,0.0,0.0,0.0,0.0,0.0,0.0,0.0,0.0,0.0,0.0,0.0,0.0,0.0,0.0,0.0,0.0,0.0,0.0,0.0,0.0,0.0,0.0,0.0,0.0,0.0,0.0,-5.9099,-5.9099,-5.9099,-5.9099,-5.9099,-5.9099,-5.9099,-5.9099,-5.9099,-5.9099,-5.9099,-5.9099,-5.9099,-5.9099,-5.9099,-5.9099,-5.9099,-5.9099,-5.9129,-5.9727,-5.9997,-6.0057,-6.0685,-6.0954,-6.1014,-6.1014,-6.1074,-6.1194,-6.1792,-6.2002,-6.2091,-6.269,-6.2899,-6.2899,-6.2899,-6.2899,-6.2899,-6.2899,-6.2929,-6.2989,-6.2989,-6.3019,-6.3079,-6.3079,-6.3079,-6.3079,-6.3079,-6.3079,-6.3079,-6.3079,-6.3079,-6.3079,-6.3079,-6.3079,-6.3079,-6.3079,-6.3079,-6.3079,-6.3079,-6.3079,-6.3079,-6.3079,-6.3079,-6.3079,-6.3079,-6.3079,-6.3079,-6.3079,-6.3079,-6.3079,-6.3079,-6.3079,-6.3079,-6.3079,-6.3079,-6.3079,-6.3079,-6.3079,-6.3079,-6.3079,-6.3079,-6.3079,-6.3079,-6.3079,-6.3079,0.0,0.0,0.0,0.0,0.0,0.0,0.0,0.0,0.0,0.0,0.0,0.0,0.0,0.0,0.0,0.0,0.0,0.0,0.0,0.0,0.0,0.0,0.0,0.0,0.0,0.0,0.0,-5.9099,-5.9099,-5.9099,-5.9099,-5.9099,-5.9099,-5.9099,-5.9099,-5.9099,-5.9099,-5.9099,-5.9099,-5.9099,-5.9099,-5.9099,-5.9099,-5.9099,-5.9099,-5.9129,-5.9249,-5.9308,-5.9338,-5.9488,-5.9847,-6.0296,-6.0296,-6.0625,-6.1134,-6.1283,-6.1313,-6.1343,-6.1493,-6.1523,-6.1523,-6.1523,-6.1523,-6.1523,-6.1523,-6.1912,-6.2301,-6.2301,-6.269,-6.3079,-6.3079,-6.3079,-6.3079,-6.3079,-6.3079,-6.3079,-6.3079,-6.3079,-6.3079,-6.3079,-6.3079,-6.3079,-6.3079,-6.3079,-6.3079,-6.3079,-6.3079,-6.3079,-6.3079,-6.3079,-6.3079,-6.3079,-6.3079,-6.3079,-6.3079,-6.3079,-6.3079,-6.3079,-6.3079,-6.3079,-6.3079,-6.3079,-6.3079,-6.3079,-6.3079,-6.3079,-6.3079,-6.3079,-6.3079,-6.3079,-6.3079,-6.3079,0.0,0.0,0.0,0.0,0.0,0.0,0.0,0.0,0.0,0.0,0.0,0.0,0.0,0.0,0.0,0.0,0.0,0.0,0.0,0.0,0.0,0.0,0.0,0.0,0.0,0.0,-5.9099,-5.9099,-5.9099,-5.9099,-5.9099,-5.9099,-5.9099,-5.9099,-5.9099,-5.9099,-5.9099,-5.9099,-5.9099,-5.9099,-5.9099,-5.9099,-5.9099,-5.9099,-5.9099,-5.9099,-5.9099,-5.9099,-5.9099,-5.9099,-5.9308,-5.9608,-5.9608,-5.9847,-6.0176,-6.0505,-6.0625,-6.0685,-6.1014,-6.1104,-6.1104,-6.1104,-6.1104,-6.1104,-6.1104,-6.1343,-6.1613,-6.1613,-6.2091,-6.26,-6.26,-6.2839,-6.3079,-6.3079,-6.3079,-6.3079,-6.3079,-6.3079,-6.3079,-6.3079,-6.3079,-6.3079,-6.3079,-6.3079,-6.3079,-6.3079,-6.3079,-6.3079,-6.3079,-6.3079,-6.3079,-6.3079,-6.3079,-6.3079,-6.3079,-6.3079,-6.3079,-6.3079,-6.3079,-6.3079,-6.3079,-6.3079,-6.3079,-6.3079,-6.3079,-6.3079,-6.3079,-6.3079,-6.3079,-6.3079,-6.3079,-6.3079,0.0,0.0,0.0,0.0,0.0,0.0,0.0,0.0,0.0,0.0,0.0,0.0,0.0,0.0,0.0,0.0,0.0,0.0,0.0,0.0,0.0,0.0,0.0,0.0,0.0,0.0,-5.9099,-5.9099,-5.9099,-5.9099,-5.9099,-5.9099,-5.9099,-5.9099,-5.9099,-5.9099,-5.9099,-5.9099,-5.9099,-5.9099,-5.9099,-5.9099,-5.9099,-5.9099,-5.9099,-5.9099,-5.9099,-5.9099,-5.9099,-5.9099,-5.9099,-5.9099,-5.9099,-5.9099,-5.9159,-5.9727,-5.9907,-5.9997,-6.0565,-6.0775,-6.0775,-6.0775,-6.0775,-6.0775,-6.0775,-6.0835,-6.0924,-6.0924,-6.1403,-6.1942,-6.1942,-6.2331,-6.272,-6.272,-6.281,-6.2929,-6.3049,-6.3079,-6.3079,-6.3079,-6.3079,-6.3079,-6.3079,-6.3079,-6.3079,-6.3079,-6.3079,-6.3079,-6.3079,-6.3079,-6.3079,-6.3079,-6.3079,-6.3079,-6.3079,-6.3079,-6.3079,-6.3079,-6.3079,-6.3079,-6.3079,-6.3079,-6.3079,-6.3079,-6.3079,-6.3079,-6.3079,-6.3079,-6.3079,-6.3079,-6.3079,-6.3079,0.0,0.0,0.0,0.0,0.0,0.0,0.0,0.0,0.0,0.0,0.0,0.0,0.0,0.0,0.0,0.0,0.0,0.0,0.0,0.0,0.0,0.0,0.0,0.0,0.0,0.0,-5.9099,-5.9099,-5.9099,-5.9099,-5.9099,-5.9099,-5.9099,-5.9099,-5.9099,-5.9099,-5.9099,-5.9099,-5.9099,-5.9099,-5.9099,-5.9099,-5.9099,-5.9099,-5.9099,-5.9099,-5.9099,-5.9099,-5.9099,-5.9099,-5.9099,-5.9099,-5.9099,-5.9099,-5.9129,-5.9189,-5.9249,-5.9249,-5.9338,-5.9368,-5.9368,-5.9368,-5.9368,-5.9368,-5.9368,-5.9757,-6.0206,-6.0206,-6.0715,-6.1253,-6.1253,-6.1313,-6.1373,-6.1373,-6.1822,-6.2391,-6.2959,-6.3079,-6.3079,-6.3079,-6.3079,-6.3079,-6.3079,-6.3079,-6.3079,-6.3079,-6.3079,-6.3079,-6.3079,-6.3079,-6.3079,-6.3079,-6.3079,-6.3079,-6.3079,-6.3079,-6.3079,-6.3079,-6.3079,-6.3079,-6.3079,-6.3079,-6.3079,-6.3079,-6.3079,-6.3079,-6.3079,-6.3079,-6.3079,-6.3079,-6.3079,-6.3079,0.0,0.0,0.0,0.0,0.0,0.0,0.0,0.0,0.0,0.0,0.0,0.0,0.0,0.0,0.0,0.0,0.0,0.0,0.0,0.0,0.0,0.0,0.0,0.0,0.0,0.0,-5.871,-5.9069,-5.9099,-5.9099,-5.9099,-5.9099,-5.9099,-5.9099,-5.9099,-5.9099,-5.9099,-5.9099,-5.9099,-5.9099,-5.9099,-5.9099,-5.9099,-5.9099,-5.9099,-5.9099,-5.9099,-5.9099,-5.9099,-5.9099,-5.9099,-5.9099,-5.9099,-5.9099,-5.9099,-5.9099,-5.9099,-5.9099,-5.9099,-5.9099,-5.9099,-5.9099,-5.9099,-5.9099,-5.9099,-5.9308,-5.9548,-5.9548,-6.0027,-6.0535,-6.0535,-6.0835,-6.1104,-6.1104,-6.1343,-6.1613,-6.1912,-6.257,-6.3079,-6.3079,-6.3079,-6.3079,-6.3079,-6.3079,-6.3079,-6.3079,-6.3079,-6.3079,-6.3079,-6.3079,-6.3079,-6.3079,-6.3079,-6.3079,-6.3079,-6.3079,-6.3079,-6.3079,-6.3079,-6.3079,-6.3079,-6.3079,-6.3079,-6.3079,-6.3079,-6.3079,-6.3079,-6.3079,-6.3079,-6.3079,-6.3079,-6.3079,0.0,0.0,0.0,0.0,0.0,0.0,0.0,0.0,0.0,0.0,0.0,0.0,0.0,0.0,0.0,0.0,0.0,0.0,0.0,0.0,0.0,0.0,0.0,0.0,0.0,0.0,-5.8321,-5.883,-5.9009,-5.9099,-5.9099,-5.9099,-5.9099,-5.9099,-5.9099,-5.9099,-5.9099,-5.9099,-5.9099,-5.9099,-5.9099,-5.9099,-5.9099,-5.9099,-5.9099,-5.9099,-5.9099,-5.9099,-5.9099,-5.9099,-5.9099,-5.9099,-5.9099,-5.9099,-5.9099,-5.9099,-5.9099,-5.9099,-5.9099,-5.9099,-5.9099,-5.9099,-5.9099,-5.9099,-5.9099,-5.9099,-5.9099,-5.9099,-5.9458,-5.9847,-5.9847,-6.0206,-6.0595,-6.0595,-6.0715,-6.0894,-6.1074,-6.1882,-6.263,-6.278,-6.2839,-6.2869,-6.3049,-6.3079,-6.3079,-6.3079,-6.3079,-6.3079,-6.3079,-6.3079,-6.3079,-6.3079,-6.3079,-6.3079,-6.3079,-6.3079,-6.3079,-6.3079,-6.3079,-6.3079,-6.3079,-6.3079,-6.3079,-6.3079,-6.3079,-6.3079,-6.3079,-6.3079,-6.3079,-6.3079,-6.3079,-6.3079,0.0,0.0,0.0,0.0,0.0,0.0,0.0,0.0,0.0,0.0,0.0,0.0,0.0,0.0,0.0,0.0,0.0,0.0,0.0,0.0,0.0,0.0,0.0,0.0,0.0,0.0,-5.8141,-5.8171,-5.874,-5.9099,-5.9099,-5.9099,-5.9099,-5.9099,-5.9099,-5.9099,-5.9099,-5.9099,-5.9099,-5.9099,-5.9099,-5.9099,-5.9099,-5.9099,-5.9099,-5.9099,-5.9099,-5.9099,-5.9099,-5.9099,-5.9099,-5.9099,-5.9099,-5.9099,-5.9099,-5.9099,-5.9099,-5.9099,-5.9099,-5.9099,-5.9099,-5.9099,-5.9099,-5.9099,-5.9099,-5.9099,-5.9099,-5.9099,-5.9129,-5.9159,-5.9159,-5.9189,-5.9219,-5.9219,-5.9697,-6.0326,-6.0984,-6.1164,-6.1403,-6.2032,-6.2151,-6.2331,-6.2959,-6.3079,-6.3079,-6.3079,-6.3079,-6.3079,-6.3079,-6.3079,-6.3079,-6.3079,-6.3079,-6.3079,-6.3079,-6.3079,-6.3079,-6.3079,-6.3079,-6.3079,-6.3079,-6.3079,-6.3079,-6.3079,-6.3079,-6.3079,-6.3079,-6.3079,-6.3079,-6.3079,-6.3079,-6.3079,0.0,0.0,0.0,0.0,0.0,0.0,0.0,0.0,0.0,0.0,0.0,0.0,0.0,0.0,0.0,0.0,0.0,0.0,0.0,0.0,0.0,0.0,0.0,0.0,0.0,0.0,-5.7214,-5.8052,-5.8351,-5.865,-5.9069,-5.9099,-5.9099,-5.9099,-5.9099,-5.9099,-5.9099,-5.9099,-5.9099,-5.9099,-5.9099,-5.9099,-5.9099,-5.9099,-5.9099,-5.9099,-5.9099,-5.9099,-5.9099,-5.9099,-5.9099,-5.9099,-5.9099,-5.9099,-5.9099,-5.9099,-5.9099,-5.9099,-5.9099,-5.9099,-5.9099,-5.9099,-5.9099,-5.9099,-5.9099,-5.9099,-5.9099,-5.9099,-5.9099,-5.9099,-5.9099,-5.9099,-5.9099,-5.9099,-5.9279,-5.9518,-5.9757,-6.0505,-6.1194,-6.1433,-6.1463,-6.1672,-6.2331,-6.245,-6.26,-6.3019,-6.3079,-6.3079,-6.3079,-6.3079,-6.3079,-6.3079,-6.3079,-6.3079,-6.3079,-6.3079,-6.3079,-6.3079,-6.3079,-6.3079,-6.3079,-6.3079,-6.3079,-6.3079,-6.3079,-6.3079,-6.3079,-6.3079,-6.3079,-6.3079,-6.3079,-6.3079,0.0,0.0,0.0,0.0,0.0,0.0,0.0,0.0,0.0,0.0,0.0,0.0,0.0,0.0,0.0,0.0,0.0,0.0,0.0,0.0,0.0,0.0,0.0,0.0,0.0,0.0,-5.6526,-5.7393,-5.7663,0.0,-5.874,-5.877,-5.889,-5.9099,-5.9099,-5.9099,-5.9099,-5.9099,-5.9099,-5.9099,-5.9099,-5.9099,-5.9099,-5.9099,-5.9099,-5.9099,-5.9099,-5.9099,-5.9099,-5.9099,-5.9099,-5.9099,-5.9099,-5.9099,-5.9099,-5.9099,-5.9099,-5.9099,-5.9099,-5.9099,-5.9099,-5.9099,-5.9099,-5.9099,-5.9099,-5.9099,-5.9099,-5.9099,-5.9099,-5.9099,-5.9099,-5.9099,-5.9099,-5.9099,-5.9099,-5.9099,-5.9099,-5.9817,-6.0505,-6.0715,-6.0775,-6.0984,-6.1642,-6.1762,-6.2002,-6.266,-6.275,-6.2839,-6.3049,-6.3079,-6.3079,-6.3079,-6.3079,-6.3079,-6.3079,-6.3079,-6.3079,-6.3079,-6.3079,-6.3079,-6.3079,-6.3079,-6.3079,-6.3079,-6.3079,-6.3079,-6.3079,-6.3079,-6.3079,-6.3079,-6.3079,-6.3079,0.0,0.0,0.0,0.0,0.0,0.0,0.0,0.0,0.0,0.0,0.0,0.0,0.0,0.0,0.0,0.0,0.0,0.0,0.0,0.0,0.0,0.0,0.0,0.0,0.0,0.0,-5.6188,-5.6218,-5.6735,-5.7363,-5.8052,-5.8112,-5.8411,-5.9069,-5.9099,-5.9099,-5.9099,-5.9099,-5.9099,-5.9099,-5.9099,-5.9099,-5.9099,-5.9099,-5.9099,-5.9099,-5.9099,-5.9099,-5.9099,-5.9099,-5.9099,-5.9099,-5.9099,-5.9099,-5.9099,-5.9099,-5.9099,-5.9099,-5.9099,-5.9099,-5.9099,-5.9099,-5.9099,-5.9099,-5.9099,-5.9099,-5.9099,-5.9099,-5.9099,-5.9099,-5.9099,-5.9099,-5.9099,-5.9099,-5.9099,-5.9099,-5.9099,-5.9099,-5.9279,-5.9937,-6.0057,-6.0266,-6.0954,-6.1074,-6.1313,-6.1972,-6.2061,-6.2301,-6.2959,-6.3049,-6.3049,-6.3079,-6.3079,-6.3079,-6.3079,-6.3079,-6.3079,-6.3079,-6.3079,-6.3079,-6.3079,-6.3079,-6.3079,-6.3079,-6.3079,-6.3079,-6.3079,-6.3079,-6.3079,-6.3079,-6.3079,-6.3079,-4.8172,0.0,0.0,0.0,0.0,0.0,0.0,0.0,0.0,0.0,0.0,0.0,0.0,0.0,0.0,0.0,0.0,0.0,0.0,0.0,0.0,0.0,0.0,0.0,0.0,0.0,-5.5658,0.0,-5.6316,-5.6705,-5.7334,-5.7842,-5.8201,-5.8381,-5.886,-5.9099,-5.9099,-5.9099,-5.9099,-5.9099,-5.9099,-5.9099,-5.9099,-5.9099,-5.9099,-5.9099,-5.9099,-5.9099,-5.9099,-5.9099,-5.9099,-5.9099,-5.9099,-5.9099,-5.9099,-5.9099,-5.9099,-5.9099,-5.9099,-5.9099,-5.9099,-5.9099,-5.9099,-5.9099,-5.9099,-5.9099,-5.9099,-5.9099,-5.9099,-5.9099,-5.9099,-5.9099,-5.9099,-5.9099,-5.9099,-5.9099,-5.9099,-5.9099,-5.9159,-5.9338,-5.9368,-5.9578,-6.0266,-6.0386,-6.0595,-6.1283,-6.1373,-6.1613,-6.2271,-6.2361,-6.254,-6.3019,-6.3079,-6.3079,-6.3079,-6.3079,-6.3079,-6.3079,-6.3079,-6.3079,-6.3079,-6.3079,-6.3079,-6.3079,-6.3079,-6.3079,-6.3079,-6.3079,-6.3079,-6.3079,-6.3079,-6.3079,-4.8172,-4.8172,-4.8172,0.0,0.0,0.0,-4.9646,-4.9901,0.0,0.0,0.0,0.0,0.0,0.0,0.0,0.0,0.0,0.0,0.0,0.0,0.0,0.0,0.0,0.0,0.0,-5.5179,-5.5359,-5.5718,-5.5777,-5.6047,-5.6675,-5.7334,-5.7693,-5.7693,-5.8351,-5.871,-5.871,-5.8979,-5.9099,-5.9099,-5.9099,-5.9099,-5.9099,-5.9099,-5.9099,-5.9099,-5.9099,-5.9099,-5.9099,-5.9099,-5.9099,-5.9099,-5.9099,-5.9099,-5.9099,-5.9099,-5.9099,-5.9099,-5.9099,-5.9099,-5.9099,-5.9099,-5.9099,-5.9099,-5.9099,-5.9099,-5.9099,-5.9099,-5.9099,-5.9099,-5.9099,-5.9099,-5.9099,-5.9099,-5.9099,-5.9099,-5.9099,-5.9099,-5.9099,-5.9099,-5.9099,-5.9219,-5.9608,-5.9668,-5.9907,-6.0595,-6.0685,-6.0924,-6.1613,-6.1942,-6.2241,-6.263,-6.2899,-6.3079,-6.3079,-6.3079,-6.3079,-6.3079,-6.3079,-6.3079,-6.3079,-6.3079,-6.3079,-6.3079,-6.3079,-6.3079,-6.3079,-6.3079,-6.3079,-6.3079,-6.3079,-6.3079,-4.8172,-4.8172,-4.8172,-4.8172,-4.8172,0.0,-4.9475,-4.9702,-5.0041,0.0,0.0,0.0,0.0,0.0,0.0,0.0,0.0,0.0,0.0,0.0,0.0,0.0,0.0,0.0,-5.5179,-5.5179,-5.5179,-5.5179,-5.5179,-5.5448,-5.6047,-5.6645,-5.7004,-5.7004,-5.7663,-5.8052,-5.8112,-5.871,-5.9039,-5.9099,-5.9099,-5.9045,-5.8882,-5.8882,-5.8798,-5.8689,-5.8689,-5.8689,-5.8689,-5.8798,-5.8991,-5.9099,-5.9099,-5.9099,-5.9099,-5.9099,-5.9099,-5.9099,-5.9099,-5.9099,-5.9099,-5.8936,-5.8991,-5.9045,-5.8936,-5.8991,-5.9099,-5.9099,-5.9099,-5.9099,-5.9099,-5.9099,-5.9099,-5.9099,-5.9099,-5.9099,-5.9099,-5.9099,-5.9099,-5.9099,-5.9099,-5.9099,-5.9099,-5.9099,-5.9308,-5.9877,-5.9967,-6.0236,-6.0894,-6.1523,-6.1912,-6.1972,-6.257,-6.2959,-6.2959,-6.3049,-6.3079,-6.3079,-6.3079,-6.3079,-6.3079,-6.3079,-6.3079,-6.3079,-6.3079,-6.3079,-6.3079,-6.3079,-6.3079,-6.3079,-6.3079,-6.3079,-4.8172,-4.8172,-4.8172,-4.8172,-4.8172,0.0,-4.8463,-4.8521,-4.8842,0.0,0.0,0.0,0.0,0.0,0.0,0.0,0.0,0.0,0.0,0.0,0.0,0.0,0.0,0.0,-5.5179,-5.5179,-5.5179,-5.5179,-5.5179,-5.5239,-5.5388,-5.5987,-5.6346,-5.6346,-5.6974,-5.7573,-5.8058,-5.8261,-5.859,-5.9099,-5.9099,-5.858,-5.7552,-5.7552,-5.7047,-5.6107,-5.6107,-5.6107,-5.6222,-5.716,-5.8166,-5.9099,-5.9099,-5.9099,-5.9099,-5.9099,-5.9099,-5.9099,-5.9099,-5.9099,-5.8936,-5.7915,-5.8276,-5.8936,-5.786,-5.8276,-5.9099,-5.9099,-5.9099,-5.9099,-5.9099,-5.9099,-5.9099,-5.9099,-5.9099,-5.9099,-5.9099,-5.9099,-5.9099,-5.9099,-5.9099,-5.9099,-5.9099,-5.9099,-5.9159,-5.9279,-5.9308,-5.9548,-6.0206,-6.0386,-6.0685,-6.1253,-6.1912,-6.2301,-6.2301,-6.278,-6.3079,-6.3079,-6.3079,-6.3079,-6.3079,-6.3079,-6.3079,-6.3079,-6.3079,-6.3079,-6.3079,-6.3079,-6.3079,-6.3079,-6.3079,-6.3079,-4.8114,-4.8172,-4.8172,-4.8172,-4.8172,0.0,0.0,-4.8172,-4.8347,0.0,0.0,0.0,0.0,0.0,0.0,0.0,0.0,0.0,0.0,0.0,0.0,0.0,0.0,0.0,-5.3442,-5.3964,-5.4304,-5.4304,-5.3756,-5.3704,-5.4252,-5.4598,-5.5064,-5.5688,-5.6286,-5.6504,-5.6273,-5.6868,-5.737,-5.7749,-5.738,-5.7245,-5.7187,-5.6594,-5.5964,-5.5412,-5.5412,-5.5412,-5.547,-5.6079,-5.6651,-5.7358,-5.8634,-5.9099,-5.9099,-5.9099,-5.8689,-5.8136,-5.8136,-5.8136,-5.797,-5.6708,-5.716,-5.8026,-5.7384,-5.8081,-5.9099,-5.9099,-5.9099,-5.9099,-5.9099,-5.9099,-5.9099,-5.9099,-5.9099,-5.9099,-5.9099,-5.9099,-5.9099,-5.9099,-5.9099,-5.9099,-5.9099,-5.9099,-5.9099,-5.9099,-5.9099,-5.9219,-5.9548,-5.9877,-6.0206,-6.0565,-6.1194,-6.1732,-6.2061,-6.2391,-6.272,-6.3049,-6.3079,-6.3079,-6.3079,-6.3079,-6.3079,-6.3079,-6.3079,-6.3079,-6.3079,-6.3079,-6.3079,-6.3079,-6.3079,-6.3079,-4.8114,-4.8172,-4.8172,-4.8172,-4.8172,-4.8172,0.0,0.0,0.0,0.0,0.0,0.0,0.0,0.0,0.0,0.0,0.0,0.0,0.0,0.0,0.0,0.0,0.0,0.0,-5.1674,-5.2537,-5.3097,-5.3097,-5.2216,-5.2108,-5.3045,-5.3097,-5.3518,-5.4487,-5.5248,-5.5129,-5.4075,-5.5423,-5.6061,-5.601,-5.5622,-5.579,-5.6451,-5.55,-5.4915,-5.4679,-5.4679,-5.4679,-5.4679,-5.4915,-5.5032,-5.5267,-5.7526,-5.8415,-5.8415,-5.8415,-5.7749,-5.6849,-5.6849,-5.6849,-5.6622,-5.5442,-5.5704,-5.6508,-5.6792,-5.7581,-5.8415,-5.8415,-5.8415,-5.8415,-5.8415,-5.858,-5.8743,-5.8743,-5.8936,-5.9099,-5.9099,-5.9099,-5.9099,-5.9099,-5.9099,-5.9099,-5.9099,-5.9099,-5.9099,-5.9099,-5.9099,-5.9099,-5.9099,-5.9578,-5.9907,-5.9907,-6.0505,-6.1134,-6.1672,-6.1822,-6.2181,-6.2839,-6.2899,-6.2959,-6.3079,-6.3079,-6.3079,-6.3079,-6.3079,-6.3079,-6.3079,-6.3079,-6.3079,-6.3079,-6.3079,-6.3079,-4.8114,-4.8172,-4.8172,-4.8172,-4.8172,-4.8172,-4.8172,0.0,-4.8172,-4.8172,0.0,0.0,0.0,0.0,0.0,0.0,0.0,0.0,0.0,0.0,0.0,0.0,0.0,0.0,-5.1674,-5.1811,-5.1892,-5.1892,-5.1783,-5.1729,-5.1892,-5.1892,-5.1946,-5.2082,-5.3155,-5.3473,-5.2878,-5.4579,-5.5156,-5.4742,-5.5218,-5.4856,-5.3904,-5.3784,-5.3086,-5.2006,-5.2006,-5.2006,-5.213,-5.3268,-5.3724,-5.3844,-5.5267,-5.5818,-5.5818,-5.5818,-5.5732,-5.5616,-5.5616,-5.5616,-5.5383,-5.4144,-5.3784,-5.4144,-5.5267,-5.5674,-5.5818,-5.5818,-5.5818,-5.5818,-5.5818,-5.6594,-5.744,-5.744,-5.8276,-5.9099,-5.9099,-5.9099,-5.9099,-5.9099,-5.9099,-5.9099,-5.9099,-5.9099,-5.9099,-5.9099,-5.9099,-5.9099,-5.9099,-5.9159,-5.9219,-5.9219,-5.9817,-6.0236,-6.0296,-6.0864,-6.1493,-6.2181,-6.2211,-6.248,-6.3049,-6.3079,-6.3079,-6.3079,-6.3079,-6.3079,-6.3079,-6.3079,-6.3079,-6.3079,-6.3079,-6.3079,-4.8055,-4.8055,-4.7938,-4.8114,-4.8055,-4.7938,-4.8198,-4.8172,-4.8172,-4.8172,0.0,0.0,0.0,0.0,0.0,0.0,-4.8172,0.0,0.0,0.0,0.0,0.0,0.0,0.0,-5.0573,-5.0041,-4.9928,-5.0573,-5.0041,-4.9928,-5.0629,-5.0629,-5.0962,-5.1674,-5.2162,-5.195,-5.107,-5.2128,-5.2739,-5.2947,-5.2783,-5.3004,-5.351,-5.2719,-5.213,-5.1596,-5.1596,-5.1596,-5.1659,-5.2192,-5.2439,-5.2439,-5.2964,-5.4084,-5.5412,-5.5412,-5.4915,-5.4263,-5.4263,-5.4263,-5.4204,-5.3691,-5.351,-5.3631,-5.4144,-5.4797,-5.5412,-5.5412,-5.5412,-5.5412,-5.5412,-5.579,-5.6136,-5.6136,-5.7104,-5.797,-5.797,-5.858,-5.9099,-5.9099,-5.9099,-5.9099,-5.9099,-5.9099,-5.9099,-5.9099,-5.9099,-5.9099,-5.9099,-5.9099,-5.9099,-5.9099,-5.9338,-5.9668,-6.0057,-6.0356,-6.0805,-6.1493,-6.1882,-6.2391,-6.3049,-6.3079,-6.3079,-6.3079,-6.3079,-6.3079,-6.3079,-6.3079,-6.3079,-6.3079,-6.3079,-6.3079,-4.788,-4.788,-4.7762,-4.8114,-4.7997,-4.788,-4.8114,-4.8172,-4.8172,-4.8172,-4.8172,0.0,0.0,0.0,-4.8172,-4.8172,0.0,-4.8172,0.0,0.0,0.0,0.0,0.0,0.0,0.0,-4.8669,-4.8553,-4.9362,-4.8669,-4.8553,-4.9362,-4.9418,-4.9816,-5.0712,-5.1017,-5.0629,-4.9418,-5.0324,-5.0976,-5.1277,-5.0959,-5.154,-5.2964,-5.2006,-5.1596,-5.1596,-5.1596,-5.1596,-5.1596,-5.1596,-5.1596,-5.1596,-5.1596,-5.2719,-5.4323,-5.4323,-5.3784,-5.2964,-5.2964,-5.2964,-5.2964,-5.2964,-5.2964,-5.2964,-5.2964,-5.3631,-5.4323,-5.4323,-5.4323,-5.4323,-5.4323,-5.4619,-5.4856,-5.4856,-5.5848,-5.6708,-5.6708,-5.7414,-5.8166,-5.8525,-5.858,-5.8689,-5.9045,-5.9099,-5.9099,-5.9099,-5.9099,-5.9099,-5.9099,-5.9099,-5.9099,-5.9099,-5.9099,-5.9308,-5.9787,-5.9817,-6.0116,-6.0775,-6.1642,-6.2301,-6.278,-6.2989,-6.3079,-6.3079,-6.3079,-6.3079,-6.3079,-6.3079,-6.3079,-6.3079,-6.3079,-6.3079,-4.7527,-4.7703,-4.7762,-4.8114,-4.8172,-4.8172,-4.8172,-4.8172,-4.8172,-4.8172,-4.8172,-4.8172,-4.8172,-4.8172,-4.8172,-4.8172,-4.8172,0.0,0.0,0.0,0.0,0.0,0.0,0.0,0.0,-4.823,-4.823,-4.823,-4.823,-4.823,-4.823,-4.823,-4.8289,-4.8289,-4.9362,-4.9418,-4.8289,-4.9921,-5.051,-4.9958,-5.0498,-5.1135,-5.1659,-5.1596,-5.1596,-5.1596,-5.1596,-5.1596,-5.1596,-5.1596,-5.1596,-5.1596,-5.1596,-5.1659,-5.1721,-5.1721,-5.1721,-5.1659,-5.1659,-5.1659,-5.1659,-5.1659,-5.1659,-5.1659,-5.1659,-5.1721,-5.1721,-5.1721,-5.1721,-5.1721,-5.1721,-5.2658,-5.3571,-5.3571,-5.4501,-5.547,-5.547,-5.55,-5.5848,-5.7018,-5.7243,-5.7664,-5.8882,-5.9099,-5.9099,-5.9099,-5.9099,-5.9099,-5.9099,-5.9099,-5.9099,-5.9099,-5.9099,-5.9129,-5.9129,-5.9129,-5.9428,-6.0086,-6.1373,-6.2121,-6.2121,-6.275,-6.3079,-6.3079,-6.3079,-6.3079,-6.3079,-6.3079,-6.3079,-6.3079,-6.3079,-6.3079,-4.729,-4.7231,-4.7257,-4.7762,-4.7703,-4.7619,-4.8114,-4.8172,-4.8172,-4.8172,-4.8172,-4.8172,-4.8172,-4.8172,-4.8172,-4.8172,-4.8172,-4.8172,0.0,0.0,0.0,0.0,0.0,0.0,0.0,0.0,0.0,-4.8172,-4.8172,-4.8172,-4.8172,-4.8172,-4.8172,-4.8172,-4.8553,-4.8553,-4.8172,-4.8764,-4.9344,-4.9897,-5.0106,-5.0681,-5.1596,-5.1596,-5.1596,-5.1596,-5.1596,-5.1596,-5.1596,-5.1596,-5.1596,-5.1596,-5.1596,-5.1596,-5.1596,-5.1596,-5.1596,-5.1596,-5.1596,-5.1596,-5.1596,-5.1596,-5.1596,-5.1596,-5.1596,-5.1596,-5.1596,-5.1596,-5.1596,-5.1596,-5.1596,-5.1882,-5.2253,-5.2253,-5.3207,-5.4144,-5.4144,-5.4797,-5.5528,-5.5906,-5.6021,-5.6423,-5.7608,-5.786,-5.8136,-5.8991,-5.9099,-5.9099,-5.9099,-5.9099,-5.9099,-5.9099,-5.9099,-5.9099,-5.9099,-5.9099,-5.9398,-6.0057,-6.0505,-6.0984,-6.1433,-6.2091,-6.2421,-6.2421,-6.2839,-6.3079,-6.3079,-6.3079,-6.3079,-6.3079,-6.3079,-6.3079,-4.6993,-4.6959,-4.6925,-4.7409,-4.7383,-4.7324,-4.788,-4.7997,-4.7997,-4.7997,-4.8114,-4.8114,-4.788,-4.8055,-4.8172,-4.8055,-4.8114,-4.8172,0.0,-4.8172,0.0,0.0,0.0,0.0,0.0,0.0,-4.8172,-4.8172,-4.8172,-4.8172,-4.8172,-4.8172,-4.8172,-4.8172,-4.8172,-4.8172,-4.8172,-4.8172,-4.8669,-4.961,-4.9793,-5.0394,-5.1309,-5.1518,-5.1596,-5.1596,-5.1596,-5.1596,-5.1596,-5.1596,-5.1596,-5.1596,-5.1596,-5.1596,-5.1596,-5.1596,-5.1596,-5.1596,-5.1596,-5.1596,-5.1596,-5.1596,-5.1596,-5.1596,-5.1596,-5.1596,-5.1596,-5.1596,-5.1596,-5.1596,-5.1596,-5.1596,-5.1596,-5.1596,-5.2253,-5.2842,-5.2842,-5.351,-5.4144,-5.4619,-5.4738,-5.5091,-5.6366,-5.6934,-5.7608,-5.8936,-5.9099,-5.9099,-5.9099,-5.9099,-5.9099,-5.9099,-5.9099,-5.9099,-5.9099,-5.9099,-5.9279,-5.9697,-5.9967,-6.0266,-6.0745,-6.1613,-6.2091,-6.2091,-6.275,-6.2959,-6.272,-6.272,-6.26,-6.2391,-6.2391,-6.2391]}]]